<?xml version="1.0" encoding="UTF-8" standalone="no" ?>
<gpx xmlns="http://www.topografix.com/GPX/1/1" xmlns:xsi="http://www.w3.org/2001/XMLSchema-instance" xsi:schemaLocation="http://www.topografix.com/GPX/1/1 http://www.topografix.com/GPX/1/1/gpx.xsd" version="1.1" creator="VisuGPX - https://www.visugpx.com">
  <metadata>
    <name>170721boisLeRoiAvon</name>
    <desc><![CDATA[Total: 32.0km]]></desc>
  </metadata>
  <trk>
    <name><![CDATA[170721boisLeRoiAvon]]></name>
    <desc><![CDATA[Total: 32.0km]]></desc>
    <extensions>
      <line xmlns="http://www.topografix.com/GPX/gpx_style/0/2">
        <color>0000FF</color>
        <width>4</width>
      </line>
    </extensions>
    <trkseg>
      <trkpt lat="48.47505" lon="2.69181">
        <ele>79.7</ele>
        <time>2021-07-17T08:55:01Z</time>
      </trkpt>
      <trkpt lat="48.47505" lon="2.69181">
        <ele>79.7</ele>
        <time>2021-07-17T08:55:29Z</time>
      </trkpt>
      <trkpt lat="48.47505" lon="2.69181">
        <ele>79.7</ele>
        <time>2021-07-17T08:55:30Z</time>
      </trkpt>
      <trkpt lat="48.47506" lon="2.69182">
        <ele>79.7</ele>
        <time>2021-07-17T08:55:59Z</time>
      </trkpt>
      <trkpt lat="48.47506" lon="2.69182">
        <ele>79.7</ele>
        <time>2021-07-17T08:56:00Z</time>
      </trkpt>
      <trkpt lat="48.47501" lon="2.69177">
        <ele>79.9</ele>
        <time>2021-07-17T08:56:29Z</time>
      </trkpt>
      <trkpt lat="48.47501" lon="2.69177">
        <ele>79.9</ele>
        <time>2021-07-17T08:56:30Z</time>
      </trkpt>
      <trkpt lat="48.47503" lon="2.69178">
        <ele>79.8</ele>
        <time>2021-07-17T08:56:59Z</time>
      </trkpt>
      <trkpt lat="48.47502" lon="2.6918">
        <ele>79.8</ele>
        <time>2021-07-17T08:57:00Z</time>
      </trkpt>
      <trkpt lat="48.475" lon="2.69178">
        <ele>79.9</ele>
        <time>2021-07-17T08:57:29Z</time>
      </trkpt>
      <trkpt lat="48.47499" lon="2.69177">
        <ele>79.9</ele>
        <time>2021-07-17T08:57:30Z</time>
      </trkpt>
      <trkpt lat="48.47499" lon="2.69175">
        <ele>80</ele>
        <time>2021-07-17T08:57:59Z</time>
      </trkpt>
      <trkpt lat="48.47499" lon="2.69175">
        <ele>80</ele>
        <time>2021-07-17T08:58:00Z</time>
      </trkpt>
      <trkpt lat="48.47497" lon="2.69175">
        <ele>80</ele>
        <time>2021-07-17T08:58:29Z</time>
      </trkpt>
      <trkpt lat="48.47497" lon="2.69175">
        <ele>80</ele>
        <time>2021-07-17T08:58:30Z</time>
      </trkpt>
      <trkpt lat="48.475" lon="2.69178">
        <ele>79.9</ele>
        <time>2021-07-17T08:58:59Z</time>
      </trkpt>
      <trkpt lat="48.475" lon="2.69177">
        <ele>79.9</ele>
        <time>2021-07-17T08:59:00Z</time>
      </trkpt>
      <trkpt lat="48.47499" lon="2.69176">
        <ele>79.9</ele>
        <time>2021-07-17T08:59:29Z</time>
      </trkpt>
      <trkpt lat="48.475" lon="2.69176">
        <ele>79.9</ele>
        <time>2021-07-17T08:59:30Z</time>
      </trkpt>
      <trkpt lat="48.47487" lon="2.69153">
        <ele>80.9</ele>
        <time>2021-07-17T08:59:47Z</time>
      </trkpt>
      <trkpt lat="48.47476" lon="2.6913">
        <ele>81.6</ele>
        <time>2021-07-17T08:59:58Z</time>
      </trkpt>
      <trkpt lat="48.47459" lon="2.69113">
        <ele>82.3</ele>
        <time>2021-07-17T09:00:08Z</time>
      </trkpt>
      <trkpt lat="48.47441" lon="2.69095">
        <ele>82.7</ele>
        <time>2021-07-17T09:00:16Z</time>
      </trkpt>
      <trkpt lat="48.47424" lon="2.69078">
        <ele>82.9</ele>
        <time>2021-07-17T09:00:26Z</time>
      </trkpt>
      <trkpt lat="48.47406" lon="2.69078">
        <ele>83.6</ele>
        <time>2021-07-17T09:00:39Z</time>
      </trkpt>
      <trkpt lat="48.47403" lon="2.69106">
        <ele>84</ele>
        <time>2021-07-17T09:00:45Z</time>
      </trkpt>
      <trkpt lat="48.47395" lon="2.6913">
        <ele>84.6</ele>
        <time>2021-07-17T09:00:52Z</time>
      </trkpt>
      <trkpt lat="48.47385" lon="2.69157">
        <ele>85.1</ele>
        <time>2021-07-17T09:00:59Z</time>
      </trkpt>
      <trkpt lat="48.47376" lon="2.69183">
        <ele>85.1</ele>
        <time>2021-07-17T09:01:12Z</time>
      </trkpt>
      <trkpt lat="48.47366" lon="2.6921">
        <ele>84.7</ele>
        <time>2021-07-17T09:01:19Z</time>
      </trkpt>
      <trkpt lat="48.47358" lon="2.69238">
        <ele>84.1</ele>
        <time>2021-07-17T09:01:24Z</time>
      </trkpt>
      <trkpt lat="48.47348" lon="2.69261">
        <ele>83.7</ele>
        <time>2021-07-17T09:01:30Z</time>
      </trkpt>
      <trkpt lat="48.47328" lon="2.69266">
        <ele>83.9</ele>
        <time>2021-07-17T09:01:37Z</time>
      </trkpt>
      <trkpt lat="48.47307" lon="2.69261">
        <ele>84.3</ele>
        <time>2021-07-17T09:01:45Z</time>
      </trkpt>
      <trkpt lat="48.47289" lon="2.69255">
        <ele>84.5</ele>
        <time>2021-07-17T09:01:51Z</time>
      </trkpt>
      <trkpt lat="48.47271" lon="2.69248">
        <ele>84.8</ele>
        <time>2021-07-17T09:01:56Z</time>
      </trkpt>
      <trkpt lat="48.4725" lon="2.69241">
        <ele>85.2</ele>
        <time>2021-07-17T09:02:03Z</time>
      </trkpt>
      <trkpt lat="48.47229" lon="2.69232">
        <ele>85.6</ele>
        <time>2021-07-17T09:02:08Z</time>
      </trkpt>
      <trkpt lat="48.47205" lon="2.69225">
        <ele>85.8</ele>
        <time>2021-07-17T09:02:13Z</time>
      </trkpt>
      <trkpt lat="48.47185" lon="2.69214">
        <ele>86</ele>
        <time>2021-07-17T09:02:18Z</time>
      </trkpt>
      <trkpt lat="48.47166" lon="2.6921">
        <ele>86</ele>
        <time>2021-07-17T09:02:24Z</time>
      </trkpt>
      <trkpt lat="48.47144" lon="2.69205">
        <ele>86</ele>
        <time>2021-07-17T09:02:31Z</time>
      </trkpt>
      <trkpt lat="48.47119" lon="2.69198">
        <ele>86</ele>
        <time>2021-07-17T09:02:36Z</time>
      </trkpt>
      <trkpt lat="48.47099" lon="2.69189">
        <ele>86</ele>
        <time>2021-07-17T09:02:41Z</time>
      </trkpt>
      <trkpt lat="48.4708" lon="2.69183">
        <ele>86.1</ele>
        <time>2021-07-17T09:02:46Z</time>
      </trkpt>
      <trkpt lat="48.47057" lon="2.69175">
        <ele>86.6</ele>
        <time>2021-07-17T09:02:51Z</time>
      </trkpt>
      <trkpt lat="48.47036" lon="2.69168">
        <ele>87.1</ele>
        <time>2021-07-17T09:02:56Z</time>
      </trkpt>
      <trkpt lat="48.47015" lon="2.69162">
        <ele>87.7</ele>
        <time>2021-07-17T09:03:01Z</time>
      </trkpt>
      <trkpt lat="48.46988" lon="2.69155">
        <ele>88.2</ele>
        <time>2021-07-17T09:03:06Z</time>
      </trkpt>
      <trkpt lat="48.46961" lon="2.69145">
        <ele>88.4</ele>
        <time>2021-07-17T09:03:11Z</time>
      </trkpt>
      <trkpt lat="48.46941" lon="2.69138">
        <ele>88.6</ele>
        <time>2021-07-17T09:03:16Z</time>
      </trkpt>
      <trkpt lat="48.46919" lon="2.69131">
        <ele>88.8</ele>
        <time>2021-07-17T09:03:21Z</time>
      </trkpt>
      <trkpt lat="48.46899" lon="2.69125">
        <ele>89</ele>
        <time>2021-07-17T09:03:27Z</time>
      </trkpt>
      <trkpt lat="48.46881" lon="2.6912">
        <ele>89.1</ele>
        <time>2021-07-17T09:03:32Z</time>
      </trkpt>
      <trkpt lat="48.46862" lon="2.69113">
        <ele>89.3</ele>
        <time>2021-07-17T09:03:37Z</time>
      </trkpt>
      <trkpt lat="48.46838" lon="2.69102">
        <ele>89.6</ele>
        <time>2021-07-17T09:03:42Z</time>
      </trkpt>
      <trkpt lat="48.46814" lon="2.69094">
        <ele>89.8</ele>
        <time>2021-07-17T09:03:47Z</time>
      </trkpt>
      <trkpt lat="48.4679" lon="2.69087">
        <ele>89.9</ele>
        <time>2021-07-17T09:03:52Z</time>
      </trkpt>
      <trkpt lat="48.46768" lon="2.69081">
        <ele>90.1</ele>
        <time>2021-07-17T09:03:58Z</time>
      </trkpt>
      <trkpt lat="48.46748" lon="2.69071">
        <ele>90.3</ele>
        <time>2021-07-17T09:04:03Z</time>
      </trkpt>
      <trkpt lat="48.46729" lon="2.69065">
        <ele>90.4</ele>
        <time>2021-07-17T09:04:10Z</time>
      </trkpt>
      <trkpt lat="48.4671" lon="2.69058">
        <ele>90.6</ele>
        <time>2021-07-17T09:04:17Z</time>
      </trkpt>
      <trkpt lat="48.46694" lon="2.69045">
        <ele>90.9</ele>
        <time>2021-07-17T09:04:23Z</time>
      </trkpt>
      <trkpt lat="48.46675" lon="2.69025">
        <ele>91.4</ele>
        <time>2021-07-17T09:04:28Z</time>
      </trkpt>
      <trkpt lat="48.4666" lon="2.69003">
        <ele>92</ele>
        <time>2021-07-17T09:04:34Z</time>
      </trkpt>
      <trkpt lat="48.46653" lon="2.68976">
        <ele>92.6</ele>
        <time>2021-07-17T09:04:39Z</time>
      </trkpt>
      <trkpt lat="48.46636" lon="2.68962">
        <ele>92.9</ele>
        <time>2021-07-17T09:04:44Z</time>
      </trkpt>
      <trkpt lat="48.46611" lon="2.68949">
        <ele>93.1</ele>
        <time>2021-07-17T09:04:49Z</time>
      </trkpt>
      <trkpt lat="48.46595" lon="2.68935">
        <ele>93.1</ele>
        <time>2021-07-17T09:04:59Z</time>
      </trkpt>
      <trkpt lat="48.4658" lon="2.68917">
        <ele>93</ele>
        <time>2021-07-17T09:05:06Z</time>
      </trkpt>
      <trkpt lat="48.46563" lon="2.68902">
        <ele>93.2</ele>
        <time>2021-07-17T09:05:11Z</time>
      </trkpt>
      <trkpt lat="48.46544" lon="2.68876">
        <ele>93</ele>
        <time>2021-07-17T09:05:16Z</time>
      </trkpt>
      <trkpt lat="48.46529" lon="2.68859">
        <ele>92.8</ele>
        <time>2021-07-17T09:05:26Z</time>
      </trkpt>
      <trkpt lat="48.46514" lon="2.68838">
        <ele>92.3</ele>
        <time>2021-07-17T09:05:37Z</time>
      </trkpt>
      <trkpt lat="48.46499" lon="2.68819">
        <ele>91.8</ele>
        <time>2021-07-17T09:05:47Z</time>
      </trkpt>
      <trkpt lat="48.46481" lon="2.688">
        <ele>91.6</ele>
        <time>2021-07-17T09:05:52Z</time>
      </trkpt>
      <trkpt lat="48.46467" lon="2.68783">
        <ele>91.4</ele>
        <time>2021-07-17T09:05:58Z</time>
      </trkpt>
      <trkpt lat="48.46452" lon="2.68763">
        <ele>91.2</ele>
        <time>2021-07-17T09:06:03Z</time>
      </trkpt>
      <trkpt lat="48.46439" lon="2.68742">
        <ele>91.1</ele>
        <time>2021-07-17T09:06:09Z</time>
      </trkpt>
      <trkpt lat="48.4642" lon="2.68723">
        <ele>91.3</ele>
        <time>2021-07-17T09:06:15Z</time>
      </trkpt>
      <trkpt lat="48.46405" lon="2.687">
        <ele>91.8</ele>
        <time>2021-07-17T09:06:20Z</time>
      </trkpt>
      <trkpt lat="48.46391" lon="2.68681">
        <ele>92.2</ele>
        <time>2021-07-17T09:06:25Z</time>
      </trkpt>
      <trkpt lat="48.4637" lon="2.68658">
        <ele>92.7</ele>
        <time>2021-07-17T09:06:30Z</time>
      </trkpt>
      <trkpt lat="48.46352" lon="2.6864">
        <ele>93</ele>
        <time>2021-07-17T09:06:36Z</time>
      </trkpt>
      <trkpt lat="48.46333" lon="2.68642">
        <ele>93</ele>
        <time>2021-07-17T09:06:43Z</time>
      </trkpt>
      <trkpt lat="48.46315" lon="2.68653">
        <ele>92.5</ele>
        <time>2021-07-17T09:06:51Z</time>
      </trkpt>
      <trkpt lat="48.46298" lon="2.68667">
        <ele>92.1</ele>
        <time>2021-07-17T09:06:58Z</time>
      </trkpt>
      <trkpt lat="48.4628" lon="2.68681">
        <ele>91.9</ele>
        <time>2021-07-17T09:07:06Z</time>
      </trkpt>
      <trkpt lat="48.46262" lon="2.68695">
        <ele>91.9</ele>
        <time>2021-07-17T09:07:13Z</time>
      </trkpt>
      <trkpt lat="48.46243" lon="2.68714">
        <ele>92.2</ele>
        <time>2021-07-17T09:07:24Z</time>
      </trkpt>
      <trkpt lat="48.46223" lon="2.68728">
        <ele>92.9</ele>
        <time>2021-07-17T09:07:32Z</time>
      </trkpt>
      <trkpt lat="48.46205" lon="2.68743">
        <ele>93.8</ele>
        <time>2021-07-17T09:07:38Z</time>
      </trkpt>
      <trkpt lat="48.46187" lon="2.68754">
        <ele>94.6</ele>
        <time>2021-07-17T09:07:44Z</time>
      </trkpt>
      <trkpt lat="48.46169" lon="2.68759">
        <ele>95.1</ele>
        <time>2021-07-17T09:07:50Z</time>
      </trkpt>
      <trkpt lat="48.46153" lon="2.6878">
        <ele>95.3</ele>
        <time>2021-07-17T09:07:56Z</time>
      </trkpt>
      <trkpt lat="48.46138" lon="2.68804">
        <ele>95.5</ele>
        <time>2021-07-17T09:08:02Z</time>
      </trkpt>
      <trkpt lat="48.46112" lon="2.68826">
        <ele>95.8</ele>
        <time>2021-07-17T09:08:07Z</time>
      </trkpt>
      <trkpt lat="48.46092" lon="2.6884">
        <ele>95.9</ele>
        <time>2021-07-17T09:08:12Z</time>
      </trkpt>
      <trkpt lat="48.46076" lon="2.68855">
        <ele>95.3</ele>
        <time>2021-07-17T09:08:17Z</time>
      </trkpt>
      <trkpt lat="48.46059" lon="2.68862">
        <ele>94.8</ele>
        <time>2021-07-17T09:08:22Z</time>
      </trkpt>
      <trkpt lat="48.46037" lon="2.68877">
        <ele>94.1</ele>
        <time>2021-07-17T09:08:28Z</time>
      </trkpt>
      <trkpt lat="48.4602" lon="2.6889">
        <ele>93.6</ele>
        <time>2021-07-17T09:08:33Z</time>
      </trkpt>
      <trkpt lat="48.46" lon="2.68902">
        <ele>93.2</ele>
        <time>2021-07-17T09:08:39Z</time>
      </trkpt>
      <trkpt lat="48.45985" lon="2.68919">
        <ele>92.4</ele>
        <time>2021-07-17T09:08:48Z</time>
      </trkpt>
      <trkpt lat="48.45983" lon="2.68936">
        <ele>91.9</ele>
        <time>2021-07-17T09:09:14Z</time>
      </trkpt>
      <trkpt lat="48.45983" lon="2.68936">
        <ele>91.9</ele>
        <time>2021-07-17T09:09:15Z</time>
      </trkpt>
      <trkpt lat="48.45972" lon="2.68958">
        <ele>91.3</ele>
        <time>2021-07-17T09:09:35Z</time>
      </trkpt>
      <trkpt lat="48.45979" lon="2.6898">
        <ele>90.9</ele>
        <time>2021-07-17T09:09:59Z</time>
      </trkpt>
      <trkpt lat="48.45979" lon="2.6898">
        <ele>90.9</ele>
        <time>2021-07-17T09:10:00Z</time>
      </trkpt>
      <trkpt lat="48.45971" lon="2.68967">
        <ele>91.2</ele>
        <time>2021-07-17T09:10:29Z</time>
      </trkpt>
      <trkpt lat="48.45971" lon="2.68968">
        <ele>91.2</ele>
        <time>2021-07-17T09:10:30Z</time>
      </trkpt>
      <trkpt lat="48.45968" lon="2.68974">
        <ele>91.1</ele>
        <time>2021-07-17T09:10:59Z</time>
      </trkpt>
      <trkpt lat="48.45968" lon="2.68974">
        <ele>91.1</ele>
        <time>2021-07-17T09:11:00Z</time>
      </trkpt>
      <trkpt lat="48.45968" lon="2.68973">
        <ele>91.1</ele>
        <time>2021-07-17T09:11:29Z</time>
      </trkpt>
      <trkpt lat="48.45968" lon="2.68973">
        <ele>91.1</ele>
        <time>2021-07-17T09:11:30Z</time>
      </trkpt>
      <trkpt lat="48.45969" lon="2.68973">
        <ele>91.1</ele>
        <time>2021-07-17T09:11:59Z</time>
      </trkpt>
      <trkpt lat="48.45969" lon="2.68973">
        <ele>91.1</ele>
        <time>2021-07-17T09:12:00Z</time>
      </trkpt>
      <trkpt lat="48.45974" lon="2.68967">
        <ele>91.2</ele>
        <time>2021-07-17T09:12:29Z</time>
      </trkpt>
      <trkpt lat="48.45974" lon="2.68967">
        <ele>91.2</ele>
        <time>2021-07-17T09:12:30Z</time>
      </trkpt>
      <trkpt lat="48.45979" lon="2.68938">
        <ele>91.8</ele>
        <time>2021-07-17T09:12:59Z</time>
      </trkpt>
      <trkpt lat="48.45985" lon="2.68925">
        <ele>92.3</ele>
        <time>2021-07-17T09:13:07Z</time>
      </trkpt>
      <trkpt lat="48.45986" lon="2.68928">
        <ele>92.2</ele>
        <time>2021-07-17T09:13:17Z</time>
      </trkpt>
      <trkpt lat="48.45986" lon="2.6893">
        <ele>92.2</ele>
        <time>2021-07-17T09:13:44Z</time>
      </trkpt>
      <trkpt lat="48.45981" lon="2.68925">
        <ele>92.1</ele>
        <time>2021-07-17T09:13:45Z</time>
      </trkpt>
      <trkpt lat="48.45981" lon="2.68923">
        <ele>92.2</ele>
        <time>2021-07-17T09:14:14Z</time>
      </trkpt>
      <trkpt lat="48.45981" lon="2.68922">
        <ele>92.2</ele>
        <time>2021-07-17T09:14:15Z</time>
      </trkpt>
      <trkpt lat="48.45981" lon="2.6892">
        <ele>92.2</ele>
        <time>2021-07-17T09:14:44Z</time>
      </trkpt>
      <trkpt lat="48.45982" lon="2.68918">
        <ele>92.3</ele>
        <time>2021-07-17T09:14:45Z</time>
      </trkpt>
      <trkpt lat="48.45982" lon="2.68918">
        <ele>92.3</ele>
        <time>2021-07-17T09:15:14Z</time>
      </trkpt>
      <trkpt lat="48.45979" lon="2.68956">
        <ele>91.4</ele>
        <time>2021-07-17T09:15:22Z</time>
      </trkpt>
      <trkpt lat="48.45977" lon="2.68944">
        <ele>91.6</ele>
        <time>2021-07-17T09:15:44Z</time>
      </trkpt>
      <trkpt lat="48.45988" lon="2.68912">
        <ele>92.6</ele>
        <time>2021-07-17T09:15:50Z</time>
      </trkpt>
      <trkpt lat="48.45973" lon="2.68932">
        <ele>91.8</ele>
        <time>2021-07-17T09:15:59Z</time>
      </trkpt>
      <trkpt lat="48.45941" lon="2.68903">
        <ele>90.9</ele>
        <time>2021-07-17T09:16:04Z</time>
      </trkpt>
      <trkpt lat="48.45923" lon="2.68907">
        <ele>90.2</ele>
        <time>2021-07-17T09:16:12Z</time>
      </trkpt>
      <trkpt lat="48.45905" lon="2.68911">
        <ele>91</ele>
        <time>2021-07-17T09:16:19Z</time>
      </trkpt>
      <trkpt lat="48.45884" lon="2.68911">
        <ele>92.6</ele>
        <time>2021-07-17T09:16:27Z</time>
      </trkpt>
      <trkpt lat="48.45865" lon="2.6891">
        <ele>94.1</ele>
        <time>2021-07-17T09:16:36Z</time>
      </trkpt>
      <trkpt lat="48.45847" lon="2.68911">
        <ele>95.6</ele>
        <time>2021-07-17T09:16:54Z</time>
      </trkpt>
      <trkpt lat="48.45839" lon="2.68922">
        <ele>96.4</ele>
        <time>2021-07-17T09:17:14Z</time>
      </trkpt>
      <trkpt lat="48.45807" lon="2.68902">
        <ele>96.4</ele>
        <time>2021-07-17T09:17:38Z</time>
      </trkpt>
      <trkpt lat="48.45792" lon="2.68919">
        <ele>97</ele>
        <time>2021-07-17T09:17:57Z</time>
      </trkpt>
      <trkpt lat="48.45784" lon="2.68945">
        <ele>96.8</ele>
        <time>2021-07-17T09:18:12Z</time>
      </trkpt>
      <trkpt lat="48.4577" lon="2.68971">
        <ele>97</ele>
        <time>2021-07-17T09:18:20Z</time>
      </trkpt>
      <trkpt lat="48.45752" lon="2.68988">
        <ele>97.8</ele>
        <time>2021-07-17T09:18:26Z</time>
      </trkpt>
      <trkpt lat="48.4573" lon="2.68979">
        <ele>98</ele>
        <time>2021-07-17T09:18:33Z</time>
      </trkpt>
      <trkpt lat="48.45711" lon="2.6897">
        <ele>98.3</ele>
        <time>2021-07-17T09:18:38Z</time>
      </trkpt>
      <trkpt lat="48.45691" lon="2.68962">
        <ele>98.6</ele>
        <time>2021-07-17T09:18:43Z</time>
      </trkpt>
      <trkpt lat="48.45683" lon="2.68969">
        <ele>98.7</ele>
        <time>2021-07-17T09:18:59Z</time>
      </trkpt>
      <trkpt lat="48.45751" lon="2.68933">
        <ele>97.2</ele>
        <time>2021-07-17T09:19:17Z</time>
      </trkpt>
      <trkpt lat="48.45725" lon="2.68951">
        <ele>97.9</ele>
        <time>2021-07-17T09:19:22Z</time>
      </trkpt>
      <trkpt lat="48.45683" lon="2.68992">
        <ele>98.8</ele>
        <time>2021-07-17T09:19:32Z</time>
      </trkpt>
      <trkpt lat="48.4568" lon="2.68983">
        <ele>98.8</ele>
        <time>2021-07-17T09:19:59Z</time>
      </trkpt>
      <trkpt lat="48.45682" lon="2.68987">
        <ele>98.8</ele>
        <time>2021-07-17T09:20:04Z</time>
      </trkpt>
      <trkpt lat="48.45691" lon="2.69003">
        <ele>98.8</ele>
        <time>2021-07-17T09:20:29Z</time>
      </trkpt>
      <trkpt lat="48.45688" lon="2.68976">
        <ele>98.7</ele>
        <time>2021-07-17T09:20:43Z</time>
      </trkpt>
      <trkpt lat="48.45684" lon="2.68981">
        <ele>98.7</ele>
        <time>2021-07-17T09:20:59Z</time>
      </trkpt>
      <trkpt lat="48.45655" lon="2.68971">
        <ele>99</ele>
        <time>2021-07-17T09:21:05Z</time>
      </trkpt>
      <trkpt lat="48.45679" lon="2.68982">
        <ele>98.8</ele>
        <time>2021-07-17T09:21:10Z</time>
      </trkpt>
      <trkpt lat="48.45687" lon="2.68975">
        <ele>98.7</ele>
        <time>2021-07-17T09:21:29Z</time>
      </trkpt>
      <trkpt lat="48.45678" lon="2.68983">
        <ele>98.8</ele>
        <time>2021-07-17T09:21:34Z</time>
      </trkpt>
      <trkpt lat="48.45686" lon="2.68989">
        <ele>98.7</ele>
        <time>2021-07-17T09:21:59Z</time>
      </trkpt>
      <trkpt lat="48.45701" lon="2.68982">
        <ele>98.5</ele>
        <time>2021-07-17T09:22:06Z</time>
      </trkpt>
      <trkpt lat="48.45683" lon="2.68987">
        <ele>98.8</ele>
        <time>2021-07-17T09:22:20Z</time>
      </trkpt>
      <trkpt lat="48.45699" lon="2.69002">
        <ele>98.6</ele>
        <time>2021-07-17T09:22:26Z</time>
      </trkpt>
      <trkpt lat="48.45688" lon="2.6899">
        <ele>98.7</ele>
        <time>2021-07-17T09:22:44Z</time>
      </trkpt>
      <trkpt lat="48.45701" lon="2.6896">
        <ele>98.4</ele>
        <time>2021-07-17T09:22:51Z</time>
      </trkpt>
      <trkpt lat="48.45695" lon="2.68971">
        <ele>98.5</ele>
        <time>2021-07-17T09:23:14Z</time>
      </trkpt>
      <trkpt lat="48.45685" lon="2.68979">
        <ele>98.7</ele>
        <time>2021-07-17T09:23:22Z</time>
      </trkpt>
      <trkpt lat="48.45688" lon="2.68984">
        <ele>98.7</ele>
        <time>2021-07-17T09:23:44Z</time>
      </trkpt>
      <trkpt lat="48.45691" lon="2.68986">
        <ele>98.7</ele>
        <time>2021-07-17T09:23:49Z</time>
      </trkpt>
      <trkpt lat="48.45685" lon="2.68981">
        <ele>98.7</ele>
        <time>2021-07-17T09:24:14Z</time>
      </trkpt>
      <trkpt lat="48.45678" lon="2.68984">
        <ele>98.8</ele>
        <time>2021-07-17T09:24:24Z</time>
      </trkpt>
      <trkpt lat="48.45657" lon="2.68998">
        <ele>99</ele>
        <time>2021-07-17T09:24:31Z</time>
      </trkpt>
      <trkpt lat="48.45639" lon="2.69007">
        <ele>99</ele>
        <time>2021-07-17T09:24:36Z</time>
      </trkpt>
      <trkpt lat="48.45617" lon="2.69017">
        <ele>99</ele>
        <time>2021-07-17T09:24:41Z</time>
      </trkpt>
      <trkpt lat="48.45585" lon="2.69011">
        <ele>98.9</ele>
        <time>2021-07-17T09:24:46Z</time>
      </trkpt>
      <trkpt lat="48.45575" lon="2.69052">
        <ele>98.6</ele>
        <time>2021-07-17T09:24:51Z</time>
      </trkpt>
      <trkpt lat="48.45569" lon="2.69078">
        <ele>98.6</ele>
        <time>2021-07-17T09:24:56Z</time>
      </trkpt>
      <trkpt lat="48.45557" lon="2.69101">
        <ele>98.5</ele>
        <time>2021-07-17T09:25:02Z</time>
      </trkpt>
      <trkpt lat="48.45538" lon="2.69106">
        <ele>99.1</ele>
        <time>2021-07-17T09:25:11Z</time>
      </trkpt>
      <trkpt lat="48.4552" lon="2.69095">
        <ele>100</ele>
        <time>2021-07-17T09:25:24Z</time>
      </trkpt>
      <trkpt lat="48.45517" lon="2.69068">
        <ele>100.3</ele>
        <time>2021-07-17T09:25:31Z</time>
      </trkpt>
      <trkpt lat="48.45505" lon="2.69084">
        <ele>100.8</ele>
        <time>2021-07-17T09:25:57Z</time>
      </trkpt>
      <trkpt lat="48.4551" lon="2.69133">
        <ele>99.4</ele>
        <time>2021-07-17T09:26:09Z</time>
      </trkpt>
      <trkpt lat="48.45507" lon="2.69103">
        <ele>100.3</ele>
        <time>2021-07-17T09:26:15Z</time>
      </trkpt>
      <trkpt lat="48.45488" lon="2.69077">
        <ele>101.2</ele>
        <time>2021-07-17T09:26:20Z</time>
      </trkpt>
      <trkpt lat="48.45469" lon="2.69077">
        <ele>101.7</ele>
        <time>2021-07-17T09:26:26Z</time>
      </trkpt>
      <trkpt lat="48.4545" lon="2.69068">
        <ele>101.9</ele>
        <time>2021-07-17T09:26:31Z</time>
      </trkpt>
      <trkpt lat="48.45427" lon="2.69059">
        <ele>102.2</ele>
        <time>2021-07-17T09:26:37Z</time>
      </trkpt>
      <trkpt lat="48.45405" lon="2.69055">
        <ele>102.1</ele>
        <time>2021-07-17T09:26:53Z</time>
      </trkpt>
      <trkpt lat="48.45388" lon="2.69045">
        <ele>101.5</ele>
        <time>2021-07-17T09:27:01Z</time>
      </trkpt>
      <trkpt lat="48.4537" lon="2.69043">
        <ele>101.2</ele>
        <time>2021-07-17T09:27:06Z</time>
      </trkpt>
      <trkpt lat="48.45337" lon="2.69029">
        <ele>100.4</ele>
        <time>2021-07-17T09:27:11Z</time>
      </trkpt>
      <trkpt lat="48.45318" lon="2.69011">
        <ele>100.8</ele>
        <time>2021-07-17T09:27:16Z</time>
      </trkpt>
      <trkpt lat="48.45306" lon="2.6899">
        <ele>101.4</ele>
        <time>2021-07-17T09:27:34Z</time>
      </trkpt>
      <trkpt lat="48.45291" lon="2.68971">
        <ele>102.7</ele>
        <time>2021-07-17T09:27:47Z</time>
      </trkpt>
      <trkpt lat="48.45275" lon="2.68955">
        <ele>104.3</ele>
        <time>2021-07-17T09:27:53Z</time>
      </trkpt>
      <trkpt lat="48.45256" lon="2.68937">
        <ele>106.5</ele>
        <time>2021-07-17T09:28:01Z</time>
      </trkpt>
      <trkpt lat="48.45241" lon="2.68921">
        <ele>107.9</ele>
        <time>2021-07-17T09:28:08Z</time>
      </trkpt>
      <trkpt lat="48.45225" lon="2.68907">
        <ele>108.7</ele>
        <time>2021-07-17T09:28:18Z</time>
      </trkpt>
      <trkpt lat="48.45207" lon="2.68908">
        <ele>108.9</ele>
        <time>2021-07-17T09:28:39Z</time>
      </trkpt>
      <trkpt lat="48.45204" lon="2.68909">
        <ele>108.9</ele>
        <time>2021-07-17T09:28:59Z</time>
      </trkpt>
      <trkpt lat="48.45202" lon="2.68909">
        <ele>108.9</ele>
        <time>2021-07-17T09:29:06Z</time>
      </trkpt>
      <trkpt lat="48.4523" lon="2.68915">
        <ele>108.3</ele>
        <time>2021-07-17T09:29:18Z</time>
      </trkpt>
      <trkpt lat="48.45205" lon="2.68919">
        <ele>108.4</ele>
        <time>2021-07-17T09:29:38Z</time>
      </trkpt>
      <trkpt lat="48.45201" lon="2.68918">
        <ele>108.5</ele>
        <time>2021-07-17T09:29:59Z</time>
      </trkpt>
      <trkpt lat="48.45206" lon="2.6892">
        <ele>108.3</ele>
        <time>2021-07-17T09:30:09Z</time>
      </trkpt>
      <trkpt lat="48.45232" lon="2.68905">
        <ele>108.7</ele>
        <time>2021-07-17T09:30:15Z</time>
      </trkpt>
      <trkpt lat="48.45213" lon="2.68908">
        <ele>108.8</ele>
        <time>2021-07-17T09:30:28Z</time>
      </trkpt>
      <trkpt lat="48.45211" lon="2.68912">
        <ele>108.7</ele>
        <time>2021-07-17T09:30:44Z</time>
      </trkpt>
      <trkpt lat="48.45189" lon="2.68898">
        <ele>109.6</ele>
        <time>2021-07-17T09:30:51Z</time>
      </trkpt>
      <trkpt lat="48.45204" lon="2.68918">
        <ele>108.5</ele>
        <time>2021-07-17T09:30:56Z</time>
      </trkpt>
      <trkpt lat="48.45207" lon="2.68914">
        <ele>108.6</ele>
        <time>2021-07-17T09:31:14Z</time>
      </trkpt>
      <trkpt lat="48.45199" lon="2.68903">
        <ele>109.2</ele>
        <time>2021-07-17T09:31:23Z</time>
      </trkpt>
      <trkpt lat="48.45189" lon="2.68926">
        <ele>108.1</ele>
        <time>2021-07-17T09:31:30Z</time>
      </trkpt>
      <trkpt lat="48.45182" lon="2.68954">
        <ele>106.3</ele>
        <time>2021-07-17T09:31:37Z</time>
      </trkpt>
      <trkpt lat="48.45166" lon="2.68971">
        <ele>105.1</ele>
        <time>2021-07-17T09:31:44Z</time>
      </trkpt>
      <trkpt lat="48.45152" lon="2.68987">
        <ele>103.4</ele>
        <time>2021-07-17T09:31:49Z</time>
      </trkpt>
      <trkpt lat="48.45124" lon="2.69025">
        <ele>101.7</ele>
        <time>2021-07-17T09:31:54Z</time>
      </trkpt>
      <trkpt lat="48.451" lon="2.69051">
        <ele>101.2</ele>
        <time>2021-07-17T09:31:59Z</time>
      </trkpt>
      <trkpt lat="48.45101" lon="2.69092">
        <ele>100.9</ele>
        <time>2021-07-17T09:32:04Z</time>
      </trkpt>
      <trkpt lat="48.45103" lon="2.69122">
        <ele>100.5</ele>
        <time>2021-07-17T09:32:12Z</time>
      </trkpt>
      <trkpt lat="48.45092" lon="2.69147">
        <ele>100.2</ele>
        <time>2021-07-17T09:32:17Z</time>
      </trkpt>
      <trkpt lat="48.45074" lon="2.69157">
        <ele>99.8</ele>
        <time>2021-07-17T09:32:31Z</time>
      </trkpt>
      <trkpt lat="48.45057" lon="2.69169">
        <ele>99</ele>
        <time>2021-07-17T09:32:39Z</time>
      </trkpt>
      <trkpt lat="48.45037" lon="2.69173">
        <ele>98.1</ele>
        <time>2021-07-17T09:32:47Z</time>
      </trkpt>
      <trkpt lat="48.45018" lon="2.6918">
        <ele>97.1</ele>
        <time>2021-07-17T09:32:52Z</time>
      </trkpt>
      <trkpt lat="48.45003" lon="2.69198">
        <ele>95.6</ele>
        <time>2021-07-17T09:32:58Z</time>
      </trkpt>
      <trkpt lat="48.44984" lon="2.69207">
        <ele>94.2</ele>
        <time>2021-07-17T09:33:03Z</time>
      </trkpt>
      <trkpt lat="48.44968" lon="2.69222">
        <ele>92.7</ele>
        <time>2021-07-17T09:33:08Z</time>
      </trkpt>
      <trkpt lat="48.44958" lon="2.69249">
        <ele>91</ele>
        <time>2021-07-17T09:33:17Z</time>
      </trkpt>
      <trkpt lat="48.44946" lon="2.69271">
        <ele>89</ele>
        <time>2021-07-17T09:33:24Z</time>
      </trkpt>
      <trkpt lat="48.44931" lon="2.6929">
        <ele>87.4</ele>
        <time>2021-07-17T09:33:31Z</time>
      </trkpt>
      <trkpt lat="48.44914" lon="2.69308">
        <ele>86.3</ele>
        <time>2021-07-17T09:33:37Z</time>
      </trkpt>
      <trkpt lat="48.44895" lon="2.69323">
        <ele>86.2</ele>
        <time>2021-07-17T09:33:42Z</time>
      </trkpt>
      <trkpt lat="48.44877" lon="2.69333">
        <ele>86.4</ele>
        <time>2021-07-17T09:33:47Z</time>
      </trkpt>
      <trkpt lat="48.44858" lon="2.69339">
        <ele>87.2</ele>
        <time>2021-07-17T09:33:53Z</time>
      </trkpt>
      <trkpt lat="48.44841" lon="2.69351">
        <ele>87.9</ele>
        <time>2021-07-17T09:34:01Z</time>
      </trkpt>
      <trkpt lat="48.44823" lon="2.69365">
        <ele>89.2</ele>
        <time>2021-07-17T09:34:09Z</time>
      </trkpt>
      <trkpt lat="48.44804" lon="2.69365">
        <ele>90.6</ele>
        <time>2021-07-17T09:34:14Z</time>
      </trkpt>
      <trkpt lat="48.44784" lon="2.69367">
        <ele>92.1</ele>
        <time>2021-07-17T09:34:21Z</time>
      </trkpt>
      <trkpt lat="48.44773" lon="2.69359">
        <ele>93</ele>
        <time>2021-07-17T09:34:44Z</time>
      </trkpt>
      <trkpt lat="48.44773" lon="2.69359">
        <ele>93</ele>
        <time>2021-07-17T09:34:46Z</time>
      </trkpt>
      <trkpt lat="48.44769" lon="2.69372">
        <ele>93.2</ele>
        <time>2021-07-17T09:35:15Z</time>
      </trkpt>
      <trkpt lat="48.44769" lon="2.69372">
        <ele>93.2</ele>
        <time>2021-07-17T09:35:16Z</time>
      </trkpt>
      <trkpt lat="48.44769" lon="2.69361">
        <ele>93.3</ele>
        <time>2021-07-17T09:35:45Z</time>
      </trkpt>
      <trkpt lat="48.44769" lon="2.6936">
        <ele>93.2</ele>
        <time>2021-07-17T09:35:46Z</time>
      </trkpt>
      <trkpt lat="48.44766" lon="2.69363">
        <ele>93.5</ele>
        <time>2021-07-17T09:36:15Z</time>
      </trkpt>
      <trkpt lat="48.44766" lon="2.69363">
        <ele>93.5</ele>
        <time>2021-07-17T09:36:16Z</time>
      </trkpt>
      <trkpt lat="48.44763" lon="2.69364">
        <ele>93.7</ele>
        <time>2021-07-17T09:36:45Z</time>
      </trkpt>
      <trkpt lat="48.44762" lon="2.69364">
        <ele>93.7</ele>
        <time>2021-07-17T09:36:46Z</time>
      </trkpt>
      <trkpt lat="48.44744" lon="2.69372">
        <ele>94.8</ele>
        <time>2021-07-17T09:36:56Z</time>
      </trkpt>
      <trkpt lat="48.44727" lon="2.69386">
        <ele>95.3</ele>
        <time>2021-07-17T09:37:06Z</time>
      </trkpt>
      <trkpt lat="48.4471" lon="2.69401">
        <ele>95.7</ele>
        <time>2021-07-17T09:37:17Z</time>
      </trkpt>
      <trkpt lat="48.44689" lon="2.69394">
        <ele>96.7</ele>
        <time>2021-07-17T09:37:23Z</time>
      </trkpt>
      <trkpt lat="48.44666" lon="2.69378">
        <ele>97.9</ele>
        <time>2021-07-17T09:37:28Z</time>
      </trkpt>
      <trkpt lat="48.44653" lon="2.69357">
        <ele>98</ele>
        <time>2021-07-17T09:37:35Z</time>
      </trkpt>
      <trkpt lat="48.44635" lon="2.69338">
        <ele>97.8</ele>
        <time>2021-07-17T09:37:40Z</time>
      </trkpt>
      <trkpt lat="48.44618" lon="2.6932">
        <ele>97.2</ele>
        <time>2021-07-17T09:37:45Z</time>
      </trkpt>
      <trkpt lat="48.44597" lon="2.69314">
        <ele>96.5</ele>
        <time>2021-07-17T09:37:50Z</time>
      </trkpt>
      <trkpt lat="48.44579" lon="2.69323">
        <ele>96.1</ele>
        <time>2021-07-17T09:37:57Z</time>
      </trkpt>
      <trkpt lat="48.44559" lon="2.69323">
        <ele>96.5</ele>
        <time>2021-07-17T09:38:05Z</time>
      </trkpt>
      <trkpt lat="48.44542" lon="2.69343">
        <ele>97</ele>
        <time>2021-07-17T09:38:14Z</time>
      </trkpt>
      <trkpt lat="48.44533" lon="2.69369">
        <ele>97.3</ele>
        <time>2021-07-17T09:38:20Z</time>
      </trkpt>
      <trkpt lat="48.44518" lon="2.69388">
        <ele>97.9</ele>
        <time>2021-07-17T09:38:28Z</time>
      </trkpt>
      <trkpt lat="48.44507" lon="2.69411">
        <ele>98.6</ele>
        <time>2021-07-17T09:38:36Z</time>
      </trkpt>
      <trkpt lat="48.44497" lon="2.69438">
        <ele>99</ele>
        <time>2021-07-17T09:38:43Z</time>
      </trkpt>
      <trkpt lat="48.44483" lon="2.69459">
        <ele>98.9</ele>
        <time>2021-07-17T09:38:53Z</time>
      </trkpt>
      <trkpt lat="48.44466" lon="2.69466">
        <ele>98.7</ele>
        <time>2021-07-17T09:39:07Z</time>
      </trkpt>
      <trkpt lat="48.44448" lon="2.69474">
        <ele>98.3</ele>
        <time>2021-07-17T09:39:22Z</time>
      </trkpt>
      <trkpt lat="48.4443" lon="2.69471">
        <ele>98.2</ele>
        <time>2021-07-17T09:39:32Z</time>
      </trkpt>
      <trkpt lat="48.44412" lon="2.69458">
        <ele>98.2</ele>
        <time>2021-07-17T09:39:37Z</time>
      </trkpt>
      <trkpt lat="48.44395" lon="2.69439">
        <ele>98</ele>
        <time>2021-07-17T09:39:43Z</time>
      </trkpt>
      <trkpt lat="48.44377" lon="2.69432">
        <ele>97.1</ele>
        <time>2021-07-17T09:39:48Z</time>
      </trkpt>
      <trkpt lat="48.4437" lon="2.69436">
        <ele>96.6</ele>
        <time>2021-07-17T09:40:15Z</time>
      </trkpt>
      <trkpt lat="48.4437" lon="2.69436">
        <ele>96.6</ele>
        <time>2021-07-17T09:40:16Z</time>
      </trkpt>
      <trkpt lat="48.44371" lon="2.69438">
        <ele>96.7</ele>
        <time>2021-07-17T09:40:45Z</time>
      </trkpt>
      <trkpt lat="48.44372" lon="2.69438">
        <ele>96.7</ele>
        <time>2021-07-17T09:40:46Z</time>
      </trkpt>
      <trkpt lat="48.44373" lon="2.6944">
        <ele>96.7</ele>
        <time>2021-07-17T09:41:15Z</time>
      </trkpt>
      <trkpt lat="48.44371" lon="2.69439">
        <ele>96.6</ele>
        <time>2021-07-17T09:41:16Z</time>
      </trkpt>
      <trkpt lat="48.44368" lon="2.6944">
        <ele>96.4</ele>
        <time>2021-07-17T09:41:45Z</time>
      </trkpt>
      <trkpt lat="48.4437" lon="2.69439">
        <ele>96.5</ele>
        <time>2021-07-17T09:42:00Z</time>
      </trkpt>
      <trkpt lat="48.44369" lon="2.69439">
        <ele>96.5</ele>
        <time>2021-07-17T09:42:01Z</time>
      </trkpt>
      <trkpt lat="48.44363" lon="2.69437">
        <ele>96.2</ele>
        <time>2021-07-17T09:42:30Z</time>
      </trkpt>
      <trkpt lat="48.44363" lon="2.69436">
        <ele>96.2</ele>
        <time>2021-07-17T09:42:31Z</time>
      </trkpt>
      <trkpt lat="48.4437" lon="2.69438">
        <ele>96.5</ele>
        <time>2021-07-17T09:43:00Z</time>
      </trkpt>
      <trkpt lat="48.44369" lon="2.6944">
        <ele>96.5</ele>
        <time>2021-07-17T09:43:01Z</time>
      </trkpt>
      <trkpt lat="48.4437" lon="2.69436">
        <ele>96.6</ele>
        <time>2021-07-17T09:43:30Z</time>
      </trkpt>
      <trkpt lat="48.4437" lon="2.69436">
        <ele>96.6</ele>
        <time>2021-07-17T09:43:31Z</time>
      </trkpt>
      <trkpt lat="48.44366" lon="2.6943">
        <ele>96.6</ele>
        <time>2021-07-17T09:44:00Z</time>
      </trkpt>
      <trkpt lat="48.44366" lon="2.69431">
        <ele>96.6</ele>
        <time>2021-07-17T09:44:01Z</time>
      </trkpt>
      <trkpt lat="48.44367" lon="2.69434">
        <ele>96.5</ele>
        <time>2021-07-17T09:44:30Z</time>
      </trkpt>
      <trkpt lat="48.44368" lon="2.69434">
        <ele>96.6</ele>
        <time>2021-07-17T09:44:31Z</time>
      </trkpt>
      <trkpt lat="48.44369" lon="2.69434">
        <ele>96.6</ele>
        <time>2021-07-17T09:45:00Z</time>
      </trkpt>
      <trkpt lat="48.44369" lon="2.69434">
        <ele>96.6</ele>
        <time>2021-07-17T09:45:01Z</time>
      </trkpt>
      <trkpt lat="48.44366" lon="2.69435">
        <ele>96.4</ele>
        <time>2021-07-17T09:45:30Z</time>
      </trkpt>
      <trkpt lat="48.44366" lon="2.69435">
        <ele>96.4</ele>
        <time>2021-07-17T09:45:31Z</time>
      </trkpt>
      <trkpt lat="48.44366" lon="2.69441">
        <ele>96.3</ele>
        <time>2021-07-17T09:46:00Z</time>
      </trkpt>
      <trkpt lat="48.44365" lon="2.69443">
        <ele>96.2</ele>
        <time>2021-07-17T09:46:01Z</time>
      </trkpt>
      <trkpt lat="48.44348" lon="2.69455">
        <ele>94.9</ele>
        <time>2021-07-17T09:46:09Z</time>
      </trkpt>
      <trkpt lat="48.4433" lon="2.69463">
        <ele>93.9</ele>
        <time>2021-07-17T09:46:14Z</time>
      </trkpt>
      <trkpt lat="48.4431" lon="2.69472">
        <ele>94.2</ele>
        <time>2021-07-17T09:46:20Z</time>
      </trkpt>
      <trkpt lat="48.44301" lon="2.69495">
        <ele>94.6</ele>
        <time>2021-07-17T09:46:25Z</time>
      </trkpt>
      <trkpt lat="48.44298" lon="2.69511">
        <ele>94.8</ele>
        <time>2021-07-17T09:46:45Z</time>
      </trkpt>
      <trkpt lat="48.44299" lon="2.6951">
        <ele>94.7</ele>
        <time>2021-07-17T09:46:46Z</time>
      </trkpt>
      <trkpt lat="48.44296" lon="2.69514">
        <ele>94.9</ele>
        <time>2021-07-17T09:47:15Z</time>
      </trkpt>
      <trkpt lat="48.44297" lon="2.69512">
        <ele>94.8</ele>
        <time>2021-07-17T09:47:16Z</time>
      </trkpt>
      <trkpt lat="48.44302" lon="2.69511">
        <ele>94.6</ele>
        <time>2021-07-17T09:47:45Z</time>
      </trkpt>
      <trkpt lat="48.44302" lon="2.6951">
        <ele>94.6</ele>
        <time>2021-07-17T09:47:46Z</time>
      </trkpt>
      <trkpt lat="48.44294" lon="2.69537">
        <ele>95.1</ele>
        <time>2021-07-17T09:48:10Z</time>
      </trkpt>
      <trkpt lat="48.44296" lon="2.69569">
        <ele>95.2</ele>
        <time>2021-07-17T09:48:16Z</time>
      </trkpt>
      <trkpt lat="48.44305" lon="2.69594">
        <ele>95</ele>
        <time>2021-07-17T09:48:22Z</time>
      </trkpt>
      <trkpt lat="48.4432" lon="2.69618">
        <ele>95</ele>
        <time>2021-07-17T09:48:28Z</time>
      </trkpt>
      <trkpt lat="48.44333" lon="2.69648">
        <ele>95.4</ele>
        <time>2021-07-17T09:48:33Z</time>
      </trkpt>
      <trkpt lat="48.44349" lon="2.69669">
        <ele>95.9</ele>
        <time>2021-07-17T09:48:38Z</time>
      </trkpt>
      <trkpt lat="48.4436" lon="2.69699">
        <ele>96.6</ele>
        <time>2021-07-17T09:48:43Z</time>
      </trkpt>
      <trkpt lat="48.44354" lon="2.69729">
        <ele>97.8</ele>
        <time>2021-07-17T09:48:49Z</time>
      </trkpt>
      <trkpt lat="48.44333" lon="2.69737">
        <ele>99.4</ele>
        <time>2021-07-17T09:48:54Z</time>
      </trkpt>
      <trkpt lat="48.44314" lon="2.69744">
        <ele>99.8</ele>
        <time>2021-07-17T09:49:09Z</time>
      </trkpt>
      <trkpt lat="48.44305" lon="2.69771">
        <ele>99.3</ele>
        <time>2021-07-17T09:49:16Z</time>
      </trkpt>
      <trkpt lat="48.44297" lon="2.69767">
        <ele>99.5</ele>
        <time>2021-07-17T09:49:45Z</time>
      </trkpt>
      <trkpt lat="48.44299" lon="2.69769">
        <ele>99.4</ele>
        <time>2021-07-17T09:49:46Z</time>
      </trkpt>
      <trkpt lat="48.44294" lon="2.69779">
        <ele>99.1</ele>
        <time>2021-07-17T09:50:15Z</time>
      </trkpt>
      <trkpt lat="48.44293" lon="2.69778">
        <ele>99.2</ele>
        <time>2021-07-17T09:50:16Z</time>
      </trkpt>
      <trkpt lat="48.44296" lon="2.69784">
        <ele>99</ele>
        <time>2021-07-17T09:50:45Z</time>
      </trkpt>
      <trkpt lat="48.44294" lon="2.69783">
        <ele>99</ele>
        <time>2021-07-17T09:50:46Z</time>
      </trkpt>
      <trkpt lat="48.44297" lon="2.69787">
        <ele>98.8</ele>
        <time>2021-07-17T09:51:15Z</time>
      </trkpt>
      <trkpt lat="48.44297" lon="2.69776">
        <ele>99.2</ele>
        <time>2021-07-17T09:51:23Z</time>
      </trkpt>
      <trkpt lat="48.44296" lon="2.69796">
        <ele>98.6</ele>
        <time>2021-07-17T09:51:45Z</time>
      </trkpt>
      <trkpt lat="48.44291" lon="2.69788">
        <ele>98.9</ele>
        <time>2021-07-17T09:51:56Z</time>
      </trkpt>
      <trkpt lat="48.44306" lon="2.69804">
        <ele>98.3</ele>
        <time>2021-07-17T09:52:15Z</time>
      </trkpt>
      <trkpt lat="48.443" lon="2.6983">
        <ele>97.5</ele>
        <time>2021-07-17T09:52:27Z</time>
      </trkpt>
      <trkpt lat="48.44305" lon="2.69858">
        <ele>97.3</ele>
        <time>2021-07-17T09:52:35Z</time>
      </trkpt>
      <trkpt lat="48.44316" lon="2.69883">
        <ele>97</ele>
        <time>2021-07-17T09:52:42Z</time>
      </trkpt>
      <trkpt lat="48.44329" lon="2.69902">
        <ele>96.4</ele>
        <time>2021-07-17T09:52:48Z</time>
      </trkpt>
      <trkpt lat="48.44338" lon="2.69932">
        <ele>95.6</ele>
        <time>2021-07-17T09:52:54Z</time>
      </trkpt>
      <trkpt lat="48.44353" lon="2.6996">
        <ele>94.7</ele>
        <time>2021-07-17T09:52:59Z</time>
      </trkpt>
      <trkpt lat="48.44364" lon="2.69988">
        <ele>94</ele>
        <time>2021-07-17T09:53:04Z</time>
      </trkpt>
      <trkpt lat="48.44367" lon="2.70017">
        <ele>93.8</ele>
        <time>2021-07-17T09:53:09Z</time>
      </trkpt>
      <trkpt lat="48.44367" lon="2.70046">
        <ele>93.8</ele>
        <time>2021-07-17T09:53:16Z</time>
      </trkpt>
      <trkpt lat="48.44372" lon="2.70075">
        <ele>93.6</ele>
        <time>2021-07-17T09:53:21Z</time>
      </trkpt>
      <trkpt lat="48.44373" lon="2.70106">
        <ele>93.6</ele>
        <time>2021-07-17T09:53:27Z</time>
      </trkpt>
      <trkpt lat="48.4437" lon="2.70134">
        <ele>93.7</ele>
        <time>2021-07-17T09:53:32Z</time>
      </trkpt>
      <trkpt lat="48.44366" lon="2.70162">
        <ele>93.8</ele>
        <time>2021-07-17T09:53:37Z</time>
      </trkpt>
      <trkpt lat="48.44363" lon="2.7019">
        <ele>93.9</ele>
        <time>2021-07-17T09:53:44Z</time>
      </trkpt>
      <trkpt lat="48.4435" lon="2.70211">
        <ele>94.4</ele>
        <time>2021-07-17T09:53:50Z</time>
      </trkpt>
      <trkpt lat="48.44334" lon="2.70239">
        <ele>95</ele>
        <time>2021-07-17T09:53:59Z</time>
      </trkpt>
      <trkpt lat="48.44321" lon="2.70258">
        <ele>94.9</ele>
        <time>2021-07-17T09:54:05Z</time>
      </trkpt>
      <trkpt lat="48.4432" lon="2.70286">
        <ele>95.2</ele>
        <time>2021-07-17T09:54:11Z</time>
      </trkpt>
      <trkpt lat="48.44327" lon="2.70317">
        <ele>95.7</ele>
        <time>2021-07-17T09:54:17Z</time>
      </trkpt>
      <trkpt lat="48.4434" lon="2.7035">
        <ele>95.4</ele>
        <time>2021-07-17T09:54:22Z</time>
      </trkpt>
      <trkpt lat="48.4435" lon="2.70382">
        <ele>94.4</ele>
        <time>2021-07-17T09:54:27Z</time>
      </trkpt>
      <trkpt lat="48.44357" lon="2.70413">
        <ele>93.5</ele>
        <time>2021-07-17T09:54:32Z</time>
      </trkpt>
      <trkpt lat="48.44365" lon="2.70439">
        <ele>92.8</ele>
        <time>2021-07-17T09:54:37Z</time>
      </trkpt>
      <trkpt lat="48.44379" lon="2.7046">
        <ele>92.2</ele>
        <time>2021-07-17T09:54:43Z</time>
      </trkpt>
      <trkpt lat="48.44395" lon="2.70474">
        <ele>91.7</ele>
        <time>2021-07-17T09:54:48Z</time>
      </trkpt>
      <trkpt lat="48.44413" lon="2.70496">
        <ele>91.1</ele>
        <time>2021-07-17T09:54:53Z</time>
      </trkpt>
      <trkpt lat="48.44434" lon="2.70517">
        <ele>90.4</ele>
        <time>2021-07-17T09:54:58Z</time>
      </trkpt>
      <trkpt lat="48.44449" lon="2.70538">
        <ele>89.9</ele>
        <time>2021-07-17T09:55:03Z</time>
      </trkpt>
      <trkpt lat="48.44459" lon="2.70562">
        <ele>89.4</ele>
        <time>2021-07-17T09:55:08Z</time>
      </trkpt>
      <trkpt lat="48.44469" lon="2.70587">
        <ele>89</ele>
        <time>2021-07-17T09:55:16Z</time>
      </trkpt>
      <trkpt lat="48.44479" lon="2.70614">
        <ele>89.3</ele>
        <time>2021-07-17T09:55:22Z</time>
      </trkpt>
      <trkpt lat="48.4449" lon="2.70639">
        <ele>89.6</ele>
        <time>2021-07-17T09:55:31Z</time>
      </trkpt>
      <trkpt lat="48.4451" lon="2.70638">
        <ele>89.8</ele>
        <time>2021-07-17T09:55:38Z</time>
      </trkpt>
      <trkpt lat="48.44529" lon="2.70655">
        <ele>90</ele>
        <time>2021-07-17T09:55:45Z</time>
      </trkpt>
      <trkpt lat="48.44544" lon="2.7067">
        <ele>90</ele>
        <time>2021-07-17T09:55:51Z</time>
      </trkpt>
      <trkpt lat="48.44564" lon="2.70677">
        <ele>90</ele>
        <time>2021-07-17T09:55:57Z</time>
      </trkpt>
      <trkpt lat="48.44583" lon="2.7068">
        <ele>90</ele>
        <time>2021-07-17T09:56:03Z</time>
      </trkpt>
      <trkpt lat="48.44603" lon="2.7069">
        <ele>88.9</ele>
        <time>2021-07-17T09:56:10Z</time>
      </trkpt>
      <trkpt lat="48.44621" lon="2.70691">
        <ele>87.9</ele>
        <time>2021-07-17T09:56:18Z</time>
      </trkpt>
      <trkpt lat="48.44628" lon="2.70716">
        <ele>87.6</ele>
        <time>2021-07-17T09:56:29Z</time>
      </trkpt>
      <trkpt lat="48.44635" lon="2.70741">
        <ele>87.5</ele>
        <time>2021-07-17T09:56:43Z</time>
      </trkpt>
      <trkpt lat="48.44643" lon="2.70769">
        <ele>87.8</ele>
        <time>2021-07-17T09:56:50Z</time>
      </trkpt>
      <trkpt lat="48.44652" lon="2.70794">
        <ele>88.4</ele>
        <time>2021-07-17T09:56:56Z</time>
      </trkpt>
      <trkpt lat="48.44662" lon="2.70821">
        <ele>89.4</ele>
        <time>2021-07-17T09:57:01Z</time>
      </trkpt>
      <trkpt lat="48.4467" lon="2.70847">
        <ele>90.2</ele>
        <time>2021-07-17T09:57:08Z</time>
      </trkpt>
      <trkpt lat="48.44673" lon="2.70877">
        <ele>90.8</ele>
        <time>2021-07-17T09:57:16Z</time>
      </trkpt>
      <trkpt lat="48.44667" lon="2.70904">
        <ele>91.7</ele>
        <time>2021-07-17T09:57:22Z</time>
      </trkpt>
      <trkpt lat="48.44663" lon="2.70933">
        <ele>92.3</ele>
        <time>2021-07-17T09:57:28Z</time>
      </trkpt>
      <trkpt lat="48.44651" lon="2.70955">
        <ele>92.6</ele>
        <time>2021-07-17T09:57:34Z</time>
      </trkpt>
      <trkpt lat="48.44641" lon="2.7098">
        <ele>92.7</ele>
        <time>2021-07-17T09:57:40Z</time>
      </trkpt>
      <trkpt lat="48.44636" lon="2.71006">
        <ele>93.1</ele>
        <time>2021-07-17T09:57:48Z</time>
      </trkpt>
      <trkpt lat="48.44634" lon="2.71033">
        <ele>94.3</ele>
        <time>2021-07-17T09:57:56Z</time>
      </trkpt>
      <trkpt lat="48.44637" lon="2.71061">
        <ele>95.6</ele>
        <time>2021-07-17T09:58:02Z</time>
      </trkpt>
      <trkpt lat="48.4464" lon="2.71089">
        <ele>96.8</ele>
        <time>2021-07-17T09:58:13Z</time>
      </trkpt>
      <trkpt lat="48.4464" lon="2.71116">
        <ele>97.1</ele>
        <time>2021-07-17T09:58:22Z</time>
      </trkpt>
      <trkpt lat="48.44619" lon="2.71128">
        <ele>96.3</ele>
        <time>2021-07-17T09:58:28Z</time>
      </trkpt>
      <trkpt lat="48.44606" lon="2.71147">
        <ele>95.8</ele>
        <time>2021-07-17T09:58:34Z</time>
      </trkpt>
      <trkpt lat="48.44609" lon="2.71173">
        <ele>96.2</ele>
        <time>2021-07-17T09:58:42Z</time>
      </trkpt>
      <trkpt lat="48.44624" lon="2.71195">
        <ele>96.8</ele>
        <time>2021-07-17T09:58:47Z</time>
      </trkpt>
      <trkpt lat="48.44641" lon="2.7121">
        <ele>97.6</ele>
        <time>2021-07-17T09:58:53Z</time>
      </trkpt>
      <trkpt lat="48.44659" lon="2.71216">
        <ele>98.6</ele>
        <time>2021-07-17T09:59:00Z</time>
      </trkpt>
      <trkpt lat="48.44678" lon="2.71222">
        <ele>98.7</ele>
        <time>2021-07-17T09:59:07Z</time>
      </trkpt>
      <trkpt lat="48.44696" lon="2.71223">
        <ele>98.2</ele>
        <time>2021-07-17T09:59:14Z</time>
      </trkpt>
      <trkpt lat="48.44714" lon="2.71234">
        <ele>97.7</ele>
        <time>2021-07-17T09:59:23Z</time>
      </trkpt>
      <trkpt lat="48.44732" lon="2.71245">
        <ele>97.4</ele>
        <time>2021-07-17T09:59:29Z</time>
      </trkpt>
      <trkpt lat="48.4475" lon="2.71252">
        <ele>97</ele>
        <time>2021-07-17T09:59:36Z</time>
      </trkpt>
      <trkpt lat="48.44769" lon="2.7125">
        <ele>96.8</ele>
        <time>2021-07-17T09:59:41Z</time>
      </trkpt>
      <trkpt lat="48.44794" lon="2.71242">
        <ele>96.2</ele>
        <time>2021-07-17T09:59:46Z</time>
      </trkpt>
      <trkpt lat="48.44812" lon="2.71236">
        <ele>95.7</ele>
        <time>2021-07-17T09:59:55Z</time>
      </trkpt>
      <trkpt lat="48.44829" lon="2.71224">
        <ele>94.9</ele>
        <time>2021-07-17T10:00:02Z</time>
      </trkpt>
      <trkpt lat="48.44845" lon="2.71211">
        <ele>94.2</ele>
        <time>2021-07-17T10:00:10Z</time>
      </trkpt>
      <trkpt lat="48.4486" lon="2.71231">
        <ele>95.3</ele>
        <time>2021-07-17T10:00:28Z</time>
      </trkpt>
      <trkpt lat="48.44869" lon="2.71248">
        <ele>96.3</ele>
        <time>2021-07-17T10:00:45Z</time>
      </trkpt>
      <trkpt lat="48.44867" lon="2.71252">
        <ele>96.4</ele>
        <time>2021-07-17T10:00:54Z</time>
      </trkpt>
      <trkpt lat="48.44878" lon="2.71284">
        <ele>96.7</ele>
        <time>2021-07-17T10:00:59Z</time>
      </trkpt>
      <trkpt lat="48.44867" lon="2.71283">
        <ele>96.6</ele>
        <time>2021-07-17T10:01:15Z</time>
      </trkpt>
      <trkpt lat="48.44869" lon="2.71277">
        <ele>96.6</ele>
        <time>2021-07-17T10:01:23Z</time>
      </trkpt>
      <trkpt lat="48.44868" lon="2.71276">
        <ele>96.6</ele>
        <time>2021-07-17T10:01:45Z</time>
      </trkpt>
      <trkpt lat="48.44868" lon="2.71286">
        <ele>96.7</ele>
        <time>2021-07-17T10:01:50Z</time>
      </trkpt>
      <trkpt lat="48.44853" lon="2.71261">
        <ele>96.3</ele>
        <time>2021-07-17T10:02:02Z</time>
      </trkpt>
      <trkpt lat="48.44858" lon="2.71264">
        <ele>96.4</ele>
        <time>2021-07-17T10:02:30Z</time>
      </trkpt>
      <trkpt lat="48.44863" lon="2.71261">
        <ele>96.4</ele>
        <time>2021-07-17T10:02:34Z</time>
      </trkpt>
      <trkpt lat="48.44869" lon="2.71277">
        <ele>96.6</ele>
        <time>2021-07-17T10:03:00Z</time>
      </trkpt>
      <trkpt lat="48.44854" lon="2.71259">
        <ele>96.3</ele>
        <time>2021-07-17T10:03:05Z</time>
      </trkpt>
      <trkpt lat="48.44889" lon="2.71293">
        <ele>96.8</ele>
        <time>2021-07-17T10:03:12Z</time>
      </trkpt>
      <trkpt lat="48.44881" lon="2.71267">
        <ele>96.7</ele>
        <time>2021-07-17T10:03:24Z</time>
      </trkpt>
      <trkpt lat="48.44872" lon="2.71279">
        <ele>96.6</ele>
        <time>2021-07-17T10:03:45Z</time>
      </trkpt>
      <trkpt lat="48.44846" lon="2.71322">
        <ele>96.9</ele>
        <time>2021-07-17T10:03:58Z</time>
      </trkpt>
      <trkpt lat="48.44838" lon="2.71357">
        <ele>97.6</ele>
        <time>2021-07-17T10:04:04Z</time>
      </trkpt>
      <trkpt lat="48.44831" lon="2.71392">
        <ele>98.4</ele>
        <time>2021-07-17T10:04:11Z</time>
      </trkpt>
      <trkpt lat="48.44828" lon="2.71421">
        <ele>98.9</ele>
        <time>2021-07-17T10:04:19Z</time>
      </trkpt>
      <trkpt lat="48.44821" lon="2.71456">
        <ele>98.8</ele>
        <time>2021-07-17T10:04:24Z</time>
      </trkpt>
      <trkpt lat="48.44813" lon="2.71487">
        <ele>98.9</ele>
        <time>2021-07-17T10:04:30Z</time>
      </trkpt>
      <trkpt lat="48.44807" lon="2.71515">
        <ele>98.9</ele>
        <time>2021-07-17T10:04:35Z</time>
      </trkpt>
      <trkpt lat="48.44801" lon="2.71545">
        <ele>98.8</ele>
        <time>2021-07-17T10:04:41Z</time>
      </trkpt>
      <trkpt lat="48.44791" lon="2.71572">
        <ele>98.6</ele>
        <time>2021-07-17T10:04:48Z</time>
      </trkpt>
      <trkpt lat="48.44781" lon="2.71594">
        <ele>98.3</ele>
        <time>2021-07-17T10:04:53Z</time>
      </trkpt>
      <trkpt lat="48.4477" lon="2.71617">
        <ele>98.1</ele>
        <time>2021-07-17T10:04:58Z</time>
      </trkpt>
      <trkpt lat="48.44756" lon="2.71638">
        <ele>98</ele>
        <time>2021-07-17T10:05:04Z</time>
      </trkpt>
      <trkpt lat="48.44748" lon="2.71663">
        <ele>98</ele>
        <time>2021-07-17T10:05:09Z</time>
      </trkpt>
      <trkpt lat="48.44753" lon="2.71691">
        <ele>98.3</ele>
        <time>2021-07-17T10:05:15Z</time>
      </trkpt>
      <trkpt lat="48.44758" lon="2.71718">
        <ele>98.6</ele>
        <time>2021-07-17T10:05:24Z</time>
      </trkpt>
      <trkpt lat="48.44752" lon="2.71745">
        <ele>98.9</ele>
        <time>2021-07-17T10:05:35Z</time>
      </trkpt>
      <trkpt lat="48.44752" lon="2.71775">
        <ele>99.3</ele>
        <time>2021-07-17T10:05:40Z</time>
      </trkpt>
      <trkpt lat="48.44754" lon="2.71805">
        <ele>99.6</ele>
        <time>2021-07-17T10:05:45Z</time>
      </trkpt>
      <trkpt lat="48.44771" lon="2.71822">
        <ele>99.6</ele>
        <time>2021-07-17T10:05:53Z</time>
      </trkpt>
      <trkpt lat="48.44777" lon="2.71852">
        <ele>99.7</ele>
        <time>2021-07-17T10:06:00Z</time>
      </trkpt>
      <trkpt lat="48.44776" lon="2.71879">
        <ele>99.9</ele>
        <time>2021-07-17T10:06:09Z</time>
      </trkpt>
      <trkpt lat="48.44769" lon="2.71904">
        <ele>100.3</ele>
        <time>2021-07-17T10:06:17Z</time>
      </trkpt>
      <trkpt lat="48.44752" lon="2.71923">
        <ele>100.9</ele>
        <time>2021-07-17T10:06:27Z</time>
      </trkpt>
      <trkpt lat="48.44735" lon="2.71912">
        <ele>101</ele>
        <time>2021-07-17T10:06:32Z</time>
      </trkpt>
      <trkpt lat="48.44719" lon="2.71891">
        <ele>100.9</ele>
        <time>2021-07-17T10:06:37Z</time>
      </trkpt>
      <trkpt lat="48.44701" lon="2.71887">
        <ele>101.1</ele>
        <time>2021-07-17T10:06:42Z</time>
      </trkpt>
      <trkpt lat="48.44693" lon="2.71912">
        <ele>101</ele>
        <time>2021-07-17T10:06:50Z</time>
      </trkpt>
      <trkpt lat="48.44701" lon="2.71941">
        <ele>100.8</ele>
        <time>2021-07-17T10:06:56Z</time>
      </trkpt>
      <trkpt lat="48.44707" lon="2.71971">
        <ele>100.7</ele>
        <time>2021-07-17T10:07:02Z</time>
      </trkpt>
      <trkpt lat="48.44705" lon="2.71996">
        <ele>100.5</ele>
        <time>2021-07-17T10:07:30Z</time>
      </trkpt>
      <trkpt lat="48.44735" lon="2.72011">
        <ele>100.7</ele>
        <time>2021-07-17T10:07:45Z</time>
      </trkpt>
      <trkpt lat="48.44717" lon="2.7202">
        <ele>100.5</ele>
        <time>2021-07-17T10:07:50Z</time>
      </trkpt>
      <trkpt lat="48.44703" lon="2.71987">
        <ele>100.5</ele>
        <time>2021-07-17T10:07:55Z</time>
      </trkpt>
      <trkpt lat="48.447" lon="2.72012">
        <ele>100.3</ele>
        <time>2021-07-17T10:08:15Z</time>
      </trkpt>
      <trkpt lat="48.44713" lon="2.72006">
        <ele>100.5</ele>
        <time>2021-07-17T10:08:32Z</time>
      </trkpt>
      <trkpt lat="48.44713" lon="2.72006">
        <ele>100.5</ele>
        <time>2021-07-17T10:09:00Z</time>
      </trkpt>
      <trkpt lat="48.44658" lon="2.72003">
        <ele>100.1</ele>
        <time>2021-07-17T10:09:07Z</time>
      </trkpt>
      <trkpt lat="48.44706" lon="2.72005">
        <ele>100.4</ele>
        <time>2021-07-17T10:09:12Z</time>
      </trkpt>
      <trkpt lat="48.44688" lon="2.71971">
        <ele>100.5</ele>
        <time>2021-07-17T10:09:20Z</time>
      </trkpt>
      <trkpt lat="48.44696" lon="2.71981">
        <ele>100.5</ele>
        <time>2021-07-17T10:09:45Z</time>
      </trkpt>
      <trkpt lat="48.44696" lon="2.71984">
        <ele>100.5</ele>
        <time>2021-07-17T10:09:57Z</time>
      </trkpt>
      <trkpt lat="48.44717" lon="2.71981">
        <ele>100.7</ele>
        <time>2021-07-17T10:10:02Z</time>
      </trkpt>
      <trkpt lat="48.4471" lon="2.71992">
        <ele>100.6</ele>
        <time>2021-07-17T10:10:30Z</time>
      </trkpt>
      <trkpt lat="48.44724" lon="2.71953">
        <ele>100.9</ele>
        <time>2021-07-17T10:10:38Z</time>
      </trkpt>
      <trkpt lat="48.44709" lon="2.72002">
        <ele>100.5</ele>
        <time>2021-07-17T10:10:44Z</time>
      </trkpt>
      <trkpt lat="48.44697" lon="2.7199">
        <ele>100.4</ele>
        <time>2021-07-17T10:11:00Z</time>
      </trkpt>
      <trkpt lat="48.4472" lon="2.72001">
        <ele>100.6</ele>
        <time>2021-07-17T10:11:12Z</time>
      </trkpt>
      <trkpt lat="48.447" lon="2.72009">
        <ele>100.4</ele>
        <time>2021-07-17T10:11:27Z</time>
      </trkpt>
      <trkpt lat="48.447" lon="2.72008">
        <ele>100.4</ele>
        <time>2021-07-17T10:11:45Z</time>
      </trkpt>
      <trkpt lat="48.4474" lon="2.72003">
        <ele>100.9</ele>
        <time>2021-07-17T10:11:55Z</time>
      </trkpt>
      <trkpt lat="48.44718" lon="2.72007">
        <ele>100.6</ele>
        <time>2021-07-17T10:12:00Z</time>
      </trkpt>
      <trkpt lat="48.44704" lon="2.72012">
        <ele>100.4</ele>
        <time>2021-07-17T10:12:15Z</time>
      </trkpt>
      <trkpt lat="48.44701" lon="2.72">
        <ele>100.4</ele>
        <time>2021-07-17T10:12:22Z</time>
      </trkpt>
      <trkpt lat="48.44712" lon="2.72017">
        <ele>100.4</ele>
        <time>2021-07-17T10:12:45Z</time>
      </trkpt>
      <trkpt lat="48.44713" lon="2.72006">
        <ele>100.5</ele>
        <time>2021-07-17T10:12:59Z</time>
      </trkpt>
      <trkpt lat="48.44701" lon="2.71998">
        <ele>100.4</ele>
        <time>2021-07-17T10:13:15Z</time>
      </trkpt>
      <trkpt lat="48.44701" lon="2.71999">
        <ele>100.4</ele>
        <time>2021-07-17T10:13:17Z</time>
      </trkpt>
      <trkpt lat="48.447" lon="2.72003">
        <ele>100.4</ele>
        <time>2021-07-17T10:13:46Z</time>
      </trkpt>
      <trkpt lat="48.447" lon="2.72005">
        <ele>100.4</ele>
        <time>2021-07-17T10:13:47Z</time>
      </trkpt>
      <trkpt lat="48.44698" lon="2.72036">
        <ele>100.2</ele>
        <time>2021-07-17T10:13:56Z</time>
      </trkpt>
      <trkpt lat="48.447" lon="2.72067">
        <ele>100.1</ele>
        <time>2021-07-17T10:14:05Z</time>
      </trkpt>
      <trkpt lat="48.44701" lon="2.72095">
        <ele>99.8</ele>
        <time>2021-07-17T10:14:10Z</time>
      </trkpt>
      <trkpt lat="48.44716" lon="2.72119">
        <ele>99.4</ele>
        <time>2021-07-17T10:14:15Z</time>
      </trkpt>
      <trkpt lat="48.44728" lon="2.72142">
        <ele>99.1</ele>
        <time>2021-07-17T10:14:20Z</time>
      </trkpt>
      <trkpt lat="48.44745" lon="2.72156">
        <ele>99.1</ele>
        <time>2021-07-17T10:14:25Z</time>
      </trkpt>
      <trkpt lat="48.44764" lon="2.72165">
        <ele>99.2</ele>
        <time>2021-07-17T10:14:30Z</time>
      </trkpt>
      <trkpt lat="48.44781" lon="2.7218">
        <ele>99.2</ele>
        <time>2021-07-17T10:14:35Z</time>
      </trkpt>
      <trkpt lat="48.44789" lon="2.72213">
        <ele>98.6</ele>
        <time>2021-07-17T10:14:40Z</time>
      </trkpt>
      <trkpt lat="48.44795" lon="2.72241">
        <ele>98.2</ele>
        <time>2021-07-17T10:14:46Z</time>
      </trkpt>
      <trkpt lat="48.44804" lon="2.72268">
        <ele>98</ele>
        <time>2021-07-17T10:14:51Z</time>
      </trkpt>
      <trkpt lat="48.44817" lon="2.7229">
        <ele>98</ele>
        <time>2021-07-17T10:14:56Z</time>
      </trkpt>
      <trkpt lat="48.44826" lon="2.72316">
        <ele>98</ele>
        <time>2021-07-17T10:15:01Z</time>
      </trkpt>
      <trkpt lat="48.44838" lon="2.72348">
        <ele>98.4</ele>
        <time>2021-07-17T10:15:06Z</time>
      </trkpt>
      <trkpt lat="48.44852" lon="2.72377">
        <ele>99</ele>
        <time>2021-07-17T10:15:11Z</time>
      </trkpt>
      <trkpt lat="48.44851" lon="2.72415">
        <ele>99.7</ele>
        <time>2021-07-17T10:15:16Z</time>
      </trkpt>
      <trkpt lat="48.4485" lon="2.72445">
        <ele>100.1</ele>
        <time>2021-07-17T10:15:22Z</time>
      </trkpt>
      <trkpt lat="48.4485" lon="2.72474">
        <ele>100.5</ele>
        <time>2021-07-17T10:15:27Z</time>
      </trkpt>
      <trkpt lat="48.44856" lon="2.725">
        <ele>100.7</ele>
        <time>2021-07-17T10:15:32Z</time>
      </trkpt>
      <trkpt lat="48.44865" lon="2.72526">
        <ele>100.5</ele>
        <time>2021-07-17T10:15:37Z</time>
      </trkpt>
      <trkpt lat="48.44867" lon="2.72557">
        <ele>100.5</ele>
        <time>2021-07-17T10:15:44Z</time>
      </trkpt>
      <trkpt lat="48.4486" lon="2.72584">
        <ele>100.3</ele>
        <time>2021-07-17T10:15:50Z</time>
      </trkpt>
      <trkpt lat="48.4485" lon="2.72608">
        <ele>99.6</ele>
        <time>2021-07-17T10:15:58Z</time>
      </trkpt>
      <trkpt lat="48.44853" lon="2.7262">
        <ele>99.4</ele>
        <time>2021-07-17T10:16:16Z</time>
      </trkpt>
      <trkpt lat="48.44853" lon="2.72619">
        <ele>99.4</ele>
        <time>2021-07-17T10:16:17Z</time>
      </trkpt>
      <trkpt lat="48.44852" lon="2.7262">
        <ele>99.3</ele>
        <time>2021-07-17T10:16:46Z</time>
      </trkpt>
      <trkpt lat="48.44852" lon="2.72621">
        <ele>99.3</ele>
        <time>2021-07-17T10:16:47Z</time>
      </trkpt>
      <trkpt lat="48.44852" lon="2.72653">
        <ele>98.6</ele>
        <time>2021-07-17T10:17:15Z</time>
      </trkpt>
      <trkpt lat="48.44855" lon="2.72684">
        <ele>97.5</ele>
        <time>2021-07-17T10:17:21Z</time>
      </trkpt>
      <trkpt lat="48.44864" lon="2.72711">
        <ele>96.4</ele>
        <time>2021-07-17T10:17:26Z</time>
      </trkpt>
      <trkpt lat="48.4487" lon="2.72743">
        <ele>94.9</ele>
        <time>2021-07-17T10:17:31Z</time>
      </trkpt>
      <trkpt lat="48.4488" lon="2.7277">
        <ele>94</ele>
        <time>2021-07-17T10:17:36Z</time>
      </trkpt>
      <trkpt lat="48.44865" lon="2.72796">
        <ele>93.3</ele>
        <time>2021-07-17T10:17:41Z</time>
      </trkpt>
      <trkpt lat="48.44865" lon="2.72829">
        <ele>92.3</ele>
        <time>2021-07-17T10:17:46Z</time>
      </trkpt>
      <trkpt lat="48.4487" lon="2.72858">
        <ele>93.3</ele>
        <time>2021-07-17T10:17:53Z</time>
      </trkpt>
      <trkpt lat="48.44852" lon="2.72877">
        <ele>93.4</ele>
        <time>2021-07-17T10:17:58Z</time>
      </trkpt>
      <trkpt lat="48.44836" lon="2.72895">
        <ele>93.3</ele>
        <time>2021-07-17T10:18:05Z</time>
      </trkpt>
      <trkpt lat="48.44822" lon="2.72916">
        <ele>93.8</ele>
        <time>2021-07-17T10:18:12Z</time>
      </trkpt>
      <trkpt lat="48.44806" lon="2.72934">
        <ele>94.7</ele>
        <time>2021-07-17T10:18:18Z</time>
      </trkpt>
      <trkpt lat="48.4479" lon="2.72953">
        <ele>95.2</ele>
        <time>2021-07-17T10:18:24Z</time>
      </trkpt>
      <trkpt lat="48.44776" lon="2.72971">
        <ele>95.4</ele>
        <time>2021-07-17T10:18:34Z</time>
      </trkpt>
      <trkpt lat="48.44772" lon="2.72979">
        <ele>95.6</ele>
        <time>2021-07-17T10:19:01Z</time>
      </trkpt>
      <trkpt lat="48.44772" lon="2.72979">
        <ele>95.6</ele>
        <time>2021-07-17T10:19:02Z</time>
      </trkpt>
      <trkpt lat="48.44772" lon="2.72981">
        <ele>95.6</ele>
        <time>2021-07-17T10:19:31Z</time>
      </trkpt>
      <trkpt lat="48.44772" lon="2.72981">
        <ele>95.6</ele>
        <time>2021-07-17T10:19:32Z</time>
      </trkpt>
      <trkpt lat="48.44772" lon="2.72983">
        <ele>95.7</ele>
        <time>2021-07-17T10:20:01Z</time>
      </trkpt>
      <trkpt lat="48.44772" lon="2.72983">
        <ele>95.7</ele>
        <time>2021-07-17T10:20:02Z</time>
      </trkpt>
      <trkpt lat="48.44774" lon="2.72974">
        <ele>95.5</ele>
        <time>2021-07-17T10:20:31Z</time>
      </trkpt>
      <trkpt lat="48.44774" lon="2.72974">
        <ele>95.5</ele>
        <time>2021-07-17T10:20:32Z</time>
      </trkpt>
      <trkpt lat="48.44782" lon="2.73004">
        <ele>97.1</ele>
        <time>2021-07-17T10:20:51Z</time>
      </trkpt>
      <trkpt lat="48.44799" lon="2.73015">
        <ele>98.4</ele>
        <time>2021-07-17T10:20:58Z</time>
      </trkpt>
      <trkpt lat="48.44817" lon="2.73013">
        <ele>99.4</ele>
        <time>2021-07-17T10:21:03Z</time>
      </trkpt>
      <trkpt lat="48.44837" lon="2.73012">
        <ele>100.2</ele>
        <time>2021-07-17T10:21:09Z</time>
      </trkpt>
      <trkpt lat="48.44857" lon="2.73011">
        <ele>99.9</ele>
        <time>2021-07-17T10:21:14Z</time>
      </trkpt>
      <trkpt lat="48.44877" lon="2.73016">
        <ele>99.7</ele>
        <time>2021-07-17T10:21:19Z</time>
      </trkpt>
      <trkpt lat="48.44894" lon="2.73031">
        <ele>99.5</ele>
        <time>2021-07-17T10:21:25Z</time>
      </trkpt>
      <trkpt lat="48.44912" lon="2.73043">
        <ele>99.1</ele>
        <time>2021-07-17T10:21:31Z</time>
      </trkpt>
      <trkpt lat="48.4493" lon="2.73059">
        <ele>99.1</ele>
        <time>2021-07-17T10:21:36Z</time>
      </trkpt>
      <trkpt lat="48.44945" lon="2.73075">
        <ele>99.3</ele>
        <time>2021-07-17T10:21:41Z</time>
      </trkpt>
      <trkpt lat="48.44958" lon="2.73096">
        <ele>99.4</ele>
        <time>2021-07-17T10:21:47Z</time>
      </trkpt>
      <trkpt lat="48.44965" lon="2.73121">
        <ele>99.3</ele>
        <time>2021-07-17T10:21:52Z</time>
      </trkpt>
      <trkpt lat="48.44971" lon="2.73149">
        <ele>99.1</ele>
        <time>2021-07-17T10:21:57Z</time>
      </trkpt>
      <trkpt lat="48.44968" lon="2.73182">
        <ele>99.1</ele>
        <time>2021-07-17T10:22:02Z</time>
      </trkpt>
      <trkpt lat="48.4497" lon="2.7321">
        <ele>99.2</ele>
        <time>2021-07-17T10:22:07Z</time>
      </trkpt>
      <trkpt lat="48.44975" lon="2.73242">
        <ele>99.3</ele>
        <time>2021-07-17T10:22:12Z</time>
      </trkpt>
      <trkpt lat="48.44981" lon="2.7327">
        <ele>99.7</ele>
        <time>2021-07-17T10:22:17Z</time>
      </trkpt>
      <trkpt lat="48.44992" lon="2.73293">
        <ele>100.1</ele>
        <time>2021-07-17T10:22:22Z</time>
      </trkpt>
      <trkpt lat="48.45008" lon="2.73306">
        <ele>100.4</ele>
        <time>2021-07-17T10:22:34Z</time>
      </trkpt>
      <trkpt lat="48.4502" lon="2.73283">
        <ele>100</ele>
        <time>2021-07-17T10:22:47Z</time>
      </trkpt>
      <trkpt lat="48.45025" lon="2.73255">
        <ele>99.4</ele>
        <time>2021-07-17T10:23:13Z</time>
      </trkpt>
      <trkpt lat="48.45023" lon="2.73253">
        <ele>99.3</ele>
        <time>2021-07-17T10:23:31Z</time>
      </trkpt>
      <trkpt lat="48.45024" lon="2.73258">
        <ele>99.5</ele>
        <time>2021-07-17T10:23:32Z</time>
      </trkpt>
      <trkpt lat="48.4502" lon="2.73265">
        <ele>99.6</ele>
        <time>2021-07-17T10:24:01Z</time>
      </trkpt>
      <trkpt lat="48.4502" lon="2.73265">
        <ele>99.6</ele>
        <time>2021-07-17T10:24:02Z</time>
      </trkpt>
      <trkpt lat="48.45007" lon="2.73286">
        <ele>100</ele>
        <time>2021-07-17T10:24:25Z</time>
      </trkpt>
      <trkpt lat="48.45007" lon="2.733">
        <ele>100.3</ele>
        <time>2021-07-17T10:24:46Z</time>
      </trkpt>
      <trkpt lat="48.45007" lon="2.73299">
        <ele>100.3</ele>
        <time>2021-07-17T10:24:47Z</time>
      </trkpt>
      <trkpt lat="48.45004" lon="2.73302">
        <ele>100.3</ele>
        <time>2021-07-17T10:25:16Z</time>
      </trkpt>
      <trkpt lat="48.45004" lon="2.73301">
        <ele>100.3</ele>
        <time>2021-07-17T10:25:17Z</time>
      </trkpt>
      <trkpt lat="48.45004" lon="2.73298">
        <ele>100.2</ele>
        <time>2021-07-17T10:25:46Z</time>
      </trkpt>
      <trkpt lat="48.45003" lon="2.73299">
        <ele>100.2</ele>
        <time>2021-07-17T10:25:47Z</time>
      </trkpt>
      <trkpt lat="48.45004" lon="2.733">
        <ele>100.2</ele>
        <time>2021-07-17T10:26:16Z</time>
      </trkpt>
      <trkpt lat="48.45004" lon="2.733">
        <ele>100.2</ele>
        <time>2021-07-17T10:26:17Z</time>
      </trkpt>
      <trkpt lat="48.45" lon="2.73301">
        <ele>100.2</ele>
        <time>2021-07-17T10:26:46Z</time>
      </trkpt>
      <trkpt lat="48.45" lon="2.73301">
        <ele>100.2</ele>
        <time>2021-07-17T10:26:47Z</time>
      </trkpt>
      <trkpt lat="48.45003" lon="2.73301">
        <ele>100.3</ele>
        <time>2021-07-17T10:27:16Z</time>
      </trkpt>
      <trkpt lat="48.45003" lon="2.73301">
        <ele>100.2</ele>
        <time>2021-07-17T10:27:17Z</time>
      </trkpt>
      <trkpt lat="48.44994" lon="2.73325">
        <ele>100.8</ele>
        <time>2021-07-17T10:27:42Z</time>
      </trkpt>
      <trkpt lat="48.44985" lon="2.73349">
        <ele>100.7</ele>
        <time>2021-07-17T10:27:47Z</time>
      </trkpt>
      <trkpt lat="48.44984" lon="2.7338">
        <ele>100.2</ele>
        <time>2021-07-17T10:27:54Z</time>
      </trkpt>
      <trkpt lat="48.44978" lon="2.73406">
        <ele>99.7</ele>
        <time>2021-07-17T10:27:59Z</time>
      </trkpt>
      <trkpt lat="48.44972" lon="2.73432">
        <ele>99.1</ele>
        <time>2021-07-17T10:28:05Z</time>
      </trkpt>
      <trkpt lat="48.44951" lon="2.73427">
        <ele>98.7</ele>
        <time>2021-07-17T10:28:11Z</time>
      </trkpt>
      <trkpt lat="48.44932" lon="2.73422">
        <ele>98.3</ele>
        <time>2021-07-17T10:28:18Z</time>
      </trkpt>
      <trkpt lat="48.44923" lon="2.73399">
        <ele>98.7</ele>
        <time>2021-07-17T10:28:23Z</time>
      </trkpt>
      <trkpt lat="48.44912" lon="2.73371">
        <ele>99.6</ele>
        <time>2021-07-17T10:28:28Z</time>
      </trkpt>
      <trkpt lat="48.44891" lon="2.73367">
        <ele>99.6</ele>
        <time>2021-07-17T10:28:35Z</time>
      </trkpt>
      <trkpt lat="48.44872" lon="2.73377">
        <ele>99.2</ele>
        <time>2021-07-17T10:28:40Z</time>
      </trkpt>
      <trkpt lat="48.44855" lon="2.73395">
        <ele>98.9</ele>
        <time>2021-07-17T10:28:45Z</time>
      </trkpt>
      <trkpt lat="48.44841" lon="2.73414">
        <ele>98.9</ele>
        <time>2021-07-17T10:28:50Z</time>
      </trkpt>
      <trkpt lat="48.4483" lon="2.73436">
        <ele>99</ele>
        <time>2021-07-17T10:28:56Z</time>
      </trkpt>
      <trkpt lat="48.44817" lon="2.73463">
        <ele>99</ele>
        <time>2021-07-17T10:29:03Z</time>
      </trkpt>
      <trkpt lat="48.44805" lon="2.73491">
        <ele>99</ele>
        <time>2021-07-17T10:29:11Z</time>
      </trkpt>
      <trkpt lat="48.4479" lon="2.73509">
        <ele>98.8</ele>
        <time>2021-07-17T10:29:17Z</time>
      </trkpt>
      <trkpt lat="48.44774" lon="2.73523">
        <ele>98.6</ele>
        <time>2021-07-17T10:29:22Z</time>
      </trkpt>
      <trkpt lat="48.44764" lon="2.73548">
        <ele>98.3</ele>
        <time>2021-07-17T10:29:27Z</time>
      </trkpt>
      <trkpt lat="48.44756" lon="2.73578">
        <ele>98</ele>
        <time>2021-07-17T10:29:32Z</time>
      </trkpt>
      <trkpt lat="48.44758" lon="2.73612">
        <ele>97.6</ele>
        <time>2021-07-17T10:29:37Z</time>
      </trkpt>
      <trkpt lat="48.44767" lon="2.7364">
        <ele>97.3</ele>
        <time>2021-07-17T10:29:42Z</time>
      </trkpt>
      <trkpt lat="48.44755" lon="2.73665">
        <ele>97</ele>
        <time>2021-07-17T10:29:47Z</time>
      </trkpt>
      <trkpt lat="48.44738" lon="2.73674">
        <ele>97.4</ele>
        <time>2021-07-17T10:29:52Z</time>
      </trkpt>
      <trkpt lat="48.44717" lon="2.73668">
        <ele>97.8</ele>
        <time>2021-07-17T10:29:57Z</time>
      </trkpt>
      <trkpt lat="48.44699" lon="2.73681">
        <ele>98.4</ele>
        <time>2021-07-17T10:30:05Z</time>
      </trkpt>
      <trkpt lat="48.44687" lon="2.73703">
        <ele>98.7</ele>
        <time>2021-07-17T10:30:11Z</time>
      </trkpt>
      <trkpt lat="48.44674" lon="2.73725">
        <ele>99</ele>
        <time>2021-07-17T10:30:17Z</time>
      </trkpt>
      <trkpt lat="48.44666" lon="2.73751">
        <ele>99</ele>
        <time>2021-07-17T10:30:22Z</time>
      </trkpt>
      <trkpt lat="48.44669" lon="2.73787">
        <ele>98.6</ele>
        <time>2021-07-17T10:30:27Z</time>
      </trkpt>
      <trkpt lat="48.44674" lon="2.73817">
        <ele>98.3</ele>
        <time>2021-07-17T10:30:32Z</time>
      </trkpt>
      <trkpt lat="48.44691" lon="2.73834">
        <ele>98.3</ele>
        <time>2021-07-17T10:30:37Z</time>
      </trkpt>
      <trkpt lat="48.4471" lon="2.73842">
        <ele>98.5</ele>
        <time>2021-07-17T10:30:42Z</time>
      </trkpt>
      <trkpt lat="48.4473" lon="2.73848">
        <ele>98.8</ele>
        <time>2021-07-17T10:30:47Z</time>
      </trkpt>
      <trkpt lat="48.44748" lon="2.73856">
        <ele>99</ele>
        <time>2021-07-17T10:30:53Z</time>
      </trkpt>
      <trkpt lat="48.44751" lon="2.73883">
        <ele>99</ele>
        <time>2021-07-17T10:31:03Z</time>
      </trkpt>
      <trkpt lat="48.44752" lon="2.73889">
        <ele>99</ele>
        <time>2021-07-17T10:31:31Z</time>
      </trkpt>
      <trkpt lat="48.44752" lon="2.73889">
        <ele>99</ele>
        <time>2021-07-17T10:31:32Z</time>
      </trkpt>
      <trkpt lat="48.44753" lon="2.73885">
        <ele>99</ele>
        <time>2021-07-17T10:32:01Z</time>
      </trkpt>
      <trkpt lat="48.44753" lon="2.73885">
        <ele>99</ele>
        <time>2021-07-17T10:32:02Z</time>
      </trkpt>
      <trkpt lat="48.44752" lon="2.73885">
        <ele>99</ele>
        <time>2021-07-17T10:32:31Z</time>
      </trkpt>
      <trkpt lat="48.44752" lon="2.73885">
        <ele>99</ele>
        <time>2021-07-17T10:32:32Z</time>
      </trkpt>
      <trkpt lat="48.44751" lon="2.73886">
        <ele>99</ele>
        <time>2021-07-17T10:33:01Z</time>
      </trkpt>
      <trkpt lat="48.44751" lon="2.73886">
        <ele>99</ele>
        <time>2021-07-17T10:33:02Z</time>
      </trkpt>
      <trkpt lat="48.44749" lon="2.73879">
        <ele>99</ele>
        <time>2021-07-17T10:33:31Z</time>
      </trkpt>
      <trkpt lat="48.44779" lon="2.73915">
        <ele>98.7</ele>
        <time>2021-07-17T10:33:38Z</time>
      </trkpt>
      <trkpt lat="48.44753" lon="2.73889">
        <ele>99</ele>
        <time>2021-07-17T10:33:43Z</time>
      </trkpt>
      <trkpt lat="48.44757" lon="2.73897">
        <ele>98.9</ele>
        <time>2021-07-17T10:34:01Z</time>
      </trkpt>
      <trkpt lat="48.44754" lon="2.73928">
        <ele>99</ele>
        <time>2021-07-17T10:34:10Z</time>
      </trkpt>
      <trkpt lat="48.44757" lon="2.73882">
        <ele>98.9</ele>
        <time>2021-07-17T10:34:15Z</time>
      </trkpt>
      <trkpt lat="48.44748" lon="2.73905">
        <ele>99</ele>
        <time>2021-07-17T10:34:26Z</time>
      </trkpt>
      <trkpt lat="48.44756" lon="2.73896">
        <ele>98.9</ele>
        <time>2021-07-17T10:34:46Z</time>
      </trkpt>
      <trkpt lat="48.4479" lon="2.73888">
        <ele>98.5</ele>
        <time>2021-07-17T10:34:51Z</time>
      </trkpt>
      <trkpt lat="48.44753" lon="2.73894">
        <ele>99</ele>
        <time>2021-07-17T10:34:56Z</time>
      </trkpt>
      <trkpt lat="48.44741" lon="2.73896">
        <ele>98.9</ele>
        <time>2021-07-17T10:35:16Z</time>
      </trkpt>
      <trkpt lat="48.44757" lon="2.73888">
        <ele>98.9</ele>
        <time>2021-07-17T10:35:22Z</time>
      </trkpt>
      <trkpt lat="48.44751" lon="2.73895">
        <ele>99</ele>
        <time>2021-07-17T10:35:46Z</time>
      </trkpt>
      <trkpt lat="48.44754" lon="2.73895">
        <ele>98.9</ele>
        <time>2021-07-17T10:35:53Z</time>
      </trkpt>
      <trkpt lat="48.44748" lon="2.73889">
        <ele>99</ele>
        <time>2021-07-17T10:36:16Z</time>
      </trkpt>
      <trkpt lat="48.44756" lon="2.73874">
        <ele>98.9</ele>
        <time>2021-07-17T10:36:21Z</time>
      </trkpt>
      <trkpt lat="48.44734" lon="2.73901">
        <ele>98.8</ele>
        <time>2021-07-17T10:36:32Z</time>
      </trkpt>
      <trkpt lat="48.44754" lon="2.73898">
        <ele>99</ele>
        <time>2021-07-17T10:36:41Z</time>
      </trkpt>
      <trkpt lat="48.44774" lon="2.73895">
        <ele>98.7</ele>
        <time>2021-07-17T10:36:47Z</time>
      </trkpt>
      <trkpt lat="48.44794" lon="2.73903">
        <ele>98.5</ele>
        <time>2021-07-17T10:36:53Z</time>
      </trkpt>
      <trkpt lat="48.44801" lon="2.7393">
        <ele>98.6</ele>
        <time>2021-07-17T10:36:59Z</time>
      </trkpt>
      <trkpt lat="48.44807" lon="2.73958">
        <ele>99</ele>
        <time>2021-07-17T10:37:04Z</time>
      </trkpt>
      <trkpt lat="48.44787" lon="2.73962">
        <ele>99</ele>
        <time>2021-07-17T10:37:16Z</time>
      </trkpt>
      <trkpt lat="48.44767" lon="2.73965">
        <ele>99</ele>
        <time>2021-07-17T10:37:21Z</time>
      </trkpt>
      <trkpt lat="48.44748" lon="2.73966">
        <ele>99</ele>
        <time>2021-07-17T10:37:26Z</time>
      </trkpt>
      <trkpt lat="48.44732" lon="2.73987">
        <ele>98.8</ele>
        <time>2021-07-17T10:37:34Z</time>
      </trkpt>
      <trkpt lat="48.44728" lon="2.74018">
        <ele>99</ele>
        <time>2021-07-17T10:37:40Z</time>
      </trkpt>
      <trkpt lat="48.44716" lon="2.74044">
        <ele>99.1</ele>
        <time>2021-07-17T10:37:45Z</time>
      </trkpt>
      <trkpt lat="48.44703" lon="2.74068">
        <ele>99.3</ele>
        <time>2021-07-17T10:37:50Z</time>
      </trkpt>
      <trkpt lat="48.44684" lon="2.74081">
        <ele>99.2</ele>
        <time>2021-07-17T10:37:56Z</time>
      </trkpt>
      <trkpt lat="48.44666" lon="2.74103">
        <ele>98.5</ele>
        <time>2021-07-17T10:38:01Z</time>
      </trkpt>
      <trkpt lat="48.44647" lon="2.74115">
        <ele>98</ele>
        <time>2021-07-17T10:38:06Z</time>
      </trkpt>
      <trkpt lat="48.4463" lon="2.7413">
        <ele>97.5</ele>
        <time>2021-07-17T10:38:11Z</time>
      </trkpt>
      <trkpt lat="48.44613" lon="2.74139">
        <ele>97</ele>
        <time>2021-07-17T10:38:16Z</time>
      </trkpt>
      <trkpt lat="48.4461" lon="2.74145">
        <ele>96.8</ele>
        <time>2021-07-17T10:38:31Z</time>
      </trkpt>
      <trkpt lat="48.44611" lon="2.74169">
        <ele>96.4</ele>
        <time>2021-07-17T10:39:01Z</time>
      </trkpt>
      <trkpt lat="48.44558" lon="2.74137">
        <ele>96.9</ele>
        <time>2021-07-17T10:39:10Z</time>
      </trkpt>
      <trkpt lat="48.44578" lon="2.74145">
        <ele>96.6</ele>
        <time>2021-07-17T10:39:17Z</time>
      </trkpt>
      <trkpt lat="48.44595" lon="2.74151">
        <ele>96.5</ele>
        <time>2021-07-17T10:39:26Z</time>
      </trkpt>
      <trkpt lat="48.44602" lon="2.74148">
        <ele>96.7</ele>
        <time>2021-07-17T10:39:46Z</time>
      </trkpt>
      <trkpt lat="48.44609" lon="2.74158">
        <ele>96.5</ele>
        <time>2021-07-17T10:39:52Z</time>
      </trkpt>
      <trkpt lat="48.44604" lon="2.74175">
        <ele>96.4</ele>
        <time>2021-07-17T10:40:16Z</time>
      </trkpt>
      <trkpt lat="48.44608" lon="2.7417">
        <ele>96.4</ele>
        <time>2021-07-17T10:40:22Z</time>
      </trkpt>
      <trkpt lat="48.44612" lon="2.74159">
        <ele>96.5</ele>
        <time>2021-07-17T10:40:46Z</time>
      </trkpt>
      <trkpt lat="48.44615" lon="2.74166">
        <ele>96.4</ele>
        <time>2021-07-17T10:40:51Z</time>
      </trkpt>
      <trkpt lat="48.4463" lon="2.74184">
        <ele>97</ele>
        <time>2021-07-17T10:41:00Z</time>
      </trkpt>
      <trkpt lat="48.4465" lon="2.74196">
        <ele>97.7</ele>
        <time>2021-07-17T10:41:08Z</time>
      </trkpt>
      <trkpt lat="48.44667" lon="2.74207">
        <ele>98.4</ele>
        <time>2021-07-17T10:41:24Z</time>
      </trkpt>
      <trkpt lat="48.44688" lon="2.74215">
        <ele>99.4</ele>
        <time>2021-07-17T10:41:32Z</time>
      </trkpt>
      <trkpt lat="48.44708" lon="2.74222">
        <ele>100.3</ele>
        <time>2021-07-17T10:41:38Z</time>
      </trkpt>
      <trkpt lat="48.44725" lon="2.74234">
        <ele>101.1</ele>
        <time>2021-07-17T10:41:46Z</time>
      </trkpt>
      <trkpt lat="48.44742" lon="2.74252">
        <ele>101.8</ele>
        <time>2021-07-17T10:41:52Z</time>
      </trkpt>
      <trkpt lat="48.44758" lon="2.74265">
        <ele>102.1</ele>
        <time>2021-07-17T10:41:58Z</time>
      </trkpt>
      <trkpt lat="48.44776" lon="2.74286">
        <ele>102</ele>
        <time>2021-07-17T10:42:05Z</time>
      </trkpt>
      <trkpt lat="48.44794" lon="2.743">
        <ele>101.9</ele>
        <time>2021-07-17T10:42:11Z</time>
      </trkpt>
      <trkpt lat="48.44809" lon="2.74317">
        <ele>101.6</ele>
        <time>2021-07-17T10:42:16Z</time>
      </trkpt>
      <trkpt lat="48.44828" lon="2.74335">
        <ele>101</ele>
        <time>2021-07-17T10:42:21Z</time>
      </trkpt>
      <trkpt lat="48.44841" lon="2.74356">
        <ele>100</ele>
        <time>2021-07-17T10:42:27Z</time>
      </trkpt>
      <trkpt lat="48.44856" lon="2.74378">
        <ele>99.4</ele>
        <time>2021-07-17T10:42:34Z</time>
      </trkpt>
      <trkpt lat="48.44868" lon="2.74399">
        <ele>98.9</ele>
        <time>2021-07-17T10:42:44Z</time>
      </trkpt>
      <trkpt lat="48.44869" lon="2.74431">
        <ele>97.5</ele>
        <time>2021-07-17T10:42:51Z</time>
      </trkpt>
      <trkpt lat="48.44865" lon="2.7446">
        <ele>95.9</ele>
        <time>2021-07-17T10:42:58Z</time>
      </trkpt>
      <trkpt lat="48.44869" lon="2.74489">
        <ele>94.4</ele>
        <time>2021-07-17T10:43:05Z</time>
      </trkpt>
      <trkpt lat="48.4487" lon="2.74518">
        <ele>93.7</ele>
        <time>2021-07-17T10:43:10Z</time>
      </trkpt>
      <trkpt lat="48.44872" lon="2.74546">
        <ele>93.4</ele>
        <time>2021-07-17T10:43:15Z</time>
      </trkpt>
      <trkpt lat="48.44875" lon="2.74573">
        <ele>93.1</ele>
        <time>2021-07-17T10:43:20Z</time>
      </trkpt>
      <trkpt lat="48.44878" lon="2.74601">
        <ele>92.8</ele>
        <time>2021-07-17T10:43:25Z</time>
      </trkpt>
      <trkpt lat="48.44882" lon="2.74633">
        <ele>92.4</ele>
        <time>2021-07-17T10:43:31Z</time>
      </trkpt>
      <trkpt lat="48.44889" lon="2.74661">
        <ele>91.8</ele>
        <time>2021-07-17T10:43:37Z</time>
      </trkpt>
      <trkpt lat="48.44896" lon="2.74688">
        <ele>90.8</ele>
        <time>2021-07-17T10:43:43Z</time>
      </trkpt>
      <trkpt lat="48.44901" lon="2.74716">
        <ele>89.7</ele>
        <time>2021-07-17T10:43:49Z</time>
      </trkpt>
      <trkpt lat="48.44909" lon="2.74743">
        <ele>88.5</ele>
        <time>2021-07-17T10:43:54Z</time>
      </trkpt>
      <trkpt lat="48.44916" lon="2.74773">
        <ele>87.8</ele>
        <time>2021-07-17T10:43:59Z</time>
      </trkpt>
      <trkpt lat="48.4492" lon="2.74804">
        <ele>87.4</ele>
        <time>2021-07-17T10:44:04Z</time>
      </trkpt>
      <trkpt lat="48.44919" lon="2.74836">
        <ele>86.9</ele>
        <time>2021-07-17T10:44:09Z</time>
      </trkpt>
      <trkpt lat="48.44912" lon="2.74866">
        <ele>85.8</ele>
        <time>2021-07-17T10:44:14Z</time>
      </trkpt>
      <trkpt lat="48.44904" lon="2.74895">
        <ele>84.8</ele>
        <time>2021-07-17T10:44:19Z</time>
      </trkpt>
      <trkpt lat="48.44896" lon="2.74925">
        <ele>83.8</ele>
        <time>2021-07-17T10:44:24Z</time>
      </trkpt>
      <trkpt lat="48.44891" lon="2.74953">
        <ele>83.3</ele>
        <time>2021-07-17T10:44:31Z</time>
      </trkpt>
      <trkpt lat="48.44911" lon="2.74953">
        <ele>83.5</ele>
        <time>2021-07-17T10:44:43Z</time>
      </trkpt>
      <trkpt lat="48.44931" lon="2.74944">
        <ele>83.8</ele>
        <time>2021-07-17T10:44:48Z</time>
      </trkpt>
      <trkpt lat="48.4495" lon="2.74935">
        <ele>84.1</ele>
        <time>2021-07-17T10:44:54Z</time>
      </trkpt>
      <trkpt lat="48.4497" lon="2.74924">
        <ele>84.5</ele>
        <time>2021-07-17T10:45:00Z</time>
      </trkpt>
      <trkpt lat="48.44991" lon="2.74913">
        <ele>85</ele>
        <time>2021-07-17T10:45:06Z</time>
      </trkpt>
      <trkpt lat="48.45011" lon="2.74906">
        <ele>85.3</ele>
        <time>2021-07-17T10:45:13Z</time>
      </trkpt>
      <trkpt lat="48.45029" lon="2.74899">
        <ele>85.4</ele>
        <time>2021-07-17T10:45:19Z</time>
      </trkpt>
      <trkpt lat="48.45049" lon="2.74895">
        <ele>85.5</ele>
        <time>2021-07-17T10:45:26Z</time>
      </trkpt>
      <trkpt lat="48.45068" lon="2.74895">
        <ele>85.5</ele>
        <time>2021-07-17T10:45:32Z</time>
      </trkpt>
      <trkpt lat="48.45085" lon="2.74886">
        <ele>85.8</ele>
        <time>2021-07-17T10:45:39Z</time>
      </trkpt>
      <trkpt lat="48.45103" lon="2.74875">
        <ele>86.3</ele>
        <time>2021-07-17T10:45:45Z</time>
      </trkpt>
      <trkpt lat="48.45124" lon="2.74875">
        <ele>86.7</ele>
        <time>2021-07-17T10:45:52Z</time>
      </trkpt>
      <trkpt lat="48.45142" lon="2.74871">
        <ele>87.2</ele>
        <time>2021-07-17T10:46:03Z</time>
      </trkpt>
      <trkpt lat="48.45144" lon="2.74899">
        <ele>86.3</ele>
        <time>2021-07-17T10:46:14Z</time>
      </trkpt>
      <trkpt lat="48.45143" lon="2.74926">
        <ele>85.5</ele>
        <time>2021-07-17T10:46:23Z</time>
      </trkpt>
      <trkpt lat="48.4514" lon="2.74954">
        <ele>84.9</ele>
        <time>2021-07-17T10:46:39Z</time>
      </trkpt>
      <trkpt lat="48.45153" lon="2.74974">
        <ele>84.6</ele>
        <time>2021-07-17T10:46:56Z</time>
      </trkpt>
      <trkpt lat="48.4515" lon="2.74994">
        <ele>84.1</ele>
        <time>2021-07-17T10:47:16Z</time>
      </trkpt>
      <trkpt lat="48.4515" lon="2.74989">
        <ele>84.2</ele>
        <time>2021-07-17T10:47:24Z</time>
      </trkpt>
      <trkpt lat="48.4515" lon="2.74995">
        <ele>84.1</ele>
        <time>2021-07-17T10:47:46Z</time>
      </trkpt>
      <trkpt lat="48.45152" lon="2.74974">
        <ele>84.6</ele>
        <time>2021-07-17T10:47:51Z</time>
      </trkpt>
      <trkpt lat="48.45134" lon="2.74994">
        <ele>84.1</ele>
        <time>2021-07-17T10:47:56Z</time>
      </trkpt>
      <trkpt lat="48.45143" lon="2.75018">
        <ele>83.7</ele>
        <time>2021-07-17T10:48:09Z</time>
      </trkpt>
      <trkpt lat="48.45139" lon="2.75046">
        <ele>83.3</ele>
        <time>2021-07-17T10:48:19Z</time>
      </trkpt>
      <trkpt lat="48.45136" lon="2.75078">
        <ele>82.7</ele>
        <time>2021-07-17T10:48:26Z</time>
      </trkpt>
      <trkpt lat="48.4513" lon="2.75106">
        <ele>81.7</ele>
        <time>2021-07-17T10:48:31Z</time>
      </trkpt>
      <trkpt lat="48.45119" lon="2.75135">
        <ele>80.6</ele>
        <time>2021-07-17T10:48:36Z</time>
      </trkpt>
      <trkpt lat="48.45124" lon="2.75161">
        <ele>79.7</ele>
        <time>2021-07-17T10:48:43Z</time>
      </trkpt>
      <trkpt lat="48.45139" lon="2.75183">
        <ele>79.2</ele>
        <time>2021-07-17T10:48:50Z</time>
      </trkpt>
      <trkpt lat="48.45157" lon="2.75201">
        <ele>79</ele>
        <time>2021-07-17T10:48:55Z</time>
      </trkpt>
      <trkpt lat="48.45174" lon="2.75213">
        <ele>79</ele>
        <time>2021-07-17T10:49:01Z</time>
      </trkpt>
      <trkpt lat="48.45192" lon="2.75224">
        <ele>78.9</ele>
        <time>2021-07-17T10:49:09Z</time>
      </trkpt>
      <trkpt lat="48.45209" lon="2.75235">
        <ele>78.9</ele>
        <time>2021-07-17T10:49:18Z</time>
      </trkpt>
      <trkpt lat="48.45226" lon="2.75249">
        <ele>78.7</ele>
        <time>2021-07-17T10:49:25Z</time>
      </trkpt>
      <trkpt lat="48.45242" lon="2.7526">
        <ele>78.9</ele>
        <time>2021-07-17T10:49:30Z</time>
      </trkpt>
      <trkpt lat="48.4526" lon="2.75264">
        <ele>78.6</ele>
        <time>2021-07-17T10:49:36Z</time>
      </trkpt>
      <trkpt lat="48.45279" lon="2.75272">
        <ele>77.8</ele>
        <time>2021-07-17T10:49:42Z</time>
      </trkpt>
      <trkpt lat="48.45297" lon="2.75276">
        <ele>77</ele>
        <time>2021-07-17T10:49:49Z</time>
      </trkpt>
      <trkpt lat="48.45317" lon="2.75274">
        <ele>76.1</ele>
        <time>2021-07-17T10:49:56Z</time>
      </trkpt>
      <trkpt lat="48.45337" lon="2.7527">
        <ele>75.5</ele>
        <time>2021-07-17T10:50:03Z</time>
      </trkpt>
      <trkpt lat="48.45353" lon="2.75257">
        <ele>75.6</ele>
        <time>2021-07-17T10:50:11Z</time>
      </trkpt>
      <trkpt lat="48.45367" lon="2.75235">
        <ele>76</ele>
        <time>2021-07-17T10:50:27Z</time>
      </trkpt>
      <trkpt lat="48.45384" lon="2.75223">
        <ele>76.3</ele>
        <time>2021-07-17T10:50:44Z</time>
      </trkpt>
      <trkpt lat="48.45398" lon="2.75207">
        <ele>76.7</ele>
        <time>2021-07-17T10:50:54Z</time>
      </trkpt>
      <trkpt lat="48.45416" lon="2.75197">
        <ele>76.9</ele>
        <time>2021-07-17T10:51:04Z</time>
      </trkpt>
      <trkpt lat="48.45434" lon="2.75187">
        <ele>77</ele>
        <time>2021-07-17T10:51:19Z</time>
      </trkpt>
      <trkpt lat="48.45452" lon="2.7518">
        <ele>77.1</ele>
        <time>2021-07-17T10:51:26Z</time>
      </trkpt>
      <trkpt lat="48.45472" lon="2.75178">
        <ele>76.9</ele>
        <time>2021-07-17T10:51:33Z</time>
      </trkpt>
      <trkpt lat="48.45491" lon="2.75179">
        <ele>76.7</ele>
        <time>2021-07-17T10:51:38Z</time>
      </trkpt>
      <trkpt lat="48.4551" lon="2.75177">
        <ele>76.7</ele>
        <time>2021-07-17T10:51:43Z</time>
      </trkpt>
      <trkpt lat="48.45533" lon="2.75176">
        <ele>76.8</ele>
        <time>2021-07-17T10:51:48Z</time>
      </trkpt>
      <trkpt lat="48.45555" lon="2.75175">
        <ele>76.9</ele>
        <time>2021-07-17T10:51:53Z</time>
      </trkpt>
      <trkpt lat="48.45575" lon="2.75176">
        <ele>77</ele>
        <time>2021-07-17T10:51:58Z</time>
      </trkpt>
      <trkpt lat="48.45597" lon="2.75177">
        <ele>77.6</ele>
        <time>2021-07-17T10:52:03Z</time>
      </trkpt>
      <trkpt lat="48.45618" lon="2.75175">
        <ele>78.6</ele>
        <time>2021-07-17T10:52:09Z</time>
      </trkpt>
      <trkpt lat="48.45641" lon="2.75173">
        <ele>79.7</ele>
        <time>2021-07-17T10:52:14Z</time>
      </trkpt>
      <trkpt lat="48.45663" lon="2.7517">
        <ele>80.8</ele>
        <time>2021-07-17T10:52:19Z</time>
      </trkpt>
      <trkpt lat="48.45687" lon="2.7517">
        <ele>81.4</ele>
        <time>2021-07-17T10:52:24Z</time>
      </trkpt>
      <trkpt lat="48.45711" lon="2.75171">
        <ele>81.9</ele>
        <time>2021-07-17T10:52:29Z</time>
      </trkpt>
      <trkpt lat="48.45738" lon="2.75171">
        <ele>82.5</ele>
        <time>2021-07-17T10:52:34Z</time>
      </trkpt>
      <trkpt lat="48.45768" lon="2.75176">
        <ele>80.5</ele>
        <time>2021-07-17T10:52:39Z</time>
      </trkpt>
      <trkpt lat="48.45792" lon="2.75191">
        <ele>77.4</ele>
        <time>2021-07-17T10:52:44Z</time>
      </trkpt>
      <trkpt lat="48.45812" lon="2.75192">
        <ele>75.4</ele>
        <time>2021-07-17T10:52:49Z</time>
      </trkpt>
      <trkpt lat="48.45836" lon="2.75201">
        <ele>73.5</ele>
        <time>2021-07-17T10:52:54Z</time>
      </trkpt>
      <trkpt lat="48.45858" lon="2.75208">
        <ele>74.4</ele>
        <time>2021-07-17T10:52:59Z</time>
      </trkpt>
      <trkpt lat="48.45876" lon="2.7522">
        <ele>75.2</ele>
        <time>2021-07-17T10:53:04Z</time>
      </trkpt>
      <trkpt lat="48.45893" lon="2.75233">
        <ele>75.9</ele>
        <time>2021-07-17T10:53:09Z</time>
      </trkpt>
      <trkpt lat="48.4591" lon="2.7525">
        <ele>76.8</ele>
        <time>2021-07-17T10:53:16Z</time>
      </trkpt>
      <trkpt lat="48.4593" lon="2.75261">
        <ele>75.8</ele>
        <time>2021-07-17T10:53:21Z</time>
      </trkpt>
      <trkpt lat="48.45952" lon="2.7527">
        <ele>74.4</ele>
        <time>2021-07-17T10:53:26Z</time>
      </trkpt>
      <trkpt lat="48.45969" lon="2.75282">
        <ele>73.5</ele>
        <time>2021-07-17T10:53:31Z</time>
      </trkpt>
      <trkpt lat="48.45989" lon="2.75294">
        <ele>72.9</ele>
        <time>2021-07-17T10:53:37Z</time>
      </trkpt>
      <trkpt lat="48.46007" lon="2.75308">
        <ele>72.3</ele>
        <time>2021-07-17T10:53:43Z</time>
      </trkpt>
      <trkpt lat="48.46024" lon="2.75319">
        <ele>71.5</ele>
        <time>2021-07-17T10:53:48Z</time>
      </trkpt>
      <trkpt lat="48.46044" lon="2.75332">
        <ele>70.4</ele>
        <time>2021-07-17T10:53:54Z</time>
      </trkpt>
      <trkpt lat="48.46061" lon="2.75341">
        <ele>69.3</ele>
        <time>2021-07-17T10:54:00Z</time>
      </trkpt>
      <trkpt lat="48.46081" lon="2.75349">
        <ele>68.3</ele>
        <time>2021-07-17T10:54:08Z</time>
      </trkpt>
      <trkpt lat="48.46099" lon="2.7536">
        <ele>68.3</ele>
        <time>2021-07-17T10:54:19Z</time>
      </trkpt>
      <trkpt lat="48.46117" lon="2.75365">
        <ele>68.2</ele>
        <time>2021-07-17T10:54:25Z</time>
      </trkpt>
      <trkpt lat="48.46138" lon="2.75375">
        <ele>68.2</ele>
        <time>2021-07-17T10:54:30Z</time>
      </trkpt>
      <trkpt lat="48.46156" lon="2.75385">
        <ele>68.1</ele>
        <time>2021-07-17T10:54:39Z</time>
      </trkpt>
      <trkpt lat="48.46163" lon="2.7541">
        <ele>68</ele>
        <time>2021-07-17T10:54:59Z</time>
      </trkpt>
      <trkpt lat="48.46152" lon="2.75439">
        <ele>68.1</ele>
        <time>2021-07-17T10:55:12Z</time>
      </trkpt>
      <trkpt lat="48.46143" lon="2.75462">
        <ele>68.1</ele>
        <time>2021-07-17T10:55:18Z</time>
      </trkpt>
      <trkpt lat="48.46132" lon="2.75486">
        <ele>68.1</ele>
        <time>2021-07-17T10:55:24Z</time>
      </trkpt>
      <trkpt lat="48.46121" lon="2.7551">
        <ele>67.9</ele>
        <time>2021-07-17T10:55:29Z</time>
      </trkpt>
      <trkpt lat="48.46108" lon="2.75533">
        <ele>67.6</ele>
        <time>2021-07-17T10:55:35Z</time>
      </trkpt>
      <trkpt lat="48.46096" lon="2.75561">
        <ele>66.9</ele>
        <time>2021-07-17T10:55:40Z</time>
      </trkpt>
      <trkpt lat="48.46084" lon="2.75587">
        <ele>66</ele>
        <time>2021-07-17T10:55:45Z</time>
      </trkpt>
      <trkpt lat="48.46071" lon="2.75618">
        <ele>66</ele>
        <time>2021-07-17T10:55:50Z</time>
      </trkpt>
      <trkpt lat="48.4606" lon="2.75646">
        <ele>65.9</ele>
        <time>2021-07-17T10:55:55Z</time>
      </trkpt>
      <trkpt lat="48.46048" lon="2.75674">
        <ele>65.5</ele>
        <time>2021-07-17T10:56:00Z</time>
      </trkpt>
      <trkpt lat="48.46034" lon="2.75703">
        <ele>65</ele>
        <time>2021-07-17T10:56:05Z</time>
      </trkpt>
      <trkpt lat="48.46022" lon="2.75731">
        <ele>64.5</ele>
        <time>2021-07-17T10:56:10Z</time>
      </trkpt>
      <trkpt lat="48.46008" lon="2.75759">
        <ele>64</ele>
        <time>2021-07-17T10:56:15Z</time>
      </trkpt>
      <trkpt lat="48.45996" lon="2.75788">
        <ele>63.6</ele>
        <time>2021-07-17T10:56:20Z</time>
      </trkpt>
      <trkpt lat="48.45982" lon="2.75814">
        <ele>63.1</ele>
        <time>2021-07-17T10:56:25Z</time>
      </trkpt>
      <trkpt lat="48.45972" lon="2.75842">
        <ele>62.6</ele>
        <time>2021-07-17T10:56:30Z</time>
      </trkpt>
      <trkpt lat="48.45956" lon="2.75872">
        <ele>62.2</ele>
        <time>2021-07-17T10:56:35Z</time>
      </trkpt>
      <trkpt lat="48.45941" lon="2.75909">
        <ele>62</ele>
        <time>2021-07-17T10:56:40Z</time>
      </trkpt>
      <trkpt lat="48.45928" lon="2.75939">
        <ele>61</ele>
        <time>2021-07-17T10:56:45Z</time>
      </trkpt>
      <trkpt lat="48.45915" lon="2.75972">
        <ele>59.3</ele>
        <time>2021-07-17T10:56:50Z</time>
      </trkpt>
      <trkpt lat="48.45906" lon="2.75997">
        <ele>57.6</ele>
        <time>2021-07-17T10:56:56Z</time>
      </trkpt>
      <trkpt lat="48.45896" lon="2.76021">
        <ele>56.4</ele>
        <time>2021-07-17T10:57:07Z</time>
      </trkpt>
      <trkpt lat="48.45895" lon="2.7602">
        <ele>56.4</ele>
        <time>2021-07-17T10:57:31Z</time>
      </trkpt>
      <trkpt lat="48.45897" lon="2.76014">
        <ele>56.7</ele>
        <time>2021-07-17T10:57:38Z</time>
      </trkpt>
      <trkpt lat="48.45888" lon="2.76038">
        <ele>55.4</ele>
        <time>2021-07-17T10:57:49Z</time>
      </trkpt>
      <trkpt lat="48.45871" lon="2.7608">
        <ele>52.8</ele>
        <time>2021-07-17T10:57:54Z</time>
      </trkpt>
      <trkpt lat="48.45853" lon="2.76126">
        <ele>50</ele>
        <time>2021-07-17T10:57:59Z</time>
      </trkpt>
      <trkpt lat="48.45831" lon="2.76169">
        <ele>46.9</ele>
        <time>2021-07-17T10:58:04Z</time>
      </trkpt>
      <trkpt lat="48.45812" lon="2.7621">
        <ele>45.2</ele>
        <time>2021-07-17T10:58:09Z</time>
      </trkpt>
      <trkpt lat="48.45798" lon="2.76238">
        <ele>44</ele>
        <time>2021-07-17T10:58:14Z</time>
      </trkpt>
      <trkpt lat="48.45781" lon="2.76251">
        <ele>43.4</ele>
        <time>2021-07-17T10:58:22Z</time>
      </trkpt>
      <trkpt lat="48.45766" lon="2.76233">
        <ele>43.8</ele>
        <time>2021-07-17T10:58:37Z</time>
      </trkpt>
      <trkpt lat="48.45752" lon="2.76214">
        <ele>44.3</ele>
        <time>2021-07-17T10:58:48Z</time>
      </trkpt>
      <trkpt lat="48.45735" lon="2.76198">
        <ele>44.8</ele>
        <time>2021-07-17T10:58:58Z</time>
      </trkpt>
      <trkpt lat="48.45726" lon="2.7619">
        <ele>45</ele>
        <time>2021-07-17T10:59:16Z</time>
      </trkpt>
      <trkpt lat="48.45726" lon="2.7619">
        <ele>45</ele>
        <time>2021-07-17T10:59:18Z</time>
      </trkpt>
      <trkpt lat="48.45725" lon="2.76188">
        <ele>45.1</ele>
        <time>2021-07-17T10:59:47Z</time>
      </trkpt>
      <trkpt lat="48.45725" lon="2.76188">
        <ele>45.1</ele>
        <time>2021-07-17T10:59:48Z</time>
      </trkpt>
      <trkpt lat="48.45709" lon="2.76174">
        <ele>45.3</ele>
        <time>2021-07-17T11:00:16Z</time>
      </trkpt>
      <trkpt lat="48.45691" lon="2.7616">
        <ele>45.5</ele>
        <time>2021-07-17T11:00:22Z</time>
      </trkpt>
      <trkpt lat="48.45674" lon="2.76144">
        <ele>45.6</ele>
        <time>2021-07-17T11:00:28Z</time>
      </trkpt>
      <trkpt lat="48.45655" lon="2.76128">
        <ele>45.8</ele>
        <time>2021-07-17T11:00:33Z</time>
      </trkpt>
      <trkpt lat="48.45638" lon="2.76113">
        <ele>45.8</ele>
        <time>2021-07-17T11:00:38Z</time>
      </trkpt>
      <trkpt lat="48.4562" lon="2.76099">
        <ele>45.7</ele>
        <time>2021-07-17T11:00:43Z</time>
      </trkpt>
      <trkpt lat="48.45604" lon="2.76084">
        <ele>45.5</ele>
        <time>2021-07-17T11:00:48Z</time>
      </trkpt>
      <trkpt lat="48.45588" lon="2.7607">
        <ele>45.3</ele>
        <time>2021-07-17T11:00:54Z</time>
      </trkpt>
      <trkpt lat="48.45569" lon="2.76054">
        <ele>45.4</ele>
        <time>2021-07-17T11:00:59Z</time>
      </trkpt>
      <trkpt lat="48.45546" lon="2.76038">
        <ele>45.5</ele>
        <time>2021-07-17T11:01:04Z</time>
      </trkpt>
      <trkpt lat="48.45524" lon="2.76025">
        <ele>45.7</ele>
        <time>2021-07-17T11:01:09Z</time>
      </trkpt>
      <trkpt lat="48.455" lon="2.76021">
        <ele>45.8</ele>
        <time>2021-07-17T11:01:14Z</time>
      </trkpt>
      <trkpt lat="48.45477" lon="2.76018">
        <ele>45.8</ele>
        <time>2021-07-17T11:01:19Z</time>
      </trkpt>
      <trkpt lat="48.45454" lon="2.76013">
        <ele>45.8</ele>
        <time>2021-07-17T11:01:24Z</time>
      </trkpt>
      <trkpt lat="48.45432" lon="2.76003">
        <ele>46</ele>
        <time>2021-07-17T11:01:29Z</time>
      </trkpt>
      <trkpt lat="48.45413" lon="2.75995">
        <ele>46</ele>
        <time>2021-07-17T11:01:34Z</time>
      </trkpt>
      <trkpt lat="48.4539" lon="2.75986">
        <ele>45.5</ele>
        <time>2021-07-17T11:01:39Z</time>
      </trkpt>
      <trkpt lat="48.45368" lon="2.75976">
        <ele>44.9</ele>
        <time>2021-07-17T11:01:44Z</time>
      </trkpt>
      <trkpt lat="48.45346" lon="2.75965">
        <ele>44.1</ele>
        <time>2021-07-17T11:01:49Z</time>
      </trkpt>
      <trkpt lat="48.45322" lon="2.75951">
        <ele>43.2</ele>
        <time>2021-07-17T11:01:54Z</time>
      </trkpt>
      <trkpt lat="48.45297" lon="2.75937">
        <ele>42.5</ele>
        <time>2021-07-17T11:01:59Z</time>
      </trkpt>
      <trkpt lat="48.45273" lon="2.75925">
        <ele>41.7</ele>
        <time>2021-07-17T11:02:04Z</time>
      </trkpt>
      <trkpt lat="48.45251" lon="2.75913">
        <ele>41.2</ele>
        <time>2021-07-17T11:02:09Z</time>
      </trkpt>
      <trkpt lat="48.4523" lon="2.75904">
        <ele>42.4</ele>
        <time>2021-07-17T11:02:14Z</time>
      </trkpt>
      <trkpt lat="48.45209" lon="2.75892">
        <ele>43.6</ele>
        <time>2021-07-17T11:02:19Z</time>
      </trkpt>
      <trkpt lat="48.4519" lon="2.75882">
        <ele>44.3</ele>
        <time>2021-07-17T11:02:24Z</time>
      </trkpt>
      <trkpt lat="48.45171" lon="2.75871">
        <ele>44.9</ele>
        <time>2021-07-17T11:02:30Z</time>
      </trkpt>
      <trkpt lat="48.45152" lon="2.75866">
        <ele>45.6</ele>
        <time>2021-07-17T11:02:36Z</time>
      </trkpt>
      <trkpt lat="48.45132" lon="2.75856">
        <ele>46.3</ele>
        <time>2021-07-17T11:02:42Z</time>
      </trkpt>
      <trkpt lat="48.45115" lon="2.7584">
        <ele>46.5</ele>
        <time>2021-07-17T11:02:47Z</time>
      </trkpt>
      <trkpt lat="48.45097" lon="2.75821">
        <ele>46.6</ele>
        <time>2021-07-17T11:02:52Z</time>
      </trkpt>
      <trkpt lat="48.45077" lon="2.75803">
        <ele>46.5</ele>
        <time>2021-07-17T11:02:57Z</time>
      </trkpt>
      <trkpt lat="48.45056" lon="2.75785">
        <ele>46.1</ele>
        <time>2021-07-17T11:03:02Z</time>
      </trkpt>
      <trkpt lat="48.4504" lon="2.7577">
        <ele>46</ele>
        <time>2021-07-17T11:03:09Z</time>
      </trkpt>
      <trkpt lat="48.45025" lon="2.75754">
        <ele>46</ele>
        <time>2021-07-17T11:03:22Z</time>
      </trkpt>
      <trkpt lat="48.45012" lon="2.75734">
        <ele>46</ele>
        <time>2021-07-17T11:03:40Z</time>
      </trkpt>
      <trkpt lat="48.44998" lon="2.75715">
        <ele>46.1</ele>
        <time>2021-07-17T11:03:49Z</time>
      </trkpt>
      <trkpt lat="48.44982" lon="2.75695">
        <ele>46.6</ele>
        <time>2021-07-17T11:03:56Z</time>
      </trkpt>
      <trkpt lat="48.44967" lon="2.75677">
        <ele>47.4</ele>
        <time>2021-07-17T11:04:01Z</time>
      </trkpt>
      <trkpt lat="48.4495" lon="2.75664">
        <ele>48.4</ele>
        <time>2021-07-17T11:04:07Z</time>
      </trkpt>
      <trkpt lat="48.44932" lon="2.75648">
        <ele>49.3</ele>
        <time>2021-07-17T11:04:13Z</time>
      </trkpt>
      <trkpt lat="48.44917" lon="2.75631">
        <ele>50</ele>
        <time>2021-07-17T11:04:20Z</time>
      </trkpt>
      <trkpt lat="48.44901" lon="2.75614">
        <ele>50.2</ele>
        <time>2021-07-17T11:04:26Z</time>
      </trkpt>
      <trkpt lat="48.44886" lon="2.75598">
        <ele>50.8</ele>
        <time>2021-07-17T11:04:35Z</time>
      </trkpt>
      <trkpt lat="48.44873" lon="2.7558">
        <ele>51.5</ele>
        <time>2021-07-17T11:04:50Z</time>
      </trkpt>
      <trkpt lat="48.44859" lon="2.75559">
        <ele>51.4</ele>
        <time>2021-07-17T11:05:00Z</time>
      </trkpt>
      <trkpt lat="48.44845" lon="2.75541">
        <ele>51.2</ele>
        <time>2021-07-17T11:05:09Z</time>
      </trkpt>
      <trkpt lat="48.44832" lon="2.75523">
        <ele>50.7</ele>
        <time>2021-07-17T11:05:18Z</time>
      </trkpt>
      <trkpt lat="48.44818" lon="2.75502">
        <ele>49.7</ele>
        <time>2021-07-17T11:05:25Z</time>
      </trkpt>
      <trkpt lat="48.44805" lon="2.75483">
        <ele>48.6</ele>
        <time>2021-07-17T11:05:33Z</time>
      </trkpt>
      <trkpt lat="48.44808" lon="2.75473">
        <ele>48.2</ele>
        <time>2021-07-17T11:06:02Z</time>
      </trkpt>
      <trkpt lat="48.44808" lon="2.75473">
        <ele>48.2</ele>
        <time>2021-07-17T11:06:03Z</time>
      </trkpt>
      <trkpt lat="48.44808" lon="2.75473">
        <ele>48.2</ele>
        <time>2021-07-17T11:06:32Z</time>
      </trkpt>
      <trkpt lat="48.44808" lon="2.75473">
        <ele>48.2</ele>
        <time>2021-07-17T11:06:33Z</time>
      </trkpt>
      <trkpt lat="48.4481" lon="2.75472">
        <ele>48.1</ele>
        <time>2021-07-17T11:07:02Z</time>
      </trkpt>
      <trkpt lat="48.4481" lon="2.75472">
        <ele>48.1</ele>
        <time>2021-07-17T11:07:03Z</time>
      </trkpt>
      <trkpt lat="48.44809" lon="2.75475">
        <ele>48.3</ele>
        <time>2021-07-17T11:07:32Z</time>
      </trkpt>
      <trkpt lat="48.44809" lon="2.75476">
        <ele>48.3</ele>
        <time>2021-07-17T11:07:33Z</time>
      </trkpt>
      <trkpt lat="48.4481" lon="2.75479">
        <ele>48.5</ele>
        <time>2021-07-17T11:08:02Z</time>
      </trkpt>
      <trkpt lat="48.44811" lon="2.75479">
        <ele>48.5</ele>
        <time>2021-07-17T11:08:03Z</time>
      </trkpt>
      <trkpt lat="48.44816" lon="2.75468">
        <ele>48</ele>
        <time>2021-07-17T11:08:32Z</time>
      </trkpt>
      <trkpt lat="48.44817" lon="2.75466">
        <ele>47.9</ele>
        <time>2021-07-17T11:08:33Z</time>
      </trkpt>
      <trkpt lat="48.44818" lon="2.75461">
        <ele>47.6</ele>
        <time>2021-07-17T11:09:02Z</time>
      </trkpt>
      <trkpt lat="48.44818" lon="2.75463">
        <ele>47.7</ele>
        <time>2021-07-17T11:09:03Z</time>
      </trkpt>
      <trkpt lat="48.44817" lon="2.75457">
        <ele>47.4</ele>
        <time>2021-07-17T11:09:32Z</time>
      </trkpt>
      <trkpt lat="48.44816" lon="2.75458">
        <ele>47.5</ele>
        <time>2021-07-17T11:09:33Z</time>
      </trkpt>
      <trkpt lat="48.44807" lon="2.75481">
        <ele>48.5</ele>
        <time>2021-07-17T11:10:02Z</time>
      </trkpt>
      <trkpt lat="48.44807" lon="2.75481">
        <ele>48.5</ele>
        <time>2021-07-17T11:10:03Z</time>
      </trkpt>
      <trkpt lat="48.44807" lon="2.75481">
        <ele>48.5</ele>
        <time>2021-07-17T11:10:32Z</time>
      </trkpt>
      <trkpt lat="48.44807" lon="2.75482">
        <ele>48.6</ele>
        <time>2021-07-17T11:10:33Z</time>
      </trkpt>
      <trkpt lat="48.44804" lon="2.75485">
        <ele>48.7</ele>
        <time>2021-07-17T11:11:02Z</time>
      </trkpt>
      <trkpt lat="48.44804" lon="2.75485">
        <ele>48.7</ele>
        <time>2021-07-17T11:11:03Z</time>
      </trkpt>
      <trkpt lat="48.44805" lon="2.75484">
        <ele>48.6</ele>
        <time>2021-07-17T11:11:32Z</time>
      </trkpt>
      <trkpt lat="48.44805" lon="2.75484">
        <ele>48.6</ele>
        <time>2021-07-17T11:11:33Z</time>
      </trkpt>
      <trkpt lat="48.44806" lon="2.75482">
        <ele>48.5</ele>
        <time>2021-07-17T11:12:02Z</time>
      </trkpt>
      <trkpt lat="48.44806" lon="2.75482">
        <ele>48.5</ele>
        <time>2021-07-17T11:12:03Z</time>
      </trkpt>
      <trkpt lat="48.44806" lon="2.75481">
        <ele>48.5</ele>
        <time>2021-07-17T11:12:32Z</time>
      </trkpt>
      <trkpt lat="48.44806" lon="2.75481">
        <ele>48.5</ele>
        <time>2021-07-17T11:12:33Z</time>
      </trkpt>
      <trkpt lat="48.44808" lon="2.7548">
        <ele>48.5</ele>
        <time>2021-07-17T11:13:02Z</time>
      </trkpt>
      <trkpt lat="48.44808" lon="2.7548">
        <ele>48.5</ele>
        <time>2021-07-17T11:13:03Z</time>
      </trkpt>
      <trkpt lat="48.44808" lon="2.75479">
        <ele>48.4</ele>
        <time>2021-07-17T11:13:32Z</time>
      </trkpt>
      <trkpt lat="48.44808" lon="2.75479">
        <ele>48.5</ele>
        <time>2021-07-17T11:13:33Z</time>
      </trkpt>
      <trkpt lat="48.44807" lon="2.75481">
        <ele>48.5</ele>
        <time>2021-07-17T11:14:02Z</time>
      </trkpt>
      <trkpt lat="48.44807" lon="2.7548">
        <ele>48.5</ele>
        <time>2021-07-17T11:14:03Z</time>
      </trkpt>
      <trkpt lat="48.4481" lon="2.75481">
        <ele>48.5</ele>
        <time>2021-07-17T11:14:32Z</time>
      </trkpt>
      <trkpt lat="48.4481" lon="2.75481">
        <ele>48.5</ele>
        <time>2021-07-17T11:14:33Z</time>
      </trkpt>
      <trkpt lat="48.4481" lon="2.75481">
        <ele>48.5</ele>
        <time>2021-07-17T11:15:02Z</time>
      </trkpt>
      <trkpt lat="48.4481" lon="2.75481">
        <ele>48.5</ele>
        <time>2021-07-17T11:15:03Z</time>
      </trkpt>
      <trkpt lat="48.44809" lon="2.75481">
        <ele>48.5</ele>
        <time>2021-07-17T11:15:32Z</time>
      </trkpt>
      <trkpt lat="48.44809" lon="2.75481">
        <ele>48.5</ele>
        <time>2021-07-17T11:15:33Z</time>
      </trkpt>
      <trkpt lat="48.44809" lon="2.75481">
        <ele>48.6</ele>
        <time>2021-07-17T11:16:02Z</time>
      </trkpt>
      <trkpt lat="48.44809" lon="2.75481">
        <ele>48.6</ele>
        <time>2021-07-17T11:16:03Z</time>
      </trkpt>
      <trkpt lat="48.44809" lon="2.75482">
        <ele>48.6</ele>
        <time>2021-07-17T11:16:32Z</time>
      </trkpt>
      <trkpt lat="48.44809" lon="2.75482">
        <ele>48.6</ele>
        <time>2021-07-17T11:16:33Z</time>
      </trkpt>
      <trkpt lat="48.44809" lon="2.75482">
        <ele>48.6</ele>
        <time>2021-07-17T11:17:02Z</time>
      </trkpt>
      <trkpt lat="48.44804" lon="2.75495">
        <ele>49.1</ele>
        <time>2021-07-17T11:17:07Z</time>
      </trkpt>
      <trkpt lat="48.44811" lon="2.75481">
        <ele>48.6</ele>
        <time>2021-07-17T11:17:32Z</time>
      </trkpt>
      <trkpt lat="48.44814" lon="2.75482">
        <ele>48.6</ele>
        <time>2021-07-17T11:17:36Z</time>
      </trkpt>
      <trkpt lat="48.44819" lon="2.75467">
        <ele>48</ele>
        <time>2021-07-17T11:18:02Z</time>
      </trkpt>
      <trkpt lat="48.44802" lon="2.75508">
        <ele>49.3</ele>
        <time>2021-07-17T11:18:07Z</time>
      </trkpt>
      <trkpt lat="48.44816" lon="2.75464">
        <ele>47.8</ele>
        <time>2021-07-17T11:18:12Z</time>
      </trkpt>
      <trkpt lat="48.44816" lon="2.75476">
        <ele>48.4</ele>
        <time>2021-07-17T11:18:32Z</time>
      </trkpt>
      <trkpt lat="48.44822" lon="2.75466">
        <ele>47.9</ele>
        <time>2021-07-17T11:18:38Z</time>
      </trkpt>
      <trkpt lat="48.44811" lon="2.755">
        <ele>49.5</ele>
        <time>2021-07-17T11:18:50Z</time>
      </trkpt>
      <trkpt lat="48.44812" lon="2.75481">
        <ele>48.6</ele>
        <time>2021-07-17T11:19:17Z</time>
      </trkpt>
      <trkpt lat="48.44817" lon="2.75481">
        <ele>48.7</ele>
        <time>2021-07-17T11:19:22Z</time>
      </trkpt>
      <trkpt lat="48.44806" lon="2.75491">
        <ele>48.9</ele>
        <time>2021-07-17T11:19:47Z</time>
      </trkpt>
      <trkpt lat="48.44797" lon="2.75502">
        <ele>49.1</ele>
        <time>2021-07-17T11:19:52Z</time>
      </trkpt>
      <trkpt lat="48.44808" lon="2.75473">
        <ele>48.2</ele>
        <time>2021-07-17T11:19:58Z</time>
      </trkpt>
      <trkpt lat="48.44808" lon="2.75475">
        <ele>48.3</ele>
        <time>2021-07-17T11:20:17Z</time>
      </trkpt>
      <trkpt lat="48.4481" lon="2.75485">
        <ele>48.8</ele>
        <time>2021-07-17T11:20:26Z</time>
      </trkpt>
      <trkpt lat="48.44811" lon="2.75485">
        <ele>48.8</ele>
        <time>2021-07-17T11:20:47Z</time>
      </trkpt>
      <trkpt lat="48.44812" lon="2.7548">
        <ele>48.5</ele>
        <time>2021-07-17T11:20:52Z</time>
      </trkpt>
      <trkpt lat="48.44812" lon="2.75487">
        <ele>48.9</ele>
        <time>2021-07-17T11:21:17Z</time>
      </trkpt>
      <trkpt lat="48.44839" lon="2.75473">
        <ele>48.4</ele>
        <time>2021-07-17T11:21:21Z</time>
      </trkpt>
      <trkpt lat="48.44807" lon="2.75477">
        <ele>48.3</ele>
        <time>2021-07-17T11:21:26Z</time>
      </trkpt>
      <trkpt lat="48.44808" lon="2.75476">
        <ele>48.3</ele>
        <time>2021-07-17T11:21:47Z</time>
      </trkpt>
      <trkpt lat="48.44794" lon="2.75485">
        <ele>48.5</ele>
        <time>2021-07-17T11:21:52Z</time>
      </trkpt>
      <trkpt lat="48.448" lon="2.75483">
        <ele>48.5</ele>
        <time>2021-07-17T11:22:17Z</time>
      </trkpt>
      <trkpt lat="48.4482" lon="2.75468">
        <ele>48</ele>
        <time>2021-07-17T11:22:21Z</time>
      </trkpt>
      <trkpt lat="48.44801" lon="2.75491">
        <ele>48.9</ele>
        <time>2021-07-17T11:22:26Z</time>
      </trkpt>
      <trkpt lat="48.44803" lon="2.7549">
        <ele>48.8</ele>
        <time>2021-07-17T11:22:47Z</time>
      </trkpt>
      <trkpt lat="48.44803" lon="2.75488">
        <ele>48.8</ele>
        <time>2021-07-17T11:22:52Z</time>
      </trkpt>
      <trkpt lat="48.44806" lon="2.75481">
        <ele>48.5</ele>
        <time>2021-07-17T11:23:17Z</time>
      </trkpt>
      <trkpt lat="48.44817" lon="2.75485">
        <ele>48.9</ele>
        <time>2021-07-17T11:23:30Z</time>
      </trkpt>
      <trkpt lat="48.44825" lon="2.75469">
        <ele>48.1</ele>
        <time>2021-07-17T11:23:47Z</time>
      </trkpt>
      <trkpt lat="48.44811" lon="2.75468">
        <ele>47.9</ele>
        <time>2021-07-17T11:23:53Z</time>
      </trkpt>
      <trkpt lat="48.44813" lon="2.75477">
        <ele>48.4</ele>
        <time>2021-07-17T11:24:17Z</time>
      </trkpt>
      <trkpt lat="48.44792" lon="2.75491">
        <ele>48.7</ele>
        <time>2021-07-17T11:24:23Z</time>
      </trkpt>
      <trkpt lat="48.44811" lon="2.75483">
        <ele>48.6</ele>
        <time>2021-07-17T11:24:28Z</time>
      </trkpt>
      <trkpt lat="48.44803" lon="2.75488">
        <ele>48.7</ele>
        <time>2021-07-17T11:24:47Z</time>
      </trkpt>
      <trkpt lat="48.44796" lon="2.75485">
        <ele>48.5</ele>
        <time>2021-07-17T11:24:53Z</time>
      </trkpt>
      <trkpt lat="48.44817" lon="2.75486">
        <ele>48.9</ele>
        <time>2021-07-17T11:25:03Z</time>
      </trkpt>
      <trkpt lat="48.44817" lon="2.75485">
        <ele>48.9</ele>
        <time>2021-07-17T11:25:18Z</time>
      </trkpt>
      <trkpt lat="48.44817" lon="2.75485">
        <ele>48.9</ele>
        <time>2021-07-17T11:25:19Z</time>
      </trkpt>
      <trkpt lat="48.44813" lon="2.75475">
        <ele>48.3</ele>
        <time>2021-07-17T11:25:48Z</time>
      </trkpt>
      <trkpt lat="48.44812" lon="2.75474">
        <ele>48.3</ele>
        <time>2021-07-17T11:25:49Z</time>
      </trkpt>
      <trkpt lat="48.44813" lon="2.75477">
        <ele>48.4</ele>
        <time>2021-07-17T11:26:18Z</time>
      </trkpt>
      <trkpt lat="48.44813" lon="2.75477">
        <ele>48.4</ele>
        <time>2021-07-17T11:26:19Z</time>
      </trkpt>
      <trkpt lat="48.44815" lon="2.75477">
        <ele>48.4</ele>
        <time>2021-07-17T11:26:48Z</time>
      </trkpt>
      <trkpt lat="48.44815" lon="2.75477">
        <ele>48.4</ele>
        <time>2021-07-17T11:26:49Z</time>
      </trkpt>
      <trkpt lat="48.44811" lon="2.75474">
        <ele>48.2</ele>
        <time>2021-07-17T11:27:18Z</time>
      </trkpt>
      <trkpt lat="48.44811" lon="2.75475">
        <ele>48.3</ele>
        <time>2021-07-17T11:27:19Z</time>
      </trkpt>
      <trkpt lat="48.44811" lon="2.75472">
        <ele>48.1</ele>
        <time>2021-07-17T11:27:48Z</time>
      </trkpt>
      <trkpt lat="48.44811" lon="2.75472">
        <ele>48.1</ele>
        <time>2021-07-17T11:27:49Z</time>
      </trkpt>
      <trkpt lat="48.44809" lon="2.7547">
        <ele>48</ele>
        <time>2021-07-17T11:28:18Z</time>
      </trkpt>
      <trkpt lat="48.44809" lon="2.7547">
        <ele>48</ele>
        <time>2021-07-17T11:28:19Z</time>
      </trkpt>
      <trkpt lat="48.44809" lon="2.75471">
        <ele>48.1</ele>
        <time>2021-07-17T11:28:48Z</time>
      </trkpt>
      <trkpt lat="48.44809" lon="2.75471">
        <ele>48.1</ele>
        <time>2021-07-17T11:28:49Z</time>
      </trkpt>
      <trkpt lat="48.44809" lon="2.7547">
        <ele>48.1</ele>
        <time>2021-07-17T11:29:18Z</time>
      </trkpt>
      <trkpt lat="48.44809" lon="2.7547">
        <ele>48.1</ele>
        <time>2021-07-17T11:29:19Z</time>
      </trkpt>
      <trkpt lat="48.44809" lon="2.75472">
        <ele>48.1</ele>
        <time>2021-07-17T11:29:48Z</time>
      </trkpt>
      <trkpt lat="48.44809" lon="2.75472">
        <ele>48.1</ele>
        <time>2021-07-17T11:29:49Z</time>
      </trkpt>
      <trkpt lat="48.44809" lon="2.75472">
        <ele>48.1</ele>
        <time>2021-07-17T11:30:18Z</time>
      </trkpt>
      <trkpt lat="48.44809" lon="2.75472">
        <ele>48.1</ele>
        <time>2021-07-17T11:30:19Z</time>
      </trkpt>
      <trkpt lat="48.44809" lon="2.75472">
        <ele>48.1</ele>
        <time>2021-07-17T11:30:48Z</time>
      </trkpt>
      <trkpt lat="48.44809" lon="2.75472">
        <ele>48.1</ele>
        <time>2021-07-17T11:30:49Z</time>
      </trkpt>
      <trkpt lat="48.44809" lon="2.75472">
        <ele>48.1</ele>
        <time>2021-07-17T11:31:18Z</time>
      </trkpt>
      <trkpt lat="48.44809" lon="2.75472">
        <ele>48.1</ele>
        <time>2021-07-17T11:31:19Z</time>
      </trkpt>
      <trkpt lat="48.44808" lon="2.75473">
        <ele>48.2</ele>
        <time>2021-07-17T11:31:48Z</time>
      </trkpt>
      <trkpt lat="48.44808" lon="2.75473">
        <ele>48.2</ele>
        <time>2021-07-17T11:31:49Z</time>
      </trkpt>
      <trkpt lat="48.44807" lon="2.75473">
        <ele>48.2</ele>
        <time>2021-07-17T11:32:18Z</time>
      </trkpt>
      <trkpt lat="48.44807" lon="2.75473">
        <ele>48.2</ele>
        <time>2021-07-17T11:32:19Z</time>
      </trkpt>
      <trkpt lat="48.44809" lon="2.75471">
        <ele>48.1</ele>
        <time>2021-07-17T11:32:48Z</time>
      </trkpt>
      <trkpt lat="48.44809" lon="2.7547">
        <ele>48</ele>
        <time>2021-07-17T11:32:49Z</time>
      </trkpt>
      <trkpt lat="48.44811" lon="2.7547">
        <ele>48</ele>
        <time>2021-07-17T11:33:18Z</time>
      </trkpt>
      <trkpt lat="48.44811" lon="2.7547">
        <ele>48</ele>
        <time>2021-07-17T11:33:19Z</time>
      </trkpt>
      <trkpt lat="48.44811" lon="2.7547">
        <ele>48</ele>
        <time>2021-07-17T11:33:48Z</time>
      </trkpt>
      <trkpt lat="48.44811" lon="2.7547">
        <ele>48</ele>
        <time>2021-07-17T11:33:49Z</time>
      </trkpt>
      <trkpt lat="48.44811" lon="2.75469">
        <ele>48</ele>
        <time>2021-07-17T11:34:18Z</time>
      </trkpt>
      <trkpt lat="48.44812" lon="2.75468">
        <ele>48</ele>
        <time>2021-07-17T11:34:19Z</time>
      </trkpt>
      <trkpt lat="48.44812" lon="2.75468">
        <ele>48</ele>
        <time>2021-07-17T11:34:48Z</time>
      </trkpt>
      <trkpt lat="48.44812" lon="2.75468">
        <ele>48</ele>
        <time>2021-07-17T11:34:49Z</time>
      </trkpt>
      <trkpt lat="48.44813" lon="2.75469">
        <ele>48</ele>
        <time>2021-07-17T11:35:18Z</time>
      </trkpt>
      <trkpt lat="48.44813" lon="2.75469">
        <ele>48</ele>
        <time>2021-07-17T11:35:19Z</time>
      </trkpt>
      <trkpt lat="48.44812" lon="2.75469">
        <ele>48</ele>
        <time>2021-07-17T11:35:48Z</time>
      </trkpt>
      <trkpt lat="48.44812" lon="2.75469">
        <ele>48</ele>
        <time>2021-07-17T11:35:49Z</time>
      </trkpt>
      <trkpt lat="48.44812" lon="2.75469">
        <ele>48</ele>
        <time>2021-07-17T11:36:18Z</time>
      </trkpt>
      <trkpt lat="48.44806" lon="2.75456">
        <ele>47.4</ele>
        <time>2021-07-17T11:36:24Z</time>
      </trkpt>
      <trkpt lat="48.44816" lon="2.75484">
        <ele>48.8</ele>
        <time>2021-07-17T11:36:29Z</time>
      </trkpt>
      <trkpt lat="48.44815" lon="2.75483">
        <ele>48.7</ele>
        <time>2021-07-17T11:36:48Z</time>
      </trkpt>
      <trkpt lat="48.44808" lon="2.75467">
        <ele>47.9</ele>
        <time>2021-07-17T11:36:53Z</time>
      </trkpt>
      <trkpt lat="48.44817" lon="2.75497">
        <ele>49.4</ele>
        <time>2021-07-17T11:36:58Z</time>
      </trkpt>
      <trkpt lat="48.44818" lon="2.75478">
        <ele>48.5</ele>
        <time>2021-07-17T11:37:18Z</time>
      </trkpt>
      <trkpt lat="48.44811" lon="2.75475">
        <ele>48.3</ele>
        <time>2021-07-17T11:37:24Z</time>
      </trkpt>
      <trkpt lat="48.44808" lon="2.75472">
        <ele>48.1</ele>
        <time>2021-07-17T11:37:48Z</time>
      </trkpt>
      <trkpt lat="48.44809" lon="2.75476">
        <ele>48.3</ele>
        <time>2021-07-17T11:37:53Z</time>
      </trkpt>
      <trkpt lat="48.44826" lon="2.75457">
        <ele>47.4</ele>
        <time>2021-07-17T11:38:00Z</time>
      </trkpt>
      <trkpt lat="48.44825" lon="2.75459">
        <ele>47.5</ele>
        <time>2021-07-17T11:38:18Z</time>
      </trkpt>
      <trkpt lat="48.44825" lon="2.7546">
        <ele>47.6</ele>
        <time>2021-07-17T11:38:23Z</time>
      </trkpt>
      <trkpt lat="48.44816" lon="2.75486">
        <ele>48.9</ele>
        <time>2021-07-17T11:38:30Z</time>
      </trkpt>
      <trkpt lat="48.44816" lon="2.75485">
        <ele>48.9</ele>
        <time>2021-07-17T11:38:48Z</time>
      </trkpt>
      <trkpt lat="48.44812" lon="2.75489">
        <ele>49</ele>
        <time>2021-07-17T11:38:54Z</time>
      </trkpt>
      <trkpt lat="48.4481" lon="2.75488">
        <ele>48.9</ele>
        <time>2021-07-17T11:39:18Z</time>
      </trkpt>
      <trkpt lat="48.44807" lon="2.75485">
        <ele>48.7</ele>
        <time>2021-07-17T11:39:23Z</time>
      </trkpt>
      <trkpt lat="48.4481" lon="2.75485">
        <ele>48.8</ele>
        <time>2021-07-17T11:39:48Z</time>
      </trkpt>
      <trkpt lat="48.44811" lon="2.75487">
        <ele>48.9</ele>
        <time>2021-07-17T11:39:53Z</time>
      </trkpt>
      <trkpt lat="48.44842" lon="2.75455">
        <ele>47.5</ele>
        <time>2021-07-17T11:40:00Z</time>
      </trkpt>
      <trkpt lat="48.44828" lon="2.75468">
        <ele>48.1</ele>
        <time>2021-07-17T11:40:18Z</time>
      </trkpt>
      <trkpt lat="48.44819" lon="2.75485">
        <ele>48.9</ele>
        <time>2021-07-17T11:40:24Z</time>
      </trkpt>
      <trkpt lat="48.44819" lon="2.75474">
        <ele>48.3</ele>
        <time>2021-07-17T11:40:48Z</time>
      </trkpt>
      <trkpt lat="48.4482" lon="2.75455">
        <ele>47.3</ele>
        <time>2021-07-17T11:40:53Z</time>
      </trkpt>
      <trkpt lat="48.44796" lon="2.75483">
        <ele>48.5</ele>
        <time>2021-07-17T11:40:58Z</time>
      </trkpt>
      <trkpt lat="48.44811" lon="2.75481">
        <ele>48.6</ele>
        <time>2021-07-17T11:41:18Z</time>
      </trkpt>
      <trkpt lat="48.44791" lon="2.75513">
        <ele>48.9</ele>
        <time>2021-07-17T11:41:24Z</time>
      </trkpt>
      <trkpt lat="48.44809" lon="2.75488">
        <ele>48.9</ele>
        <time>2021-07-17T11:41:29Z</time>
      </trkpt>
      <trkpt lat="48.44819" lon="2.75485">
        <ele>48.9</ele>
        <time>2021-07-17T11:41:48Z</time>
      </trkpt>
      <trkpt lat="48.44817" lon="2.75483">
        <ele>48.8</ele>
        <time>2021-07-17T11:41:54Z</time>
      </trkpt>
      <trkpt lat="48.44825" lon="2.7547">
        <ele>48.1</ele>
        <time>2021-07-17T11:42:18Z</time>
      </trkpt>
      <trkpt lat="48.44825" lon="2.755">
        <ele>49.8</ele>
        <time>2021-07-17T11:42:25Z</time>
      </trkpt>
      <trkpt lat="48.44808" lon="2.7549">
        <ele>49</ele>
        <time>2021-07-17T11:42:48Z</time>
      </trkpt>
      <trkpt lat="48.44809" lon="2.75491">
        <ele>49</ele>
        <time>2021-07-17T11:42:55Z</time>
      </trkpt>
      <trkpt lat="48.44797" lon="2.75496">
        <ele>49</ele>
        <time>2021-07-17T11:43:18Z</time>
      </trkpt>
      <trkpt lat="48.44811" lon="2.75475">
        <ele>48.3</ele>
        <time>2021-07-17T11:43:31Z</time>
      </trkpt>
      <trkpt lat="48.44803" lon="2.755">
        <ele>49.3</ele>
        <time>2021-07-17T11:43:39Z</time>
      </trkpt>
      <trkpt lat="48.44802" lon="2.75495">
        <ele>49</ele>
        <time>2021-07-17T11:44:03Z</time>
      </trkpt>
      <trkpt lat="48.44802" lon="2.75495">
        <ele>49</ele>
        <time>2021-07-17T11:44:05Z</time>
      </trkpt>
      <trkpt lat="48.44802" lon="2.75495">
        <ele>49</ele>
        <time>2021-07-17T11:44:34Z</time>
      </trkpt>
      <trkpt lat="48.44802" lon="2.75495">
        <ele>49</ele>
        <time>2021-07-17T11:44:35Z</time>
      </trkpt>
      <trkpt lat="48.44802" lon="2.75495">
        <ele>49</ele>
        <time>2021-07-17T11:45:04Z</time>
      </trkpt>
      <trkpt lat="48.44802" lon="2.75495">
        <ele>49</ele>
        <time>2021-07-17T11:45:05Z</time>
      </trkpt>
      <trkpt lat="48.44807" lon="2.75492">
        <ele>49</ele>
        <time>2021-07-17T11:45:34Z</time>
      </trkpt>
      <trkpt lat="48.44807" lon="2.75492">
        <ele>49</ele>
        <time>2021-07-17T11:45:35Z</time>
      </trkpt>
      <trkpt lat="48.44807" lon="2.75492">
        <ele>49</ele>
        <time>2021-07-17T11:46:04Z</time>
      </trkpt>
      <trkpt lat="48.44807" lon="2.75492">
        <ele>49</ele>
        <time>2021-07-17T11:46:05Z</time>
      </trkpt>
      <trkpt lat="48.44805" lon="2.75484">
        <ele>48.6</ele>
        <time>2021-07-17T11:46:34Z</time>
      </trkpt>
      <trkpt lat="48.44805" lon="2.75484">
        <ele>48.6</ele>
        <time>2021-07-17T11:46:35Z</time>
      </trkpt>
      <trkpt lat="48.44805" lon="2.75484">
        <ele>48.6</ele>
        <time>2021-07-17T11:47:04Z</time>
      </trkpt>
      <trkpt lat="48.44805" lon="2.75484">
        <ele>48.6</ele>
        <time>2021-07-17T11:47:05Z</time>
      </trkpt>
      <trkpt lat="48.44805" lon="2.75484">
        <ele>48.6</ele>
        <time>2021-07-17T11:47:34Z</time>
      </trkpt>
      <trkpt lat="48.44805" lon="2.75484">
        <ele>48.6</ele>
        <time>2021-07-17T11:47:35Z</time>
      </trkpt>
      <trkpt lat="48.44805" lon="2.75484">
        <ele>48.6</ele>
        <time>2021-07-17T11:48:04Z</time>
      </trkpt>
      <trkpt lat="48.44805" lon="2.75484">
        <ele>48.6</ele>
        <time>2021-07-17T11:48:05Z</time>
      </trkpt>
      <trkpt lat="48.44806" lon="2.75484">
        <ele>48.6</ele>
        <time>2021-07-17T11:48:34Z</time>
      </trkpt>
      <trkpt lat="48.44806" lon="2.75484">
        <ele>48.6</ele>
        <time>2021-07-17T11:48:35Z</time>
      </trkpt>
      <trkpt lat="48.44806" lon="2.75485">
        <ele>48.7</ele>
        <time>2021-07-17T11:49:04Z</time>
      </trkpt>
      <trkpt lat="48.44806" lon="2.75485">
        <ele>48.7</ele>
        <time>2021-07-17T11:49:05Z</time>
      </trkpt>
      <trkpt lat="48.44806" lon="2.75485">
        <ele>48.7</ele>
        <time>2021-07-17T11:49:34Z</time>
      </trkpt>
      <trkpt lat="48.44806" lon="2.75485">
        <ele>48.7</ele>
        <time>2021-07-17T11:49:35Z</time>
      </trkpt>
      <trkpt lat="48.44809" lon="2.75479">
        <ele>48.5</ele>
        <time>2021-07-17T11:50:04Z</time>
      </trkpt>
      <trkpt lat="48.44809" lon="2.75478">
        <ele>48.4</ele>
        <time>2021-07-17T11:50:05Z</time>
      </trkpt>
      <trkpt lat="48.44812" lon="2.75476">
        <ele>48.4</ele>
        <time>2021-07-17T11:50:34Z</time>
      </trkpt>
      <trkpt lat="48.44813" lon="2.75476">
        <ele>48.3</ele>
        <time>2021-07-17T11:50:35Z</time>
      </trkpt>
      <trkpt lat="48.44814" lon="2.75478">
        <ele>48.5</ele>
        <time>2021-07-17T11:51:04Z</time>
      </trkpt>
      <trkpt lat="48.44814" lon="2.75478">
        <ele>48.5</ele>
        <time>2021-07-17T11:51:05Z</time>
      </trkpt>
      <trkpt lat="48.44812" lon="2.7547">
        <ele>48</ele>
        <time>2021-07-17T11:51:34Z</time>
      </trkpt>
      <trkpt lat="48.44812" lon="2.75469">
        <ele>48</ele>
        <time>2021-07-17T11:51:35Z</time>
      </trkpt>
      <trkpt lat="48.44813" lon="2.75468">
        <ele>48</ele>
        <time>2021-07-17T11:52:04Z</time>
      </trkpt>
      <trkpt lat="48.44812" lon="2.75468">
        <ele>48</ele>
        <time>2021-07-17T11:52:05Z</time>
      </trkpt>
      <trkpt lat="48.4481" lon="2.75479">
        <ele>48.5</ele>
        <time>2021-07-17T11:52:34Z</time>
      </trkpt>
      <trkpt lat="48.4481" lon="2.7548">
        <ele>48.5</ele>
        <time>2021-07-17T11:52:35Z</time>
      </trkpt>
      <trkpt lat="48.4481" lon="2.7548">
        <ele>48.5</ele>
        <time>2021-07-17T11:53:04Z</time>
      </trkpt>
      <trkpt lat="48.4481" lon="2.7548">
        <ele>48.5</ele>
        <time>2021-07-17T11:53:05Z</time>
      </trkpt>
      <trkpt lat="48.4481" lon="2.75479">
        <ele>48.5</ele>
        <time>2021-07-17T11:53:34Z</time>
      </trkpt>
      <trkpt lat="48.4481" lon="2.75479">
        <ele>48.5</ele>
        <time>2021-07-17T11:53:35Z</time>
      </trkpt>
      <trkpt lat="48.44812" lon="2.75479">
        <ele>48.5</ele>
        <time>2021-07-17T11:54:04Z</time>
      </trkpt>
      <trkpt lat="48.44811" lon="2.75479">
        <ele>48.5</ele>
        <time>2021-07-17T11:54:05Z</time>
      </trkpt>
      <trkpt lat="48.44814" lon="2.75477">
        <ele>48.4</ele>
        <time>2021-07-17T11:54:34Z</time>
      </trkpt>
      <trkpt lat="48.44814" lon="2.75477">
        <ele>48.4</ele>
        <time>2021-07-17T11:54:35Z</time>
      </trkpt>
      <trkpt lat="48.44814" lon="2.75467">
        <ele>47.9</ele>
        <time>2021-07-17T11:55:04Z</time>
      </trkpt>
      <trkpt lat="48.44814" lon="2.75467">
        <ele>47.9</ele>
        <time>2021-07-17T11:55:05Z</time>
      </trkpt>
      <trkpt lat="48.44814" lon="2.75472">
        <ele>48.2</ele>
        <time>2021-07-17T11:55:34Z</time>
      </trkpt>
      <trkpt lat="48.44815" lon="2.75473">
        <ele>48.2</ele>
        <time>2021-07-17T11:55:35Z</time>
      </trkpt>
      <trkpt lat="48.44813" lon="2.75473">
        <ele>48.2</ele>
        <time>2021-07-17T11:56:04Z</time>
      </trkpt>
      <trkpt lat="48.44812" lon="2.75463">
        <ele>47.7</ele>
        <time>2021-07-17T11:56:21Z</time>
      </trkpt>
      <trkpt lat="48.44809" lon="2.75466">
        <ele>47.9</ele>
        <time>2021-07-17T11:56:49Z</time>
      </trkpt>
      <trkpt lat="48.44805" lon="2.75477">
        <ele>48.3</ele>
        <time>2021-07-17T11:57:19Z</time>
      </trkpt>
      <trkpt lat="48.44809" lon="2.75434">
        <ele>46.4</ele>
        <time>2021-07-17T11:57:40Z</time>
      </trkpt>
      <trkpt lat="48.44811" lon="2.7544">
        <ele>46.6</ele>
        <time>2021-07-17T11:58:04Z</time>
      </trkpt>
      <trkpt lat="48.44802" lon="2.75491">
        <ele>48.9</ele>
        <time>2021-07-17T11:58:22Z</time>
      </trkpt>
      <trkpt lat="48.44805" lon="2.75493">
        <ele>49</ele>
        <time>2021-07-17T11:58:49Z</time>
      </trkpt>
      <trkpt lat="48.44808" lon="2.75507">
        <ele>49.5</ele>
        <time>2021-07-17T11:59:03Z</time>
      </trkpt>
      <trkpt lat="48.44812" lon="2.75493">
        <ele>49.2</ele>
        <time>2021-07-17T11:59:19Z</time>
      </trkpt>
      <trkpt lat="48.4481" lon="2.75454">
        <ele>47.3</ele>
        <time>2021-07-17T11:59:40Z</time>
      </trkpt>
      <trkpt lat="48.44811" lon="2.75457">
        <ele>47.4</ele>
        <time>2021-07-17T12:00:04Z</time>
      </trkpt>
      <trkpt lat="48.44806" lon="2.75446">
        <ele>46.9</ele>
        <time>2021-07-17T12:00:21Z</time>
      </trkpt>
      <trkpt lat="48.44811" lon="2.75446">
        <ele>46.9</ele>
        <time>2021-07-17T12:00:49Z</time>
      </trkpt>
      <trkpt lat="48.44813" lon="2.75464">
        <ele>47.8</ele>
        <time>2021-07-17T12:01:11Z</time>
      </trkpt>
      <trkpt lat="48.44814" lon="2.75465">
        <ele>47.8</ele>
        <time>2021-07-17T12:01:34Z</time>
      </trkpt>
      <trkpt lat="48.44837" lon="2.75498">
        <ele>49.8</ele>
        <time>2021-07-17T12:01:49Z</time>
      </trkpt>
      <trkpt lat="48.44823" lon="2.75496">
        <ele>49.5</ele>
        <time>2021-07-17T12:02:04Z</time>
      </trkpt>
      <trkpt lat="48.44804" lon="2.75465">
        <ele>47.8</ele>
        <time>2021-07-17T12:02:23Z</time>
      </trkpt>
      <trkpt lat="48.44803" lon="2.75465">
        <ele>47.8</ele>
        <time>2021-07-17T12:02:49Z</time>
      </trkpt>
      <trkpt lat="48.44795" lon="2.75466">
        <ele>47.8</ele>
        <time>2021-07-17T12:03:06Z</time>
      </trkpt>
      <trkpt lat="48.44832" lon="2.75483">
        <ele>49</ele>
        <time>2021-07-17T12:03:11Z</time>
      </trkpt>
      <trkpt lat="48.4483" lon="2.75485">
        <ele>49</ele>
        <time>2021-07-17T12:03:34Z</time>
      </trkpt>
      <trkpt lat="48.44807" lon="2.75482">
        <ele>48.6</ele>
        <time>2021-07-17T12:03:50Z</time>
      </trkpt>
      <trkpt lat="48.44806" lon="2.75481">
        <ele>48.5</ele>
        <time>2021-07-17T12:04:04Z</time>
      </trkpt>
      <trkpt lat="48.44802" lon="2.75478">
        <ele>48.3</ele>
        <time>2021-07-17T12:04:17Z</time>
      </trkpt>
      <trkpt lat="48.44779" lon="2.75484">
        <ele>48.2</ele>
        <time>2021-07-17T12:04:27Z</time>
      </trkpt>
      <trkpt lat="48.44803" lon="2.75477">
        <ele>48.3</ele>
        <time>2021-07-17T12:04:46Z</time>
      </trkpt>
      <trkpt lat="48.44813" lon="2.75473">
        <ele>48.2</ele>
        <time>2021-07-17T12:05:04Z</time>
      </trkpt>
      <trkpt lat="48.44845" lon="2.7547">
        <ele>48.3</ele>
        <time>2021-07-17T12:05:12Z</time>
      </trkpt>
      <trkpt lat="48.44804" lon="2.75464">
        <ele>47.7</ele>
        <time>2021-07-17T12:05:18Z</time>
      </trkpt>
      <trkpt lat="48.44798" lon="2.75469">
        <ele>47.9</ele>
        <time>2021-07-17T12:05:34Z</time>
      </trkpt>
      <trkpt lat="48.44833" lon="2.75432">
        <ele>45.9</ele>
        <time>2021-07-17T12:05:43Z</time>
      </trkpt>
      <trkpt lat="48.44803" lon="2.7547">
        <ele>48</ele>
        <time>2021-07-17T12:05:48Z</time>
      </trkpt>
      <trkpt lat="48.44793" lon="2.75465">
        <ele>47.8</ele>
        <time>2021-07-17T12:06:04Z</time>
      </trkpt>
      <trkpt lat="48.44795" lon="2.75467">
        <ele>47.8</ele>
        <time>2021-07-17T12:06:06Z</time>
      </trkpt>
      <trkpt lat="48.44806" lon="2.75466">
        <ele>47.8</ele>
        <time>2021-07-17T12:06:35Z</time>
      </trkpt>
      <trkpt lat="48.44806" lon="2.75463">
        <ele>47.7</ele>
        <time>2021-07-17T12:06:36Z</time>
      </trkpt>
      <trkpt lat="48.44795" lon="2.7544">
        <ele>46.8</ele>
        <time>2021-07-17T12:06:54Z</time>
      </trkpt>
      <trkpt lat="48.44785" lon="2.75417">
        <ele>46.2</ele>
        <time>2021-07-17T12:07:02Z</time>
      </trkpt>
      <trkpt lat="48.44772" lon="2.75394">
        <ele>45.9</ele>
        <time>2021-07-17T12:07:12Z</time>
      </trkpt>
      <trkpt lat="48.44758" lon="2.75372">
        <ele>45.4</ele>
        <time>2021-07-17T12:07:20Z</time>
      </trkpt>
      <trkpt lat="48.44747" lon="2.75347">
        <ele>44.5</ele>
        <time>2021-07-17T12:07:27Z</time>
      </trkpt>
      <trkpt lat="48.44735" lon="2.75324">
        <ele>44.6</ele>
        <time>2021-07-17T12:07:37Z</time>
      </trkpt>
      <trkpt lat="48.44726" lon="2.753">
        <ele>45.7</ele>
        <time>2021-07-17T12:07:49Z</time>
      </trkpt>
      <trkpt lat="48.44714" lon="2.75278">
        <ele>46.5</ele>
        <time>2021-07-17T12:07:59Z</time>
      </trkpt>
      <trkpt lat="48.447" lon="2.75259">
        <ele>47.1</ele>
        <time>2021-07-17T12:08:10Z</time>
      </trkpt>
      <trkpt lat="48.44693" lon="2.75229">
        <ele>49.3</ele>
        <time>2021-07-17T12:08:17Z</time>
      </trkpt>
      <trkpt lat="48.44683" lon="2.75203">
        <ele>51.4</ele>
        <time>2021-07-17T12:08:31Z</time>
      </trkpt>
      <trkpt lat="48.44663" lon="2.75202">
        <ele>50.4</ele>
        <time>2021-07-17T12:08:40Z</time>
      </trkpt>
      <trkpt lat="48.44645" lon="2.7519">
        <ele>50.4</ele>
        <time>2021-07-17T12:08:48Z</time>
      </trkpt>
      <trkpt lat="48.4463" lon="2.7517">
        <ele>50.7</ele>
        <time>2021-07-17T12:08:56Z</time>
      </trkpt>
      <trkpt lat="48.44617" lon="2.75149">
        <ele>51.3</ele>
        <time>2021-07-17T12:09:01Z</time>
      </trkpt>
      <trkpt lat="48.44601" lon="2.75134">
        <ele>51</ele>
        <time>2021-07-17T12:09:07Z</time>
      </trkpt>
      <trkpt lat="48.44582" lon="2.7512">
        <ele>50.2</ele>
        <time>2021-07-17T12:09:12Z</time>
      </trkpt>
      <trkpt lat="48.44564" lon="2.75105">
        <ele>50.1</ele>
        <time>2021-07-17T12:09:17Z</time>
      </trkpt>
      <trkpt lat="48.44548" lon="2.7509">
        <ele>50.1</ele>
        <time>2021-07-17T12:09:22Z</time>
      </trkpt>
      <trkpt lat="48.44532" lon="2.75075">
        <ele>50.7</ele>
        <time>2021-07-17T12:09:27Z</time>
      </trkpt>
      <trkpt lat="48.44513" lon="2.75061">
        <ele>51.4</ele>
        <time>2021-07-17T12:09:34Z</time>
      </trkpt>
      <trkpt lat="48.44496" lon="2.75048">
        <ele>51.4</ele>
        <time>2021-07-17T12:09:39Z</time>
      </trkpt>
      <trkpt lat="48.4448" lon="2.75031">
        <ele>51.6</ele>
        <time>2021-07-17T12:09:45Z</time>
      </trkpt>
      <trkpt lat="48.44463" lon="2.75018">
        <ele>51.2</ele>
        <time>2021-07-17T12:09:50Z</time>
      </trkpt>
      <trkpt lat="48.44447" lon="2.74999">
        <ele>51.5</ele>
        <time>2021-07-17T12:09:55Z</time>
      </trkpt>
      <trkpt lat="48.44431" lon="2.74983">
        <ele>52</ele>
        <time>2021-07-17T12:10:01Z</time>
      </trkpt>
      <trkpt lat="48.44416" lon="2.74968">
        <ele>53</ele>
        <time>2021-07-17T12:10:08Z</time>
      </trkpt>
      <trkpt lat="48.44397" lon="2.74957">
        <ele>53.2</ele>
        <time>2021-07-17T12:10:13Z</time>
      </trkpt>
      <trkpt lat="48.44371" lon="2.74934">
        <ele>54.5</ele>
        <time>2021-07-17T12:10:18Z</time>
      </trkpt>
      <trkpt lat="48.44354" lon="2.74915">
        <ele>56.1</ele>
        <time>2021-07-17T12:10:23Z</time>
      </trkpt>
      <trkpt lat="48.44339" lon="2.749">
        <ele>57.9</ele>
        <time>2021-07-17T12:10:28Z</time>
      </trkpt>
      <trkpt lat="48.4432" lon="2.74884">
        <ele>58.7</ele>
        <time>2021-07-17T12:10:35Z</time>
      </trkpt>
      <trkpt lat="48.44304" lon="2.74861">
        <ele>60.6</ele>
        <time>2021-07-17T12:10:40Z</time>
      </trkpt>
      <trkpt lat="48.44284" lon="2.74848">
        <ele>60.1</ele>
        <time>2021-07-17T12:10:45Z</time>
      </trkpt>
      <trkpt lat="48.44268" lon="2.7483">
        <ele>60.5</ele>
        <time>2021-07-17T12:10:50Z</time>
      </trkpt>
      <trkpt lat="48.44247" lon="2.74821">
        <ele>59.6</ele>
        <time>2021-07-17T12:10:55Z</time>
      </trkpt>
      <trkpt lat="48.44231" lon="2.74807">
        <ele>61</ele>
        <time>2021-07-17T12:11:00Z</time>
      </trkpt>
      <trkpt lat="48.44211" lon="2.74803">
        <ele>59.7</ele>
        <time>2021-07-17T12:11:05Z</time>
      </trkpt>
      <trkpt lat="48.44193" lon="2.74792">
        <ele>59.2</ele>
        <time>2021-07-17T12:11:10Z</time>
      </trkpt>
      <trkpt lat="48.44176" lon="2.74777">
        <ele>59.1</ele>
        <time>2021-07-17T12:11:16Z</time>
      </trkpt>
      <trkpt lat="48.44157" lon="2.74767">
        <ele>58</ele>
        <time>2021-07-17T12:11:21Z</time>
      </trkpt>
      <trkpt lat="48.44136" lon="2.7475">
        <ele>57.8</ele>
        <time>2021-07-17T12:11:26Z</time>
      </trkpt>
      <trkpt lat="48.44119" lon="2.74734">
        <ele>59.2</ele>
        <time>2021-07-17T12:11:34Z</time>
      </trkpt>
      <trkpt lat="48.441" lon="2.74711">
        <ele>61.5</ele>
        <time>2021-07-17T12:11:39Z</time>
      </trkpt>
      <trkpt lat="48.4408" lon="2.74705">
        <ele>60.1</ele>
        <time>2021-07-17T12:11:44Z</time>
      </trkpt>
      <trkpt lat="48.44062" lon="2.74696">
        <ele>59.4</ele>
        <time>2021-07-17T12:11:49Z</time>
      </trkpt>
      <trkpt lat="48.44037" lon="2.74678">
        <ele>58.2</ele>
        <time>2021-07-17T12:11:54Z</time>
      </trkpt>
      <trkpt lat="48.4401" lon="2.74663">
        <ele>55.6</ele>
        <time>2021-07-17T12:11:59Z</time>
      </trkpt>
      <trkpt lat="48.43986" lon="2.7465">
        <ele>55.1</ele>
        <time>2021-07-17T12:12:04Z</time>
      </trkpt>
      <trkpt lat="48.43969" lon="2.74637">
        <ele>55.9</ele>
        <time>2021-07-17T12:12:09Z</time>
      </trkpt>
      <trkpt lat="48.43948" lon="2.74626">
        <ele>55.2</ele>
        <time>2021-07-17T12:12:14Z</time>
      </trkpt>
      <trkpt lat="48.43921" lon="2.74615">
        <ele>53.5</ele>
        <time>2021-07-17T12:12:19Z</time>
      </trkpt>
      <trkpt lat="48.43903" lon="2.74609">
        <ele>52.8</ele>
        <time>2021-07-17T12:12:24Z</time>
      </trkpt>
      <trkpt lat="48.43877" lon="2.74597">
        <ele>52</ele>
        <time>2021-07-17T12:12:29Z</time>
      </trkpt>
      <trkpt lat="48.43857" lon="2.74588">
        <ele>50.7</ele>
        <time>2021-07-17T12:12:35Z</time>
      </trkpt>
      <trkpt lat="48.43835" lon="2.74578">
        <ele>49.5</ele>
        <time>2021-07-17T12:12:40Z</time>
      </trkpt>
      <trkpt lat="48.43816" lon="2.74562">
        <ele>52.4</ele>
        <time>2021-07-17T12:12:45Z</time>
      </trkpt>
      <trkpt lat="48.43797" lon="2.74551">
        <ele>53.5</ele>
        <time>2021-07-17T12:12:50Z</time>
      </trkpt>
      <trkpt lat="48.43775" lon="2.74547">
        <ele>52.6</ele>
        <time>2021-07-17T12:12:55Z</time>
      </trkpt>
      <trkpt lat="48.43757" lon="2.74537">
        <ele>52.6</ele>
        <time>2021-07-17T12:13:00Z</time>
      </trkpt>
      <trkpt lat="48.43728" lon="2.74527">
        <ele>52.4</ele>
        <time>2021-07-17T12:13:05Z</time>
      </trkpt>
      <trkpt lat="48.437" lon="2.74508">
        <ele>53</ele>
        <time>2021-07-17T12:13:10Z</time>
      </trkpt>
      <trkpt lat="48.43677" lon="2.74498">
        <ele>53</ele>
        <time>2021-07-17T12:13:15Z</time>
      </trkpt>
      <trkpt lat="48.43654" lon="2.74489">
        <ele>53.9</ele>
        <time>2021-07-17T12:13:20Z</time>
      </trkpt>
      <trkpt lat="48.43637" lon="2.7448">
        <ele>54.8</ele>
        <time>2021-07-17T12:13:25Z</time>
      </trkpt>
      <trkpt lat="48.43618" lon="2.74473">
        <ele>55.1</ele>
        <time>2021-07-17T12:13:32Z</time>
      </trkpt>
      <trkpt lat="48.43622" lon="2.74468">
        <ele>56.3</ele>
        <time>2021-07-17T12:13:50Z</time>
      </trkpt>
      <trkpt lat="48.43624" lon="2.74469">
        <ele>56.2</ele>
        <time>2021-07-17T12:13:51Z</time>
      </trkpt>
      <trkpt lat="48.43643" lon="2.74473">
        <ele>56.4</ele>
        <time>2021-07-17T12:13:56Z</time>
      </trkpt>
      <trkpt lat="48.43663" lon="2.74474">
        <ele>57.4</ele>
        <time>2021-07-17T12:14:05Z</time>
      </trkpt>
      <trkpt lat="48.43681" lon="2.74466">
        <ele>60.4</ele>
        <time>2021-07-17T12:14:14Z</time>
      </trkpt>
      <trkpt lat="48.43699" lon="2.74463">
        <ele>62.3</ele>
        <time>2021-07-17T12:14:23Z</time>
      </trkpt>
      <trkpt lat="48.43719" lon="2.74455">
        <ele>65.5</ele>
        <time>2021-07-17T12:14:32Z</time>
      </trkpt>
      <trkpt lat="48.43734" lon="2.74472">
        <ele>62.4</ele>
        <time>2021-07-17T12:14:46Z</time>
      </trkpt>
      <trkpt lat="48.43759" lon="2.74469">
        <ele>65.3</ele>
        <time>2021-07-17T12:14:51Z</time>
      </trkpt>
      <trkpt lat="48.4378" lon="2.74475">
        <ele>66.4</ele>
        <time>2021-07-17T12:15:02Z</time>
      </trkpt>
      <trkpt lat="48.43792" lon="2.74455">
        <ele>72.8</ele>
        <time>2021-07-17T12:15:19Z</time>
      </trkpt>
      <trkpt lat="48.43814" lon="2.74448">
        <ele>77</ele>
        <time>2021-07-17T12:15:29Z</time>
      </trkpt>
      <trkpt lat="48.43834" lon="2.74443">
        <ele>80.5</ele>
        <time>2021-07-17T12:15:39Z</time>
      </trkpt>
      <trkpt lat="48.43856" lon="2.74439">
        <ele>82.7</ele>
        <time>2021-07-17T12:15:47Z</time>
      </trkpt>
      <trkpt lat="48.43878" lon="2.74436">
        <ele>84.9</ele>
        <time>2021-07-17T12:16:02Z</time>
      </trkpt>
      <trkpt lat="48.43896" lon="2.7444">
        <ele>85.5</ele>
        <time>2021-07-17T12:16:12Z</time>
      </trkpt>
      <trkpt lat="48.43915" lon="2.74435">
        <ele>87.5</ele>
        <time>2021-07-17T12:16:24Z</time>
      </trkpt>
      <trkpt lat="48.43935" lon="2.74425">
        <ele>90.3</ele>
        <time>2021-07-17T12:16:30Z</time>
      </trkpt>
      <trkpt lat="48.43942" lon="2.74422">
        <ele>91.2</ele>
        <time>2021-07-17T12:16:50Z</time>
      </trkpt>
      <trkpt lat="48.43944" lon="2.74423">
        <ele>91.2</ele>
        <time>2021-07-17T12:16:51Z</time>
      </trkpt>
      <trkpt lat="48.43964" lon="2.74418">
        <ele>93.3</ele>
        <time>2021-07-17T12:16:58Z</time>
      </trkpt>
      <trkpt lat="48.43983" lon="2.74417">
        <ele>94.8</ele>
        <time>2021-07-17T12:17:04Z</time>
      </trkpt>
      <trkpt lat="48.44003" lon="2.74413">
        <ele>96.1</ele>
        <time>2021-07-17T12:17:09Z</time>
      </trkpt>
      <trkpt lat="48.44024" lon="2.74411">
        <ele>96.6</ele>
        <time>2021-07-17T12:17:17Z</time>
      </trkpt>
      <trkpt lat="48.44043" lon="2.74405">
        <ele>96.9</ele>
        <time>2021-07-17T12:17:29Z</time>
      </trkpt>
      <trkpt lat="48.44067" lon="2.74401">
        <ele>97.4</ele>
        <time>2021-07-17T12:17:36Z</time>
      </trkpt>
      <trkpt lat="48.44088" lon="2.74398">
        <ele>97.5</ele>
        <time>2021-07-17T12:17:44Z</time>
      </trkpt>
      <trkpt lat="48.44108" lon="2.74399">
        <ele>97.4</ele>
        <time>2021-07-17T12:17:57Z</time>
      </trkpt>
      <trkpt lat="48.44123" lon="2.74397">
        <ele>97.2</ele>
        <time>2021-07-17T12:18:20Z</time>
      </trkpt>
      <trkpt lat="48.44124" lon="2.74397">
        <ele>97.1</ele>
        <time>2021-07-17T12:18:21Z</time>
      </trkpt>
      <trkpt lat="48.44126" lon="2.74393">
        <ele>97.1</ele>
        <time>2021-07-17T12:18:50Z</time>
      </trkpt>
      <trkpt lat="48.44126" lon="2.74393">
        <ele>97.1</ele>
        <time>2021-07-17T12:18:51Z</time>
      </trkpt>
      <trkpt lat="48.44128" lon="2.74387">
        <ele>96.9</ele>
        <time>2021-07-17T12:19:20Z</time>
      </trkpt>
      <trkpt lat="48.44128" lon="2.74387">
        <ele>96.9</ele>
        <time>2021-07-17T12:19:21Z</time>
      </trkpt>
      <trkpt lat="48.44124" lon="2.74378">
        <ele>96.8</ele>
        <time>2021-07-17T12:19:50Z</time>
      </trkpt>
      <trkpt lat="48.44124" lon="2.74376">
        <ele>96.8</ele>
        <time>2021-07-17T12:19:51Z</time>
      </trkpt>
      <trkpt lat="48.44124" lon="2.74376">
        <ele>96.8</ele>
        <time>2021-07-17T12:20:20Z</time>
      </trkpt>
      <trkpt lat="48.44124" lon="2.74374">
        <ele>96.7</ele>
        <time>2021-07-17T12:20:21Z</time>
      </trkpt>
      <trkpt lat="48.44147" lon="2.74364">
        <ele>96.5</ele>
        <time>2021-07-17T12:20:26Z</time>
      </trkpt>
      <trkpt lat="48.44162" lon="2.74347">
        <ele>96.2</ele>
        <time>2021-07-17T12:20:33Z</time>
      </trkpt>
      <trkpt lat="48.44181" lon="2.74336">
        <ele>96.4</ele>
        <time>2021-07-17T12:20:41Z</time>
      </trkpt>
      <trkpt lat="48.44202" lon="2.74322">
        <ele>97.1</ele>
        <time>2021-07-17T12:20:48Z</time>
      </trkpt>
      <trkpt lat="48.44217" lon="2.74305">
        <ele>97.7</ele>
        <time>2021-07-17T12:20:56Z</time>
      </trkpt>
      <trkpt lat="48.44232" lon="2.7429">
        <ele>98.2</ele>
        <time>2021-07-17T12:21:07Z</time>
      </trkpt>
      <trkpt lat="48.44249" lon="2.74279">
        <ele>98.6</ele>
        <time>2021-07-17T12:21:13Z</time>
      </trkpt>
      <trkpt lat="48.4427" lon="2.74281">
        <ele>98.6</ele>
        <time>2021-07-17T12:21:22Z</time>
      </trkpt>
      <trkpt lat="48.44296" lon="2.74287">
        <ele>98.6</ele>
        <time>2021-07-17T12:21:29Z</time>
      </trkpt>
      <trkpt lat="48.44316" lon="2.74288">
        <ele>98.5</ele>
        <time>2021-07-17T12:21:35Z</time>
      </trkpt>
      <trkpt lat="48.44338" lon="2.74291">
        <ele>98.5</ele>
        <time>2021-07-17T12:21:43Z</time>
      </trkpt>
      <trkpt lat="48.44361" lon="2.74295">
        <ele>98.2</ele>
        <time>2021-07-17T12:21:48Z</time>
      </trkpt>
      <trkpt lat="48.44381" lon="2.74302">
        <ele>97.9</ele>
        <time>2021-07-17T12:21:54Z</time>
      </trkpt>
      <trkpt lat="48.44407" lon="2.74309">
        <ele>97.8</ele>
        <time>2021-07-17T12:21:59Z</time>
      </trkpt>
      <trkpt lat="48.44427" lon="2.74315">
        <ele>97.8</ele>
        <time>2021-07-17T12:22:06Z</time>
      </trkpt>
      <trkpt lat="48.44444" lon="2.74325">
        <ele>97.9</ele>
        <time>2021-07-17T12:22:13Z</time>
      </trkpt>
      <trkpt lat="48.44461" lon="2.74339">
        <ele>98</ele>
        <time>2021-07-17T12:22:21Z</time>
      </trkpt>
      <trkpt lat="48.44481" lon="2.74351">
        <ele>98.2</ele>
        <time>2021-07-17T12:22:27Z</time>
      </trkpt>
      <trkpt lat="48.44496" lon="2.74366">
        <ele>98.4</ele>
        <time>2021-07-17T12:22:34Z</time>
      </trkpt>
      <trkpt lat="48.44518" lon="2.7437">
        <ele>98.5</ele>
        <time>2021-07-17T12:22:39Z</time>
      </trkpt>
      <trkpt lat="48.44537" lon="2.74383">
        <ele>98.9</ele>
        <time>2021-07-17T12:22:46Z</time>
      </trkpt>
      <trkpt lat="48.44556" lon="2.7439">
        <ele>99.1</ele>
        <time>2021-07-17T12:22:52Z</time>
      </trkpt>
      <trkpt lat="48.44574" lon="2.74397">
        <ele>99.4</ele>
        <time>2021-07-17T12:22:57Z</time>
      </trkpt>
      <trkpt lat="48.44591" lon="2.74405">
        <ele>99.8</ele>
        <time>2021-07-17T12:23:09Z</time>
      </trkpt>
      <trkpt lat="48.44591" lon="2.74419">
        <ele>100</ele>
        <time>2021-07-17T12:23:35Z</time>
      </trkpt>
      <trkpt lat="48.44592" lon="2.74422">
        <ele>99.9</ele>
        <time>2021-07-17T12:23:36Z</time>
      </trkpt>
      <trkpt lat="48.4459" lon="2.74408">
        <ele>99.8</ele>
        <time>2021-07-17T12:24:05Z</time>
      </trkpt>
      <trkpt lat="48.4459" lon="2.74404">
        <ele>99.7</ele>
        <time>2021-07-17T12:24:06Z</time>
      </trkpt>
      <trkpt lat="48.44591" lon="2.74411">
        <ele>99.9</ele>
        <time>2021-07-17T12:24:35Z</time>
      </trkpt>
      <trkpt lat="48.44591" lon="2.74411">
        <ele>99.9</ele>
        <time>2021-07-17T12:24:36Z</time>
      </trkpt>
      <trkpt lat="48.44592" lon="2.74415">
        <ele>100</ele>
        <time>2021-07-17T12:25:05Z</time>
      </trkpt>
      <trkpt lat="48.44591" lon="2.74414">
        <ele>99.9</ele>
        <time>2021-07-17T12:25:06Z</time>
      </trkpt>
      <trkpt lat="48.44592" lon="2.74426">
        <ele>99.9</ele>
        <time>2021-07-17T12:25:35Z</time>
      </trkpt>
      <trkpt lat="48.44592" lon="2.74427">
        <ele>99.9</ele>
        <time>2021-07-17T12:25:36Z</time>
      </trkpt>
      <trkpt lat="48.44572" lon="2.74429">
        <ele>99.8</ele>
        <time>2021-07-17T12:25:53Z</time>
      </trkpt>
      <trkpt lat="48.44555" lon="2.7444">
        <ele>99.6</ele>
        <time>2021-07-17T12:25:58Z</time>
      </trkpt>
      <trkpt lat="48.44537" lon="2.74461">
        <ele>99.5</ele>
        <time>2021-07-17T12:26:04Z</time>
      </trkpt>
      <trkpt lat="48.44523" lon="2.74494">
        <ele>99.7</ele>
        <time>2021-07-17T12:26:09Z</time>
      </trkpt>
      <trkpt lat="48.44501" lon="2.74521">
        <ele>99.5</ele>
        <time>2021-07-17T12:26:14Z</time>
      </trkpt>
      <trkpt lat="48.44476" lon="2.74508">
        <ele>99.8</ele>
        <time>2021-07-17T12:26:19Z</time>
      </trkpt>
      <trkpt lat="48.44457" lon="2.74505">
        <ele>99.9</ele>
        <time>2021-07-17T12:26:24Z</time>
      </trkpt>
      <trkpt lat="48.44435" lon="2.74512">
        <ele>99.7</ele>
        <time>2021-07-17T12:26:29Z</time>
      </trkpt>
      <trkpt lat="48.44411" lon="2.74516">
        <ele>99.4</ele>
        <time>2021-07-17T12:26:34Z</time>
      </trkpt>
      <trkpt lat="48.44392" lon="2.7454">
        <ele>98.1</ele>
        <time>2021-07-17T12:26:39Z</time>
      </trkpt>
      <trkpt lat="48.44386" lon="2.7451">
        <ele>98.6</ele>
        <time>2021-07-17T12:26:46Z</time>
      </trkpt>
      <trkpt lat="48.44372" lon="2.74478">
        <ele>98</ele>
        <time>2021-07-17T12:26:53Z</time>
      </trkpt>
      <trkpt lat="48.4434" lon="2.74462">
        <ele>96.8</ele>
        <time>2021-07-17T12:26:58Z</time>
      </trkpt>
      <trkpt lat="48.44318" lon="2.7446">
        <ele>96.5</ele>
        <time>2021-07-17T12:27:03Z</time>
      </trkpt>
      <trkpt lat="48.44297" lon="2.74454">
        <ele>96.5</ele>
        <time>2021-07-17T12:27:08Z</time>
      </trkpt>
      <trkpt lat="48.44279" lon="2.7444">
        <ele>96.8</ele>
        <time>2021-07-17T12:27:13Z</time>
      </trkpt>
      <trkpt lat="48.44252" lon="2.74406">
        <ele>97.9</ele>
        <time>2021-07-17T12:27:18Z</time>
      </trkpt>
      <trkpt lat="48.44236" lon="2.74383">
        <ele>97.8</ele>
        <time>2021-07-17T12:27:25Z</time>
      </trkpt>
      <trkpt lat="48.44209" lon="2.74358">
        <ele>97.2</ele>
        <time>2021-07-17T12:27:30Z</time>
      </trkpt>
      <trkpt lat="48.44193" lon="2.74341">
        <ele>96.7</ele>
        <time>2021-07-17T12:27:37Z</time>
      </trkpt>
      <trkpt lat="48.44172" lon="2.74322">
        <ele>96.4</ele>
        <time>2021-07-17T12:27:58Z</time>
      </trkpt>
      <trkpt lat="48.44167" lon="2.74293">
        <ele>97</ele>
        <time>2021-07-17T12:28:09Z</time>
      </trkpt>
      <trkpt lat="48.44148" lon="2.74291">
        <ele>97</ele>
        <time>2021-07-17T12:28:14Z</time>
      </trkpt>
      <trkpt lat="48.44124" lon="2.74286">
        <ele>97.1</ele>
        <time>2021-07-17T12:28:19Z</time>
      </trkpt>
      <trkpt lat="48.44102" lon="2.74282">
        <ele>97.2</ele>
        <time>2021-07-17T12:28:25Z</time>
      </trkpt>
      <trkpt lat="48.44071" lon="2.74277">
        <ele>97.2</ele>
        <time>2021-07-17T12:28:30Z</time>
      </trkpt>
      <trkpt lat="48.44048" lon="2.74272">
        <ele>97</ele>
        <time>2021-07-17T12:28:35Z</time>
      </trkpt>
      <trkpt lat="48.44029" lon="2.74253">
        <ele>96.7</ele>
        <time>2021-07-17T12:28:43Z</time>
      </trkpt>
      <trkpt lat="48.44002" lon="2.74241">
        <ele>96.3</ele>
        <time>2021-07-17T12:28:48Z</time>
      </trkpt>
      <trkpt lat="48.43986" lon="2.74226">
        <ele>96.3</ele>
        <time>2021-07-17T12:28:57Z</time>
      </trkpt>
      <trkpt lat="48.43967" lon="2.74212">
        <ele>96.3</ele>
        <time>2021-07-17T12:29:03Z</time>
      </trkpt>
      <trkpt lat="48.43942" lon="2.74213">
        <ele>95.8</ele>
        <time>2021-07-17T12:29:08Z</time>
      </trkpt>
      <trkpt lat="48.43923" lon="2.74214">
        <ele>95.4</ele>
        <time>2021-07-17T12:29:13Z</time>
      </trkpt>
      <trkpt lat="48.43888" lon="2.74211">
        <ele>95.4</ele>
        <time>2021-07-17T12:29:18Z</time>
      </trkpt>
      <trkpt lat="48.43868" lon="2.74203">
        <ele>95.6</ele>
        <time>2021-07-17T12:29:23Z</time>
      </trkpt>
      <trkpt lat="48.43849" lon="2.74184">
        <ele>95.9</ele>
        <time>2021-07-17T12:29:28Z</time>
      </trkpt>
      <trkpt lat="48.43826" lon="2.74173">
        <ele>95.8</ele>
        <time>2021-07-17T12:29:33Z</time>
      </trkpt>
      <trkpt lat="48.43804" lon="2.74168">
        <ele>95.3</ele>
        <time>2021-07-17T12:29:38Z</time>
      </trkpt>
      <trkpt lat="48.43783" lon="2.74158">
        <ele>94.9</ele>
        <time>2021-07-17T12:29:44Z</time>
      </trkpt>
      <trkpt lat="48.43771" lon="2.7413">
        <ele>94.7</ele>
        <time>2021-07-17T12:29:50Z</time>
      </trkpt>
      <trkpt lat="48.43776" lon="2.74095">
        <ele>95.1</ele>
        <time>2021-07-17T12:29:55Z</time>
      </trkpt>
      <trkpt lat="48.43782" lon="2.74067">
        <ele>95.6</ele>
        <time>2021-07-17T12:30:08Z</time>
      </trkpt>
      <trkpt lat="48.43786" lon="2.74072">
        <ele>95.8</ele>
        <time>2021-07-17T12:30:34Z</time>
      </trkpt>
      <trkpt lat="48.43784" lon="2.74069">
        <ele>95.7</ele>
        <time>2021-07-17T12:30:37Z</time>
      </trkpt>
      <trkpt lat="48.43784" lon="2.74068">
        <ele>95.7</ele>
        <time>2021-07-17T12:31:04Z</time>
      </trkpt>
      <trkpt lat="48.43784" lon="2.74082">
        <ele>95.6</ele>
        <time>2021-07-17T12:31:19Z</time>
      </trkpt>
      <trkpt lat="48.43781" lon="2.74074">
        <ele>95.5</ele>
        <time>2021-07-17T12:31:35Z</time>
      </trkpt>
      <trkpt lat="48.43781" lon="2.74074">
        <ele>95.5</ele>
        <time>2021-07-17T12:31:36Z</time>
      </trkpt>
      <trkpt lat="48.43788" lon="2.74068">
        <ele>95.9</ele>
        <time>2021-07-17T12:32:05Z</time>
      </trkpt>
      <trkpt lat="48.43787" lon="2.74068">
        <ele>95.9</ele>
        <time>2021-07-17T12:32:06Z</time>
      </trkpt>
      <trkpt lat="48.43793" lon="2.74075">
        <ele>96.1</ele>
        <time>2021-07-17T12:32:35Z</time>
      </trkpt>
      <trkpt lat="48.43793" lon="2.74075">
        <ele>96.1</ele>
        <time>2021-07-17T12:32:36Z</time>
      </trkpt>
      <trkpt lat="48.438" lon="2.74066">
        <ele>96.5</ele>
        <time>2021-07-17T12:33:05Z</time>
      </trkpt>
      <trkpt lat="48.43803" lon="2.74062">
        <ele>96.7</ele>
        <time>2021-07-17T12:33:06Z</time>
      </trkpt>
      <trkpt lat="48.43817" lon="2.7404">
        <ele>97.6</ele>
        <time>2021-07-17T12:33:14Z</time>
      </trkpt>
      <trkpt lat="48.43833" lon="2.74015">
        <ele>98.8</ele>
        <time>2021-07-17T12:33:19Z</time>
      </trkpt>
      <trkpt lat="48.43847" lon="2.73987">
        <ele>99.5</ele>
        <time>2021-07-17T12:33:25Z</time>
      </trkpt>
      <trkpt lat="48.43859" lon="2.73959">
        <ele>99.8</ele>
        <time>2021-07-17T12:33:30Z</time>
      </trkpt>
      <trkpt lat="48.43875" lon="2.73927">
        <ele>100.1</ele>
        <time>2021-07-17T12:33:35Z</time>
      </trkpt>
      <trkpt lat="48.43889" lon="2.73905">
        <ele>99.9</ele>
        <time>2021-07-17T12:33:40Z</time>
      </trkpt>
      <trkpt lat="48.43905" lon="2.73879">
        <ele>99</ele>
        <time>2021-07-17T12:33:45Z</time>
      </trkpt>
      <trkpt lat="48.43918" lon="2.73855">
        <ele>98</ele>
        <time>2021-07-17T12:33:50Z</time>
      </trkpt>
      <trkpt lat="48.43931" lon="2.73829">
        <ele>96.8</ele>
        <time>2021-07-17T12:33:55Z</time>
      </trkpt>
      <trkpt lat="48.43943" lon="2.73804">
        <ele>95.5</ele>
        <time>2021-07-17T12:34:00Z</time>
      </trkpt>
      <trkpt lat="48.43957" lon="2.73783">
        <ele>94.6</ele>
        <time>2021-07-17T12:34:05Z</time>
      </trkpt>
      <trkpt lat="48.43974" lon="2.73772">
        <ele>94.3</ele>
        <time>2021-07-17T12:34:11Z</time>
      </trkpt>
      <trkpt lat="48.43994" lon="2.73765">
        <ele>94.4</ele>
        <time>2021-07-17T12:34:16Z</time>
      </trkpt>
      <trkpt lat="48.44021" lon="2.73764">
        <ele>94.9</ele>
        <time>2021-07-17T12:34:21Z</time>
      </trkpt>
      <trkpt lat="48.44043" lon="2.73791">
        <ele>95.7</ele>
        <time>2021-07-17T12:34:26Z</time>
      </trkpt>
      <trkpt lat="48.44052" lon="2.73821">
        <ele>96.2</ele>
        <time>2021-07-17T12:34:31Z</time>
      </trkpt>
      <trkpt lat="48.44063" lon="2.73846">
        <ele>96.4</ele>
        <time>2021-07-17T12:34:36Z</time>
      </trkpt>
      <trkpt lat="48.44066" lon="2.73825">
        <ele>96.1</ele>
        <time>2021-07-17T12:35:05Z</time>
      </trkpt>
      <trkpt lat="48.44064" lon="2.73814">
        <ele>96.1</ele>
        <time>2021-07-17T12:35:06Z</time>
      </trkpt>
      <trkpt lat="48.44069" lon="2.73788">
        <ele>95.9</ele>
        <time>2021-07-17T12:35:11Z</time>
      </trkpt>
      <trkpt lat="48.44081" lon="2.7376">
        <ele>96</ele>
        <time>2021-07-17T12:35:17Z</time>
      </trkpt>
      <trkpt lat="48.44107" lon="2.73726">
        <ele>94.5</ele>
        <time>2021-07-17T12:35:22Z</time>
      </trkpt>
      <trkpt lat="48.44133" lon="2.73701">
        <ele>93.2</ele>
        <time>2021-07-17T12:35:27Z</time>
      </trkpt>
      <trkpt lat="48.44156" lon="2.73671">
        <ele>92</ele>
        <time>2021-07-17T12:35:32Z</time>
      </trkpt>
      <trkpt lat="48.4417" lon="2.7365">
        <ele>91.8</ele>
        <time>2021-07-17T12:35:37Z</time>
      </trkpt>
      <trkpt lat="48.44177" lon="2.73616">
        <ele>91.3</ele>
        <time>2021-07-17T12:35:43Z</time>
      </trkpt>
      <trkpt lat="48.44168" lon="2.73588">
        <ele>90.2</ele>
        <time>2021-07-17T12:35:48Z</time>
      </trkpt>
      <trkpt lat="48.44147" lon="2.73554">
        <ele>90.6</ele>
        <time>2021-07-17T12:35:53Z</time>
      </trkpt>
      <trkpt lat="48.4413" lon="2.73538">
        <ele>90.9</ele>
        <time>2021-07-17T12:35:59Z</time>
      </trkpt>
      <trkpt lat="48.44131" lon="2.73511">
        <ele>91.7</ele>
        <time>2021-07-17T12:36:16Z</time>
      </trkpt>
      <trkpt lat="48.44143" lon="2.73488">
        <ele>92.3</ele>
        <time>2021-07-17T12:36:23Z</time>
      </trkpt>
      <trkpt lat="48.44151" lon="2.73463">
        <ele>92.8</ele>
        <time>2021-07-17T12:36:32Z</time>
      </trkpt>
      <trkpt lat="48.44139" lon="2.73437">
        <ele>93.3</ele>
        <time>2021-07-17T12:36:38Z</time>
      </trkpt>
      <trkpt lat="48.44121" lon="2.73405">
        <ele>93.7</ele>
        <time>2021-07-17T12:36:43Z</time>
      </trkpt>
      <trkpt lat="48.44103" lon="2.73384">
        <ele>93.7</ele>
        <time>2021-07-17T12:36:48Z</time>
      </trkpt>
      <trkpt lat="48.44082" lon="2.73371">
        <ele>93.5</ele>
        <time>2021-07-17T12:36:53Z</time>
      </trkpt>
      <trkpt lat="48.44075" lon="2.73342">
        <ele>93.9</ele>
        <time>2021-07-17T12:36:59Z</time>
      </trkpt>
      <trkpt lat="48.44075" lon="2.73311">
        <ele>94.6</ele>
        <time>2021-07-17T12:37:04Z</time>
      </trkpt>
      <trkpt lat="48.44067" lon="2.73287">
        <ele>95.3</ele>
        <time>2021-07-17T12:37:16Z</time>
      </trkpt>
      <trkpt lat="48.44067" lon="2.7326">
        <ele>96.1</ele>
        <time>2021-07-17T12:37:22Z</time>
      </trkpt>
      <trkpt lat="48.44072" lon="2.73232">
        <ele>96.8</ele>
        <time>2021-07-17T12:37:27Z</time>
      </trkpt>
      <trkpt lat="48.44072" lon="2.73203">
        <ele>97.7</ele>
        <time>2021-07-17T12:37:33Z</time>
      </trkpt>
      <trkpt lat="48.44064" lon="2.73176">
        <ele>98.5</ele>
        <time>2021-07-17T12:37:39Z</time>
      </trkpt>
      <trkpt lat="48.44054" lon="2.7315">
        <ele>98.8</ele>
        <time>2021-07-17T12:37:45Z</time>
      </trkpt>
      <trkpt lat="48.44047" lon="2.73125">
        <ele>99</ele>
        <time>2021-07-17T12:37:52Z</time>
      </trkpt>
      <trkpt lat="48.44034" lon="2.731">
        <ele>99.4</ele>
        <time>2021-07-17T12:38:00Z</time>
      </trkpt>
      <trkpt lat="48.44029" lon="2.7307">
        <ele>99.5</ele>
        <time>2021-07-17T12:38:09Z</time>
      </trkpt>
      <trkpt lat="48.44023" lon="2.73041">
        <ele>99.2</ele>
        <time>2021-07-17T12:38:14Z</time>
      </trkpt>
      <trkpt lat="48.44026" lon="2.73012">
        <ele>98.8</ele>
        <time>2021-07-17T12:38:19Z</time>
      </trkpt>
      <trkpt lat="48.44039" lon="2.72986">
        <ele>98.7</ele>
        <time>2021-07-17T12:38:28Z</time>
      </trkpt>
      <trkpt lat="48.44041" lon="2.72955">
        <ele>99</ele>
        <time>2021-07-17T12:38:33Z</time>
      </trkpt>
      <trkpt lat="48.44043" lon="2.72923">
        <ele>99.4</ele>
        <time>2021-07-17T12:38:39Z</time>
      </trkpt>
      <trkpt lat="48.44043" lon="2.72892">
        <ele>99.4</ele>
        <time>2021-07-17T12:38:45Z</time>
      </trkpt>
      <trkpt lat="48.44041" lon="2.72865">
        <ele>99.2</ele>
        <time>2021-07-17T12:38:50Z</time>
      </trkpt>
      <trkpt lat="48.44035" lon="2.72826">
        <ele>98.9</ele>
        <time>2021-07-17T12:38:55Z</time>
      </trkpt>
      <trkpt lat="48.44039" lon="2.72794">
        <ele>98.5</ele>
        <time>2021-07-17T12:39:01Z</time>
      </trkpt>
      <trkpt lat="48.44044" lon="2.72762">
        <ele>98.2</ele>
        <time>2021-07-17T12:39:06Z</time>
      </trkpt>
      <trkpt lat="48.44037" lon="2.72731">
        <ele>97.2</ele>
        <time>2021-07-17T12:39:13Z</time>
      </trkpt>
      <trkpt lat="48.44024" lon="2.72704">
        <ele>95.7</ele>
        <time>2021-07-17T12:39:20Z</time>
      </trkpt>
      <trkpt lat="48.44015" lon="2.72679">
        <ele>94.2</ele>
        <time>2021-07-17T12:39:25Z</time>
      </trkpt>
      <trkpt lat="48.44009" lon="2.72664">
        <ele>93.4</ele>
        <time>2021-07-17T12:39:50Z</time>
      </trkpt>
      <trkpt lat="48.4399" lon="2.72676">
        <ele>93.6</ele>
        <time>2021-07-17T12:39:58Z</time>
      </trkpt>
      <trkpt lat="48.43993" lon="2.72642">
        <ele>92.6</ele>
        <time>2021-07-17T12:40:07Z</time>
      </trkpt>
      <trkpt lat="48.44008" lon="2.72626">
        <ele>92.4</ele>
        <time>2021-07-17T12:40:12Z</time>
      </trkpt>
      <trkpt lat="48.43999" lon="2.72618">
        <ele>91.9</ele>
        <time>2021-07-17T12:40:35Z</time>
      </trkpt>
      <trkpt lat="48.44" lon="2.72635">
        <ele>92.3</ele>
        <time>2021-07-17T12:40:48Z</time>
      </trkpt>
      <trkpt lat="48.43986" lon="2.72616">
        <ele>92.1</ele>
        <time>2021-07-17T12:41:00Z</time>
      </trkpt>
      <trkpt lat="48.43962" lon="2.72585">
        <ele>91.9</ele>
        <time>2021-07-17T12:41:09Z</time>
      </trkpt>
      <trkpt lat="48.43917" lon="2.72501">
        <ele>93</ele>
        <time>2021-07-17T12:41:30Z</time>
      </trkpt>
      <trkpt lat="48.43906" lon="2.72478">
        <ele>94.4</ele>
        <time>2021-07-17T12:41:39Z</time>
      </trkpt>
      <trkpt lat="48.43904" lon="2.72448">
        <ele>95.1</ele>
        <time>2021-07-17T12:41:46Z</time>
      </trkpt>
      <trkpt lat="48.43896" lon="2.72421">
        <ele>96.4</ele>
        <time>2021-07-17T12:41:52Z</time>
      </trkpt>
      <trkpt lat="48.43896" lon="2.72384">
        <ele>97.1</ele>
        <time>2021-07-17T12:41:57Z</time>
      </trkpt>
      <trkpt lat="48.43897" lon="2.72351">
        <ele>97.6</ele>
        <time>2021-07-17T12:42:02Z</time>
      </trkpt>
      <trkpt lat="48.43907" lon="2.72319">
        <ele>96.8</ele>
        <time>2021-07-17T12:42:07Z</time>
      </trkpt>
      <trkpt lat="48.4391" lon="2.72288">
        <ele>96.1</ele>
        <time>2021-07-17T12:42:13Z</time>
      </trkpt>
      <trkpt lat="48.4391" lon="2.72261">
        <ele>95.8</ele>
        <time>2021-07-17T12:42:18Z</time>
      </trkpt>
      <trkpt lat="48.43913" lon="2.72233">
        <ele>95</ele>
        <time>2021-07-17T12:42:23Z</time>
      </trkpt>
      <trkpt lat="48.43912" lon="2.72204">
        <ele>94.4</ele>
        <time>2021-07-17T12:42:28Z</time>
      </trkpt>
      <trkpt lat="48.43911" lon="2.72169">
        <ele>93.7</ele>
        <time>2021-07-17T12:42:33Z</time>
      </trkpt>
      <trkpt lat="48.43911" lon="2.72135">
        <ele>94.3</ele>
        <time>2021-07-17T12:42:38Z</time>
      </trkpt>
      <trkpt lat="48.4391" lon="2.72098">
        <ele>95.2</ele>
        <time>2021-07-17T12:42:43Z</time>
      </trkpt>
      <trkpt lat="48.43912" lon="2.7207">
        <ele>95.3</ele>
        <time>2021-07-17T12:42:49Z</time>
      </trkpt>
      <trkpt lat="48.43913" lon="2.72042">
        <ele>95.2</ele>
        <time>2021-07-17T12:42:55Z</time>
      </trkpt>
      <trkpt lat="48.4391" lon="2.72013">
        <ele>95.4</ele>
        <time>2021-07-17T12:43:03Z</time>
      </trkpt>
      <trkpt lat="48.4389" lon="2.72002">
        <ele>96.6</ele>
        <time>2021-07-17T12:43:11Z</time>
      </trkpt>
      <trkpt lat="48.4387" lon="2.71988">
        <ele>97.6</ele>
        <time>2021-07-17T12:43:16Z</time>
      </trkpt>
      <trkpt lat="48.43853" lon="2.71972">
        <ele>98.2</ele>
        <time>2021-07-17T12:43:22Z</time>
      </trkpt>
      <trkpt lat="48.43834" lon="2.71959">
        <ele>99</ele>
        <time>2021-07-17T12:43:28Z</time>
      </trkpt>
      <trkpt lat="48.43812" lon="2.71948">
        <ele>98.8</ele>
        <time>2021-07-17T12:43:34Z</time>
      </trkpt>
      <trkpt lat="48.43794" lon="2.71933">
        <ele>98.7</ele>
        <time>2021-07-17T12:43:40Z</time>
      </trkpt>
      <trkpt lat="48.43775" lon="2.71918">
        <ele>98.7</ele>
        <time>2021-07-17T12:43:45Z</time>
      </trkpt>
      <trkpt lat="48.43757" lon="2.71906">
        <ele>98.9</ele>
        <time>2021-07-17T12:43:50Z</time>
      </trkpt>
      <trkpt lat="48.43739" lon="2.71895">
        <ele>99.3</ele>
        <time>2021-07-17T12:43:55Z</time>
      </trkpt>
      <trkpt lat="48.4372" lon="2.71883">
        <ele>99.9</ele>
        <time>2021-07-17T12:44:00Z</time>
      </trkpt>
      <trkpt lat="48.43703" lon="2.7187">
        <ele>100.5</ele>
        <time>2021-07-17T12:44:12Z</time>
      </trkpt>
      <trkpt lat="48.43683" lon="2.71859">
        <ele>101.2</ele>
        <time>2021-07-17T12:44:22Z</time>
      </trkpt>
      <trkpt lat="48.43662" lon="2.71857">
        <ele>101.8</ele>
        <time>2021-07-17T12:44:28Z</time>
      </trkpt>
      <trkpt lat="48.43644" lon="2.71842">
        <ele>102.5</ele>
        <time>2021-07-17T12:44:33Z</time>
      </trkpt>
      <trkpt lat="48.43626" lon="2.71836">
        <ele>103</ele>
        <time>2021-07-17T12:44:38Z</time>
      </trkpt>
      <trkpt lat="48.43609" lon="2.71825">
        <ele>103.4</ele>
        <time>2021-07-17T12:44:44Z</time>
      </trkpt>
      <trkpt lat="48.43589" lon="2.71819">
        <ele>103.9</ele>
        <time>2021-07-17T12:44:49Z</time>
      </trkpt>
      <trkpt lat="48.43571" lon="2.71804">
        <ele>105.2</ele>
        <time>2021-07-17T12:44:58Z</time>
      </trkpt>
      <trkpt lat="48.43553" lon="2.71798">
        <ele>107.2</ele>
        <time>2021-07-17T12:45:05Z</time>
      </trkpt>
      <trkpt lat="48.43534" lon="2.71788">
        <ele>109.5</ele>
        <time>2021-07-17T12:45:19Z</time>
      </trkpt>
      <trkpt lat="48.43517" lon="2.71778">
        <ele>111.8</ele>
        <time>2021-07-17T12:45:26Z</time>
      </trkpt>
      <trkpt lat="48.43498" lon="2.71781">
        <ele>113.6</ele>
        <time>2021-07-17T12:45:37Z</time>
      </trkpt>
      <trkpt lat="48.43484" lon="2.71763">
        <ele>114.5</ele>
        <time>2021-07-17T12:46:05Z</time>
      </trkpt>
      <trkpt lat="48.43481" lon="2.71753">
        <ele>114.9</ele>
        <time>2021-07-17T12:46:20Z</time>
      </trkpt>
      <trkpt lat="48.43488" lon="2.71753">
        <ele>114.9</ele>
        <time>2021-07-17T12:46:34Z</time>
      </trkpt>
      <trkpt lat="48.43502" lon="2.71755">
        <ele>114.4</ele>
        <time>2021-07-17T12:46:50Z</time>
      </trkpt>
      <trkpt lat="48.43529" lon="2.7178">
        <ele>110.3</ele>
        <time>2021-07-17T12:47:00Z</time>
      </trkpt>
      <trkpt lat="48.43508" lon="2.71734">
        <ele>114.5</ele>
        <time>2021-07-17T12:47:06Z</time>
      </trkpt>
      <trkpt lat="48.4351" lon="2.71717">
        <ele>114.8</ele>
        <time>2021-07-17T12:47:35Z</time>
      </trkpt>
      <trkpt lat="48.43517" lon="2.71706">
        <ele>114.2</ele>
        <time>2021-07-17T12:47:54Z</time>
      </trkpt>
      <trkpt lat="48.43516" lon="2.71677">
        <ele>115.4</ele>
        <time>2021-07-17T12:48:03Z</time>
      </trkpt>
      <trkpt lat="48.43517" lon="2.71648">
        <ele>115.9</ele>
        <time>2021-07-17T12:48:09Z</time>
      </trkpt>
      <trkpt lat="48.43528" lon="2.71622">
        <ele>114.8</ele>
        <time>2021-07-17T12:48:20Z</time>
      </trkpt>
      <trkpt lat="48.43526" lon="2.71594">
        <ele>115.7</ele>
        <time>2021-07-17T12:48:31Z</time>
      </trkpt>
      <trkpt lat="48.43545" lon="2.7159">
        <ele>112.9</ele>
        <time>2021-07-17T12:48:46Z</time>
      </trkpt>
      <trkpt lat="48.43553" lon="2.71565">
        <ele>111.8</ele>
        <time>2021-07-17T12:49:04Z</time>
      </trkpt>
      <trkpt lat="48.43559" lon="2.71554">
        <ele>110.9</ele>
        <time>2021-07-17T12:49:20Z</time>
      </trkpt>
      <trkpt lat="48.43567" lon="2.71515">
        <ele>110.1</ele>
        <time>2021-07-17T12:50:05Z</time>
      </trkpt>
      <trkpt lat="48.43566" lon="2.71533">
        <ele>110.1</ele>
        <time>2021-07-17T12:50:31Z</time>
      </trkpt>
      <trkpt lat="48.43564" lon="2.71542">
        <ele>110.3</ele>
        <time>2021-07-17T12:50:32Z</time>
      </trkpt>
      <trkpt lat="48.43562" lon="2.71548">
        <ele>110.5</ele>
        <time>2021-07-17T12:50:50Z</time>
      </trkpt>
      <trkpt lat="48.43573" lon="2.71468">
        <ele>108.9</ele>
        <time>2021-07-17T12:50:59Z</time>
      </trkpt>
      <trkpt lat="48.43569" lon="2.7154">
        <ele>109.6</ele>
        <time>2021-07-17T12:51:09Z</time>
      </trkpt>
      <trkpt lat="48.43574" lon="2.71538">
        <ele>108.9</ele>
        <time>2021-07-17T12:51:35Z</time>
      </trkpt>
      <trkpt lat="48.43582" lon="2.71518">
        <ele>108</ele>
        <time>2021-07-17T12:52:06Z</time>
      </trkpt>
      <trkpt lat="48.43573" lon="2.71535">
        <ele>109</ele>
        <time>2021-07-17T12:52:21Z</time>
      </trkpt>
      <trkpt lat="48.43592" lon="2.71511">
        <ele>107.2</ele>
        <time>2021-07-17T12:52:33Z</time>
      </trkpt>
      <trkpt lat="48.43607" lon="2.71493">
        <ele>106</ele>
        <time>2021-07-17T12:52:43Z</time>
      </trkpt>
      <trkpt lat="48.4361" lon="2.71464">
        <ele>105.7</ele>
        <time>2021-07-17T12:53:03Z</time>
      </trkpt>
      <trkpt lat="48.43609" lon="2.71448">
        <ele>105.8</ele>
        <time>2021-07-17T12:53:21Z</time>
      </trkpt>
      <trkpt lat="48.4361" lon="2.71448">
        <ele>105.8</ele>
        <time>2021-07-17T12:53:22Z</time>
      </trkpt>
      <trkpt lat="48.43614" lon="2.7145">
        <ele>105.5</ele>
        <time>2021-07-17T12:53:51Z</time>
      </trkpt>
      <trkpt lat="48.43615" lon="2.71449">
        <ele>105.5</ele>
        <time>2021-07-17T12:53:52Z</time>
      </trkpt>
      <trkpt lat="48.4362" lon="2.71457">
        <ele>105.1</ele>
        <time>2021-07-17T12:54:21Z</time>
      </trkpt>
      <trkpt lat="48.43619" lon="2.71456">
        <ele>105.2</ele>
        <time>2021-07-17T12:54:22Z</time>
      </trkpt>
      <trkpt lat="48.43602" lon="2.7144">
        <ele>106.2</ele>
        <time>2021-07-17T12:54:49Z</time>
      </trkpt>
      <trkpt lat="48.43583" lon="2.71432">
        <ele>107.2</ele>
        <time>2021-07-17T12:54:56Z</time>
      </trkpt>
      <trkpt lat="48.43565" lon="2.71426">
        <ele>108.9</ele>
        <time>2021-07-17T12:55:03Z</time>
      </trkpt>
      <trkpt lat="48.43546" lon="2.71416">
        <ele>110.6</ele>
        <time>2021-07-17T12:55:11Z</time>
      </trkpt>
      <trkpt lat="48.43524" lon="2.71411">
        <ele>112.8</ele>
        <time>2021-07-17T12:55:19Z</time>
      </trkpt>
      <trkpt lat="48.43502" lon="2.714">
        <ele>114.8</ele>
        <time>2021-07-17T12:55:27Z</time>
      </trkpt>
      <trkpt lat="48.43486" lon="2.71388">
        <ele>115.9</ele>
        <time>2021-07-17T12:55:36Z</time>
      </trkpt>
      <trkpt lat="48.43466" lon="2.71382">
        <ele>117.2</ele>
        <time>2021-07-17T12:55:42Z</time>
      </trkpt>
      <trkpt lat="48.43448" lon="2.71372">
        <ele>118.4</ele>
        <time>2021-07-17T12:55:50Z</time>
      </trkpt>
      <trkpt lat="48.43431" lon="2.71362">
        <ele>119.7</ele>
        <time>2021-07-17T12:55:58Z</time>
      </trkpt>
      <trkpt lat="48.43429" lon="2.71334">
        <ele>120.1</ele>
        <time>2021-07-17T12:56:17Z</time>
      </trkpt>
      <trkpt lat="48.43429" lon="2.71326">
        <ele>120.6</ele>
        <time>2021-07-17T12:56:36Z</time>
      </trkpt>
      <trkpt lat="48.43429" lon="2.71326">
        <ele>120.6</ele>
        <time>2021-07-17T12:56:37Z</time>
      </trkpt>
      <trkpt lat="48.43433" lon="2.71318">
        <ele>120.8</ele>
        <time>2021-07-17T12:57:06Z</time>
      </trkpt>
      <trkpt lat="48.43433" lon="2.71318">
        <ele>120.8</ele>
        <time>2021-07-17T12:57:07Z</time>
      </trkpt>
      <trkpt lat="48.43433" lon="2.71321">
        <ele>120.6</ele>
        <time>2021-07-17T12:57:36Z</time>
      </trkpt>
      <trkpt lat="48.43433" lon="2.71321">
        <ele>120.6</ele>
        <time>2021-07-17T12:57:37Z</time>
      </trkpt>
      <trkpt lat="48.43435" lon="2.71317">
        <ele>120.7</ele>
        <time>2021-07-17T12:58:06Z</time>
      </trkpt>
      <trkpt lat="48.43435" lon="2.71317">
        <ele>120.7</ele>
        <time>2021-07-17T12:58:07Z</time>
      </trkpt>
      <trkpt lat="48.43435" lon="2.71285">
        <ele>122.7</ele>
        <time>2021-07-17T12:58:22Z</time>
      </trkpt>
      <trkpt lat="48.43436" lon="2.71253">
        <ele>124.4</ele>
        <time>2021-07-17T12:58:29Z</time>
      </trkpt>
      <trkpt lat="48.4344" lon="2.71218">
        <ele>125</ele>
        <time>2021-07-17T12:58:34Z</time>
      </trkpt>
      <trkpt lat="48.43444" lon="2.71178">
        <ele>125.5</ele>
        <time>2021-07-17T12:58:39Z</time>
      </trkpt>
      <trkpt lat="48.43442" lon="2.71151">
        <ele>125.8</ele>
        <time>2021-07-17T12:58:46Z</time>
      </trkpt>
      <trkpt lat="48.43441" lon="2.71119">
        <ele>125.6</ele>
        <time>2021-07-17T12:58:53Z</time>
      </trkpt>
      <trkpt lat="48.43441" lon="2.71081">
        <ele>125.3</ele>
        <time>2021-07-17T12:58:58Z</time>
      </trkpt>
      <trkpt lat="48.43447" lon="2.71055">
        <ele>125.2</ele>
        <time>2021-07-17T12:59:04Z</time>
      </trkpt>
      <trkpt lat="48.43462" lon="2.71036">
        <ele>124.7</ele>
        <time>2021-07-17T12:59:10Z</time>
      </trkpt>
      <trkpt lat="48.4348" lon="2.71041">
        <ele>123.6</ele>
        <time>2021-07-17T12:59:22Z</time>
      </trkpt>
      <trkpt lat="48.43493" lon="2.71061">
        <ele>122.2</ele>
        <time>2021-07-17T12:59:32Z</time>
      </trkpt>
      <trkpt lat="48.43487" lon="2.71064">
        <ele>122.5</ele>
        <time>2021-07-17T12:59:51Z</time>
      </trkpt>
      <trkpt lat="48.43488" lon="2.71063">
        <ele>122.5</ele>
        <time>2021-07-17T12:59:52Z</time>
      </trkpt>
      <trkpt lat="48.43512" lon="2.71073">
        <ele>121.7</ele>
        <time>2021-07-17T13:00:04Z</time>
      </trkpt>
      <trkpt lat="48.43533" lon="2.7108">
        <ele>122</ele>
        <time>2021-07-17T13:00:15Z</time>
      </trkpt>
      <trkpt lat="48.43554" lon="2.71064">
        <ele>123.7</ele>
        <time>2021-07-17T13:00:27Z</time>
      </trkpt>
      <trkpt lat="48.43572" lon="2.71055">
        <ele>125.2</ele>
        <time>2021-07-17T13:00:33Z</time>
      </trkpt>
      <trkpt lat="48.43589" lon="2.71044">
        <ele>126.4</ele>
        <time>2021-07-17T13:00:42Z</time>
      </trkpt>
      <trkpt lat="48.43602" lon="2.71021">
        <ele>127.7</ele>
        <time>2021-07-17T13:00:48Z</time>
      </trkpt>
      <trkpt lat="48.43614" lon="2.70998">
        <ele>129.3</ele>
        <time>2021-07-17T13:00:58Z</time>
      </trkpt>
      <trkpt lat="48.43626" lon="2.70977">
        <ele>130.4</ele>
        <time>2021-07-17T13:01:03Z</time>
      </trkpt>
      <trkpt lat="48.43642" lon="2.70959">
        <ele>131.4</ele>
        <time>2021-07-17T13:01:16Z</time>
      </trkpt>
      <trkpt lat="48.43656" lon="2.70938">
        <ele>133</ele>
        <time>2021-07-17T13:01:25Z</time>
      </trkpt>
      <trkpt lat="48.43665" lon="2.70909">
        <ele>135.6</ele>
        <time>2021-07-17T13:01:34Z</time>
      </trkpt>
      <trkpt lat="48.43674" lon="2.70886">
        <ele>137.1</ele>
        <time>2021-07-17T13:01:49Z</time>
      </trkpt>
      <trkpt lat="48.43685" lon="2.70861">
        <ele>138.4</ele>
        <time>2021-07-17T13:02:01Z</time>
      </trkpt>
      <trkpt lat="48.43699" lon="2.70839">
        <ele>139.2</ele>
        <time>2021-07-17T13:02:15Z</time>
      </trkpt>
      <trkpt lat="48.43696" lon="2.70842">
        <ele>139.2</ele>
        <time>2021-07-17T13:02:36Z</time>
      </trkpt>
      <trkpt lat="48.43697" lon="2.70842">
        <ele>139.2</ele>
        <time>2021-07-17T13:02:37Z</time>
      </trkpt>
      <trkpt lat="48.43699" lon="2.70833">
        <ele>139.7</ele>
        <time>2021-07-17T13:03:06Z</time>
      </trkpt>
      <trkpt lat="48.43699" lon="2.70833">
        <ele>139.7</ele>
        <time>2021-07-17T13:03:07Z</time>
      </trkpt>
      <trkpt lat="48.43704" lon="2.7084">
        <ele>138.8</ele>
        <time>2021-07-17T13:03:36Z</time>
      </trkpt>
      <trkpt lat="48.43701" lon="2.70839">
        <ele>139.1</ele>
        <time>2021-07-17T13:03:37Z</time>
      </trkpt>
      <trkpt lat="48.43696" lon="2.70845">
        <ele>138.9</ele>
        <time>2021-07-17T13:04:06Z</time>
      </trkpt>
      <trkpt lat="48.43697" lon="2.70844">
        <ele>139</ele>
        <time>2021-07-17T13:04:07Z</time>
      </trkpt>
      <trkpt lat="48.43719" lon="2.7084">
        <ele>137.7</ele>
        <time>2021-07-17T13:04:33Z</time>
      </trkpt>
      <trkpt lat="48.43739" lon="2.7084">
        <ele>136.3</ele>
        <time>2021-07-17T13:04:41Z</time>
      </trkpt>
      <trkpt lat="48.43759" lon="2.70834">
        <ele>134.7</ele>
        <time>2021-07-17T13:04:47Z</time>
      </trkpt>
      <trkpt lat="48.43776" lon="2.70823">
        <ele>132.1</ele>
        <time>2021-07-17T13:05:01Z</time>
      </trkpt>
      <trkpt lat="48.43773" lon="2.70797">
        <ele>132.4</ele>
        <time>2021-07-17T13:05:15Z</time>
      </trkpt>
      <trkpt lat="48.43768" lon="2.70771">
        <ele>133.2</ele>
        <time>2021-07-17T13:05:21Z</time>
      </trkpt>
      <trkpt lat="48.4375" lon="2.70761">
        <ele>136</ele>
        <time>2021-07-17T13:05:28Z</time>
      </trkpt>
      <trkpt lat="48.43732" lon="2.70761">
        <ele>137.3</ele>
        <time>2021-07-17T13:05:33Z</time>
      </trkpt>
      <trkpt lat="48.43714" lon="2.70751">
        <ele>138.6</ele>
        <time>2021-07-17T13:05:41Z</time>
      </trkpt>
      <trkpt lat="48.43697" lon="2.70731">
        <ele>139.8</ele>
        <time>2021-07-17T13:05:50Z</time>
      </trkpt>
      <trkpt lat="48.43693" lon="2.70701">
        <ele>140.1</ele>
        <time>2021-07-17T13:05:55Z</time>
      </trkpt>
      <trkpt lat="48.43697" lon="2.70667">
        <ele>139.8</ele>
        <time>2021-07-17T13:06:01Z</time>
      </trkpt>
      <trkpt lat="48.43705" lon="2.70638">
        <ele>140.1</ele>
        <time>2021-07-17T13:06:10Z</time>
      </trkpt>
      <trkpt lat="48.43718" lon="2.70608">
        <ele>140.1</ele>
        <time>2021-07-17T13:06:15Z</time>
      </trkpt>
      <trkpt lat="48.43725" lon="2.70582">
        <ele>140.5</ele>
        <time>2021-07-17T13:06:20Z</time>
      </trkpt>
      <trkpt lat="48.43743" lon="2.70583">
        <ele>139.4</ele>
        <time>2021-07-17T13:06:28Z</time>
      </trkpt>
      <trkpt lat="48.43762" lon="2.70587">
        <ele>136.7</ele>
        <time>2021-07-17T13:06:33Z</time>
      </trkpt>
      <trkpt lat="48.43765" lon="2.70586">
        <ele>136.2</ele>
        <time>2021-07-17T13:06:51Z</time>
      </trkpt>
      <trkpt lat="48.43767" lon="2.70588">
        <ele>135.8</ele>
        <time>2021-07-17T13:06:52Z</time>
      </trkpt>
      <trkpt lat="48.43772" lon="2.70592">
        <ele>134.8</ele>
        <time>2021-07-17T13:07:21Z</time>
      </trkpt>
      <trkpt lat="48.43771" lon="2.70595">
        <ele>134.9</ele>
        <time>2021-07-17T13:07:23Z</time>
      </trkpt>
      <trkpt lat="48.43767" lon="2.70591">
        <ele>135.7</ele>
        <time>2021-07-17T13:07:51Z</time>
      </trkpt>
      <trkpt lat="48.43767" lon="2.70591">
        <ele>135.7</ele>
        <time>2021-07-17T13:07:52Z</time>
      </trkpt>
      <trkpt lat="48.43775" lon="2.70597">
        <ele>134</ele>
        <time>2021-07-17T13:08:21Z</time>
      </trkpt>
      <trkpt lat="48.43776" lon="2.70597">
        <ele>133.9</ele>
        <time>2021-07-17T13:08:22Z</time>
      </trkpt>
      <trkpt lat="48.43774" lon="2.70592">
        <ele>134.3</ele>
        <time>2021-07-17T13:08:51Z</time>
      </trkpt>
      <trkpt lat="48.43773" lon="2.7059">
        <ele>134.7</ele>
        <time>2021-07-17T13:08:52Z</time>
      </trkpt>
      <trkpt lat="48.43771" lon="2.70594">
        <ele>134.8</ele>
        <time>2021-07-17T13:09:21Z</time>
      </trkpt>
      <trkpt lat="48.43771" lon="2.70594">
        <ele>134.8</ele>
        <time>2021-07-17T13:09:22Z</time>
      </trkpt>
      <trkpt lat="48.43776" lon="2.70601">
        <ele>133.6</ele>
        <time>2021-07-17T13:09:51Z</time>
      </trkpt>
      <trkpt lat="48.43777" lon="2.70602">
        <ele>133.5</ele>
        <time>2021-07-17T13:09:52Z</time>
      </trkpt>
      <trkpt lat="48.43778" lon="2.7059">
        <ele>133.7</ele>
        <time>2021-07-17T13:10:21Z</time>
      </trkpt>
      <trkpt lat="48.43778" lon="2.7059">
        <ele>133.7</ele>
        <time>2021-07-17T13:10:22Z</time>
      </trkpt>
      <trkpt lat="48.43777" lon="2.70593">
        <ele>133.8</ele>
        <time>2021-07-17T13:10:51Z</time>
      </trkpt>
      <trkpt lat="48.43775" lon="2.70594">
        <ele>134.1</ele>
        <time>2021-07-17T13:10:52Z</time>
      </trkpt>
      <trkpt lat="48.43768" lon="2.70602">
        <ele>135.1</ele>
        <time>2021-07-17T13:11:20Z</time>
      </trkpt>
      <trkpt lat="48.43769" lon="2.706">
        <ele>135</ele>
        <time>2021-07-17T13:11:22Z</time>
      </trkpt>
      <trkpt lat="48.43768" lon="2.70603">
        <ele>135.1</ele>
        <time>2021-07-17T13:11:51Z</time>
      </trkpt>
      <trkpt lat="48.43766" lon="2.706">
        <ele>135.5</ele>
        <time>2021-07-17T13:11:52Z</time>
      </trkpt>
      <trkpt lat="48.43765" lon="2.70584">
        <ele>136.3</ele>
        <time>2021-07-17T13:12:21Z</time>
      </trkpt>
      <trkpt lat="48.43766" lon="2.70584">
        <ele>136.2</ele>
        <time>2021-07-17T13:12:22Z</time>
      </trkpt>
      <trkpt lat="48.43766" lon="2.70585">
        <ele>136.1</ele>
        <time>2021-07-17T13:12:51Z</time>
      </trkpt>
      <trkpt lat="48.43765" lon="2.70586">
        <ele>136.2</ele>
        <time>2021-07-17T13:12:53Z</time>
      </trkpt>
      <trkpt lat="48.43761" lon="2.70588">
        <ele>136.9</ele>
        <time>2021-07-17T13:13:21Z</time>
      </trkpt>
      <trkpt lat="48.43768" lon="2.7058">
        <ele>135.8</ele>
        <time>2021-07-17T13:13:38Z</time>
      </trkpt>
      <trkpt lat="48.43758" lon="2.70546">
        <ele>137.2</ele>
        <time>2021-07-17T13:13:52Z</time>
      </trkpt>
      <trkpt lat="48.43745" lon="2.70585">
        <ele>139.2</ele>
        <time>2021-07-17T13:13:57Z</time>
      </trkpt>
      <trkpt lat="48.43741" lon="2.70547">
        <ele>139.1</ele>
        <time>2021-07-17T13:14:02Z</time>
      </trkpt>
      <trkpt lat="48.43736" lon="2.70518">
        <ele>139</ele>
        <time>2021-07-17T13:14:07Z</time>
      </trkpt>
      <trkpt lat="48.43727" lon="2.70488">
        <ele>138.9</ele>
        <time>2021-07-17T13:14:13Z</time>
      </trkpt>
      <trkpt lat="48.43717" lon="2.70464">
        <ele>138.4</ele>
        <time>2021-07-17T13:14:19Z</time>
      </trkpt>
      <trkpt lat="48.43703" lon="2.70441">
        <ele>138.4</ele>
        <time>2021-07-17T13:14:26Z</time>
      </trkpt>
      <trkpt lat="48.43688" lon="2.7042">
        <ele>138.6</ele>
        <time>2021-07-17T13:14:35Z</time>
      </trkpt>
      <trkpt lat="48.43679" lon="2.70392">
        <ele>139.3</ele>
        <time>2021-07-17T13:14:43Z</time>
      </trkpt>
      <trkpt lat="48.43692" lon="2.70372">
        <ele>138.8</ele>
        <time>2021-07-17T13:14:48Z</time>
      </trkpt>
      <trkpt lat="48.43706" lon="2.70349">
        <ele>138.7</ele>
        <time>2021-07-17T13:14:54Z</time>
      </trkpt>
      <trkpt lat="48.43719" lon="2.70326">
        <ele>138.7</ele>
        <time>2021-07-17T13:15:01Z</time>
      </trkpt>
      <trkpt lat="48.43724" lon="2.70296">
        <ele>138.8</ele>
        <time>2021-07-17T13:15:06Z</time>
      </trkpt>
      <trkpt lat="48.43721" lon="2.70269">
        <ele>138.8</ele>
        <time>2021-07-17T13:15:12Z</time>
      </trkpt>
      <trkpt lat="48.43701" lon="2.70267">
        <ele>137.8</ele>
        <time>2021-07-17T13:15:20Z</time>
      </trkpt>
      <trkpt lat="48.43686" lon="2.70287">
        <ele>137.8</ele>
        <time>2021-07-17T13:15:26Z</time>
      </trkpt>
      <trkpt lat="48.43675" lon="2.70311">
        <ele>138.7</ele>
        <time>2021-07-17T13:15:34Z</time>
      </trkpt>
      <trkpt lat="48.43668" lon="2.70337">
        <ele>140</ele>
        <time>2021-07-17T13:15:43Z</time>
      </trkpt>
      <trkpt lat="48.43664" lon="2.70364">
        <ele>139.6</ele>
        <time>2021-07-17T13:15:50Z</time>
      </trkpt>
      <trkpt lat="48.43657" lon="2.70391">
        <ele>138.8</ele>
        <time>2021-07-17T13:15:55Z</time>
      </trkpt>
      <trkpt lat="48.4364" lon="2.7041">
        <ele>137</ele>
        <time>2021-07-17T13:16:01Z</time>
      </trkpt>
      <trkpt lat="48.43622" lon="2.70431">
        <ele>135.9</ele>
        <time>2021-07-17T13:16:06Z</time>
      </trkpt>
      <trkpt lat="48.43608" lon="2.70456">
        <ele>135.7</ele>
        <time>2021-07-17T13:16:11Z</time>
      </trkpt>
      <trkpt lat="48.43597" lon="2.70494">
        <ele>136.7</ele>
        <time>2021-07-17T13:16:16Z</time>
      </trkpt>
      <trkpt lat="48.43574" lon="2.70538">
        <ele>137</ele>
        <time>2021-07-17T13:16:21Z</time>
      </trkpt>
      <trkpt lat="48.43562" lon="2.70561">
        <ele>137.2</ele>
        <time>2021-07-17T13:16:26Z</time>
      </trkpt>
      <trkpt lat="48.43559" lon="2.70567">
        <ele>137.2</ele>
        <time>2021-07-17T13:16:51Z</time>
      </trkpt>
      <trkpt lat="48.435" lon="2.70467">
        <ele>134.2</ele>
        <time>2021-07-17T13:17:36Z</time>
      </trkpt>
      <trkpt lat="48.43496" lon="2.7046">
        <ele>134.2</ele>
        <time>2021-07-17T13:17:37Z</time>
      </trkpt>
      <trkpt lat="48.43317" lon="2.70381">
        <ele>141.2</ele>
        <time>2021-07-17T13:19:12Z</time>
      </trkpt>
      <trkpt lat="48.43314" lon="2.70385">
        <ele>141.5</ele>
        <time>2021-07-17T13:19:13Z</time>
      </trkpt>
      <trkpt lat="48.43296" lon="2.70382">
        <ele>142.5</ele>
        <time>2021-07-17T13:19:21Z</time>
      </trkpt>
      <trkpt lat="48.43277" lon="2.70385">
        <ele>143.7</ele>
        <time>2021-07-17T13:19:26Z</time>
      </trkpt>
      <trkpt lat="48.43255" lon="2.70427">
        <ele>144.8</ele>
        <time>2021-07-17T13:19:32Z</time>
      </trkpt>
      <trkpt lat="48.43243" lon="2.70406">
        <ele>145.3</ele>
        <time>2021-07-17T13:19:40Z</time>
      </trkpt>
      <trkpt lat="48.43224" lon="2.70401">
        <ele>145.8</ele>
        <time>2021-07-17T13:19:48Z</time>
      </trkpt>
      <trkpt lat="48.43206" lon="2.70393">
        <ele>146.3</ele>
        <time>2021-07-17T13:19:56Z</time>
      </trkpt>
      <trkpt lat="48.43187" lon="2.7039">
        <ele>146.8</ele>
        <time>2021-07-17T13:20:03Z</time>
      </trkpt>
      <trkpt lat="48.43173" lon="2.70398">
        <ele>147.1</ele>
        <time>2021-07-17T13:20:21Z</time>
      </trkpt>
      <trkpt lat="48.43254" lon="2.70616">
        <ele>140.9</ele>
        <time>2021-07-17T13:20:59Z</time>
      </trkpt>
      <trkpt lat="48.43253" lon="2.70615">
        <ele>141</ele>
        <time>2021-07-17T13:21:00Z</time>
      </trkpt>
      <trkpt lat="48.43128" lon="2.70679">
        <ele>142</ele>
        <time>2021-07-17T13:21:42Z</time>
      </trkpt>
      <trkpt lat="48.43099" lon="2.70698">
        <ele>142.4</ele>
        <time>2021-07-17T13:21:43Z</time>
      </trkpt>
      <trkpt lat="48.43053" lon="2.70673">
        <ele>144.2</ele>
        <time>2021-07-17T13:21:57Z</time>
      </trkpt>
      <trkpt lat="48.42994" lon="2.70721">
        <ele>145.4</ele>
        <time>2021-07-17T13:22:12Z</time>
      </trkpt>
      <trkpt lat="48.42971" lon="2.70746">
        <ele>147</ele>
        <time>2021-07-17T13:22:17Z</time>
      </trkpt>
      <trkpt lat="48.42952" lon="2.70765">
        <ele>148.3</ele>
        <time>2021-07-17T13:22:23Z</time>
      </trkpt>
      <trkpt lat="48.42926" lon="2.70804">
        <ele>149.7</ele>
        <time>2021-07-17T13:22:28Z</time>
      </trkpt>
      <trkpt lat="48.42914" lon="2.70783">
        <ele>150.6</ele>
        <time>2021-07-17T13:22:41Z</time>
      </trkpt>
      <trkpt lat="48.42895" lon="2.70783">
        <ele>150.9</ele>
        <time>2021-07-17T13:22:49Z</time>
      </trkpt>
      <trkpt lat="48.42877" lon="2.70778">
        <ele>151.1</ele>
        <time>2021-07-17T13:22:59Z</time>
      </trkpt>
      <trkpt lat="48.42857" lon="2.70774">
        <ele>151.4</ele>
        <time>2021-07-17T13:23:05Z</time>
      </trkpt>
      <trkpt lat="48.42838" lon="2.70775">
        <ele>151.7</ele>
        <time>2021-07-17T13:23:10Z</time>
      </trkpt>
      <trkpt lat="48.42815" lon="2.70778">
        <ele>151.8</ele>
        <time>2021-07-17T13:23:15Z</time>
      </trkpt>
      <trkpt lat="48.42796" lon="2.70783">
        <ele>152</ele>
        <time>2021-07-17T13:23:20Z</time>
      </trkpt>
      <trkpt lat="48.42778" lon="2.70786">
        <ele>152.1</ele>
        <time>2021-07-17T13:23:26Z</time>
      </trkpt>
      <trkpt lat="48.42765" lon="2.70787">
        <ele>152.3</ele>
        <time>2021-07-17T13:23:51Z</time>
      </trkpt>
      <trkpt lat="48.42716" lon="2.71">
        <ele>152.6</ele>
        <time>2021-07-17T13:24:39Z</time>
      </trkpt>
      <trkpt lat="48.42716" lon="2.70999">
        <ele>152.6</ele>
        <time>2021-07-17T13:24:40Z</time>
      </trkpt>
      <trkpt lat="48.42729" lon="2.71022">
        <ele>153</ele>
        <time>2021-07-17T13:24:54Z</time>
      </trkpt>
      <trkpt lat="48.42722" lon="2.71048">
        <ele>154.5</ele>
        <time>2021-07-17T13:25:02Z</time>
      </trkpt>
      <trkpt lat="48.42709" lon="2.71072">
        <ele>156</ele>
        <time>2021-07-17T13:25:08Z</time>
      </trkpt>
      <trkpt lat="48.42697" lon="2.71095">
        <ele>157</ele>
        <time>2021-07-17T13:25:13Z</time>
      </trkpt>
      <trkpt lat="48.42683" lon="2.71122">
        <ele>157.6</ele>
        <time>2021-07-17T13:25:18Z</time>
      </trkpt>
      <trkpt lat="48.4267" lon="2.71145">
        <ele>157.9</ele>
        <time>2021-07-17T13:25:23Z</time>
      </trkpt>
      <trkpt lat="48.42661" lon="2.71171">
        <ele>158</ele>
        <time>2021-07-17T13:25:32Z</time>
      </trkpt>
      <trkpt lat="48.42649" lon="2.71196">
        <ele>158.2</ele>
        <time>2021-07-17T13:25:42Z</time>
      </trkpt>
      <trkpt lat="48.42632" lon="2.71222">
        <ele>158.5</ele>
        <time>2021-07-17T13:25:49Z</time>
      </trkpt>
      <trkpt lat="48.42619" lon="2.71246">
        <ele>158.9</ele>
        <time>2021-07-17T13:25:54Z</time>
      </trkpt>
      <trkpt lat="48.42605" lon="2.71272">
        <ele>159</ele>
        <time>2021-07-17T13:25:59Z</time>
      </trkpt>
      <trkpt lat="48.42592" lon="2.71292">
        <ele>159</ele>
        <time>2021-07-17T13:26:04Z</time>
      </trkpt>
      <trkpt lat="48.42574" lon="2.71315">
        <ele>158.8</ele>
        <time>2021-07-17T13:26:10Z</time>
      </trkpt>
      <trkpt lat="48.42557" lon="2.7134">
        <ele>158.5</ele>
        <time>2021-07-17T13:26:16Z</time>
      </trkpt>
      <trkpt lat="48.4254" lon="2.7137">
        <ele>158.4</ele>
        <time>2021-07-17T13:26:21Z</time>
      </trkpt>
      <trkpt lat="48.42527" lon="2.7139">
        <ele>158.1</ele>
        <time>2021-07-17T13:26:28Z</time>
      </trkpt>
      <trkpt lat="48.42518" lon="2.71414">
        <ele>157.8</ele>
        <time>2021-07-17T13:26:35Z</time>
      </trkpt>
      <trkpt lat="48.42504" lon="2.71438">
        <ele>157.4</ele>
        <time>2021-07-17T13:26:40Z</time>
      </trkpt>
      <trkpt lat="48.42493" lon="2.71462">
        <ele>157.4</ele>
        <time>2021-07-17T13:26:47Z</time>
      </trkpt>
      <trkpt lat="48.42483" lon="2.7149">
        <ele>157.5</ele>
        <time>2021-07-17T13:26:52Z</time>
      </trkpt>
      <trkpt lat="48.42473" lon="2.71518">
        <ele>157.2</ele>
        <time>2021-07-17T13:26:57Z</time>
      </trkpt>
      <trkpt lat="48.42463" lon="2.71543">
        <ele>156.8</ele>
        <time>2021-07-17T13:27:04Z</time>
      </trkpt>
      <trkpt lat="48.42448" lon="2.71562">
        <ele>156.5</ele>
        <time>2021-07-17T13:27:10Z</time>
      </trkpt>
      <trkpt lat="48.42432" lon="2.71579">
        <ele>156.2</ele>
        <time>2021-07-17T13:27:19Z</time>
      </trkpt>
      <trkpt lat="48.42431" lon="2.71568">
        <ele>156.2</ele>
        <time>2021-07-17T13:27:36Z</time>
      </trkpt>
      <trkpt lat="48.42364" lon="2.71627">
        <ele>153.6</ele>
        <time>2021-07-17T13:28:27Z</time>
      </trkpt>
      <trkpt lat="48.42359" lon="2.71625">
        <ele>153.4</ele>
        <time>2021-07-17T13:28:28Z</time>
      </trkpt>
      <trkpt lat="48.42338" lon="2.71616">
        <ele>152.6</ele>
        <time>2021-07-17T13:28:32Z</time>
      </trkpt>
      <trkpt lat="48.4232" lon="2.71605">
        <ele>151.8</ele>
        <time>2021-07-17T13:28:38Z</time>
      </trkpt>
      <trkpt lat="48.42299" lon="2.71597">
        <ele>150.9</ele>
        <time>2021-07-17T13:28:44Z</time>
      </trkpt>
      <trkpt lat="48.42282" lon="2.71588">
        <ele>150.2</ele>
        <time>2021-07-17T13:28:49Z</time>
      </trkpt>
      <trkpt lat="48.42262" lon="2.71579">
        <ele>149.4</ele>
        <time>2021-07-17T13:28:55Z</time>
      </trkpt>
      <trkpt lat="48.42243" lon="2.71573">
        <ele>149.1</ele>
        <time>2021-07-17T13:29:01Z</time>
      </trkpt>
      <trkpt lat="48.42221" lon="2.71562">
        <ele>149.3</ele>
        <time>2021-07-17T13:29:06Z</time>
      </trkpt>
      <trkpt lat="48.422" lon="2.71547">
        <ele>149.4</ele>
        <time>2021-07-17T13:29:11Z</time>
      </trkpt>
      <trkpt lat="48.42182" lon="2.71541">
        <ele>149.5</ele>
        <time>2021-07-17T13:29:16Z</time>
      </trkpt>
      <trkpt lat="48.42161" lon="2.71541">
        <ele>149.3</ele>
        <time>2021-07-17T13:29:28Z</time>
      </trkpt>
      <trkpt lat="48.42141" lon="2.7154">
        <ele>148.6</ele>
        <time>2021-07-17T13:29:33Z</time>
      </trkpt>
      <trkpt lat="48.42122" lon="2.71532">
        <ele>147.9</ele>
        <time>2021-07-17T13:29:38Z</time>
      </trkpt>
      <trkpt lat="48.42091" lon="2.71519">
        <ele>146.6</ele>
        <time>2021-07-17T13:29:43Z</time>
      </trkpt>
      <trkpt lat="48.42072" lon="2.71509">
        <ele>145.4</ele>
        <time>2021-07-17T13:29:49Z</time>
      </trkpt>
      <trkpt lat="48.42045" lon="2.715">
        <ele>143.7</ele>
        <time>2021-07-17T13:29:54Z</time>
      </trkpt>
      <trkpt lat="48.42024" lon="2.71495">
        <ele>142.3</ele>
        <time>2021-07-17T13:29:59Z</time>
      </trkpt>
      <trkpt lat="48.42001" lon="2.71488">
        <ele>140.8</ele>
        <time>2021-07-17T13:30:04Z</time>
      </trkpt>
      <trkpt lat="48.41983" lon="2.71483">
        <ele>136.8</ele>
        <time>2021-07-17T13:30:09Z</time>
      </trkpt>
      <trkpt lat="48.41964" lon="2.71475">
        <ele>132.6</ele>
        <time>2021-07-17T13:30:30Z</time>
      </trkpt>
      <trkpt lat="48.41971" lon="2.71469">
        <ele>134</ele>
        <time>2021-07-17T13:30:51Z</time>
      </trkpt>
      <trkpt lat="48.41959" lon="2.71483">
        <ele>131.6</ele>
        <time>2021-07-17T13:31:24Z</time>
      </trkpt>
      <trkpt lat="48.41958" lon="2.71483">
        <ele>131.3</ele>
        <time>2021-07-17T13:31:25Z</time>
      </trkpt>
      <trkpt lat="48.41964" lon="2.71467">
        <ele>132.6</ele>
        <time>2021-07-17T13:31:51Z</time>
      </trkpt>
      <trkpt lat="48.41964" lon="2.71464">
        <ele>132.5</ele>
        <time>2021-07-17T13:31:53Z</time>
      </trkpt>
      <trkpt lat="48.41963" lon="2.71461">
        <ele>132.3</ele>
        <time>2021-07-17T13:32:22Z</time>
      </trkpt>
      <trkpt lat="48.41964" lon="2.71461">
        <ele>132.5</ele>
        <time>2021-07-17T13:32:23Z</time>
      </trkpt>
      <trkpt lat="48.41966" lon="2.71466">
        <ele>132.8</ele>
        <time>2021-07-17T13:32:52Z</time>
      </trkpt>
      <trkpt lat="48.41966" lon="2.71466">
        <ele>132.8</ele>
        <time>2021-07-17T13:32:53Z</time>
      </trkpt>
      <trkpt lat="48.41973" lon="2.71482">
        <ele>134.6</ele>
        <time>2021-07-17T13:33:22Z</time>
      </trkpt>
      <trkpt lat="48.41974" lon="2.7149">
        <ele>135</ele>
        <time>2021-07-17T13:33:23Z</time>
      </trkpt>
      <trkpt lat="48.41993" lon="2.71509">
        <ele>139.3</ele>
        <time>2021-07-17T13:33:29Z</time>
      </trkpt>
      <trkpt lat="48.42013" lon="2.71513">
        <ele>141.5</ele>
        <time>2021-07-17T13:33:34Z</time>
      </trkpt>
      <trkpt lat="48.42023" lon="2.71532">
        <ele>141.9</ele>
        <time>2021-07-17T13:33:52Z</time>
      </trkpt>
      <trkpt lat="48.42022" lon="2.71532">
        <ele>141.9</ele>
        <time>2021-07-17T13:33:53Z</time>
      </trkpt>
      <trkpt lat="48.4201" lon="2.71553">
        <ele>140.6</ele>
        <time>2021-07-17T13:34:17Z</time>
      </trkpt>
      <trkpt lat="48.42009" lon="2.71581">
        <ele>139.9</ele>
        <time>2021-07-17T13:34:22Z</time>
      </trkpt>
      <trkpt lat="48.4202" lon="2.71608">
        <ele>139.7</ele>
        <time>2021-07-17T13:34:27Z</time>
      </trkpt>
      <trkpt lat="48.4203" lon="2.71641">
        <ele>139.4</ele>
        <time>2021-07-17T13:34:32Z</time>
      </trkpt>
      <trkpt lat="48.42008" lon="2.71644">
        <ele>136.4</ele>
        <time>2021-07-17T13:34:50Z</time>
      </trkpt>
      <trkpt lat="48.41982" lon="2.71658">
        <ele>131.3</ele>
        <time>2021-07-17T13:34:55Z</time>
      </trkpt>
      <trkpt lat="48.41955" lon="2.71678">
        <ele>126.8</ele>
        <time>2021-07-17T13:35:00Z</time>
      </trkpt>
      <trkpt lat="48.41935" lon="2.71683">
        <ele>123.7</ele>
        <time>2021-07-17T13:35:08Z</time>
      </trkpt>
      <trkpt lat="48.41921" lon="2.71684">
        <ele>121.5</ele>
        <time>2021-07-17T13:35:37Z</time>
      </trkpt>
      <trkpt lat="48.41921" lon="2.71682">
        <ele>121.4</ele>
        <time>2021-07-17T13:35:38Z</time>
      </trkpt>
      <trkpt lat="48.41937" lon="2.7168">
        <ele>123.9</ele>
        <time>2021-07-17T13:36:07Z</time>
      </trkpt>
      <trkpt lat="48.41939" lon="2.71679">
        <ele>124.2</ele>
        <time>2021-07-17T13:36:08Z</time>
      </trkpt>
      <trkpt lat="48.41948" lon="2.71675">
        <ele>125.6</ele>
        <time>2021-07-17T13:36:37Z</time>
      </trkpt>
      <trkpt lat="48.41949" lon="2.71675">
        <ele>125.7</ele>
        <time>2021-07-17T13:36:38Z</time>
      </trkpt>
      <trkpt lat="48.41965" lon="2.71663">
        <ele>128.2</ele>
        <time>2021-07-17T13:36:50Z</time>
      </trkpt>
      <trkpt lat="48.41984" lon="2.71647">
        <ele>132.3</ele>
        <time>2021-07-17T13:37:03Z</time>
      </trkpt>
      <trkpt lat="48.42003" lon="2.71641">
        <ele>135.9</ele>
        <time>2021-07-17T13:37:21Z</time>
      </trkpt>
      <trkpt lat="48.42023" lon="2.7163">
        <ele>139</ele>
        <time>2021-07-17T13:37:33Z</time>
      </trkpt>
      <trkpt lat="48.42019" lon="2.71639">
        <ele>138</ele>
        <time>2021-07-17T13:37:52Z</time>
      </trkpt>
      <trkpt lat="48.42016" lon="2.71642">
        <ele>137.6</ele>
        <time>2021-07-17T13:37:53Z</time>
      </trkpt>
      <trkpt lat="48.42001" lon="2.71658">
        <ele>134.7</ele>
        <time>2021-07-17T13:38:02Z</time>
      </trkpt>
      <trkpt lat="48.41983" lon="2.71651">
        <ele>131.9</ele>
        <time>2021-07-17T13:38:18Z</time>
      </trkpt>
      <trkpt lat="48.41957" lon="2.71657">
        <ele>127.1</ele>
        <time>2021-07-17T13:38:24Z</time>
      </trkpt>
      <trkpt lat="48.41937" lon="2.71665">
        <ele>123.5</ele>
        <time>2021-07-17T13:38:29Z</time>
      </trkpt>
      <trkpt lat="48.4191" lon="2.71673">
        <ele>119.8</ele>
        <time>2021-07-17T13:38:34Z</time>
      </trkpt>
      <trkpt lat="48.41885" lon="2.71675">
        <ele>117.9</ele>
        <time>2021-07-17T13:38:39Z</time>
      </trkpt>
      <trkpt lat="48.41885" lon="2.71678">
        <ele>118.1</ele>
        <time>2021-07-17T13:39:07Z</time>
      </trkpt>
      <trkpt lat="48.41888" lon="2.71677">
        <ele>118.2</ele>
        <time>2021-07-17T13:39:08Z</time>
      </trkpt>
      <trkpt lat="48.41906" lon="2.71675">
        <ele>119.6</ele>
        <time>2021-07-17T13:39:19Z</time>
      </trkpt>
      <trkpt lat="48.41898" lon="2.71677">
        <ele>119.1</ele>
        <time>2021-07-17T13:39:37Z</time>
      </trkpt>
      <trkpt lat="48.41898" lon="2.71677">
        <ele>119.1</ele>
        <time>2021-07-17T13:39:38Z</time>
      </trkpt>
      <trkpt lat="48.4188" lon="2.71679">
        <ele>117.7</ele>
        <time>2021-07-17T13:39:48Z</time>
      </trkpt>
      <trkpt lat="48.41873" lon="2.71686">
        <ele>117.3</ele>
        <time>2021-07-17T13:40:07Z</time>
      </trkpt>
      <trkpt lat="48.41872" lon="2.71687">
        <ele>117.2</ele>
        <time>2021-07-17T13:40:08Z</time>
      </trkpt>
      <trkpt lat="48.41851" lon="2.71705">
        <ele>115.6</ele>
        <time>2021-07-17T13:40:29Z</time>
      </trkpt>
      <trkpt lat="48.41828" lon="2.71737">
        <ele>113.4</ele>
        <time>2021-07-17T13:40:34Z</time>
      </trkpt>
      <trkpt lat="48.41807" lon="2.71776">
        <ele>110.9</ele>
        <time>2021-07-17T13:40:39Z</time>
      </trkpt>
      <trkpt lat="48.41784" lon="2.71809">
        <ele>108</ele>
        <time>2021-07-17T13:40:44Z</time>
      </trkpt>
      <trkpt lat="48.41758" lon="2.71832">
        <ele>104.1</ele>
        <time>2021-07-17T13:40:49Z</time>
      </trkpt>
      <trkpt lat="48.41732" lon="2.71857">
        <ele>100.7</ele>
        <time>2021-07-17T13:40:54Z</time>
      </trkpt>
      <trkpt lat="48.41719" lon="2.7189">
        <ele>99</ele>
        <time>2021-07-17T13:40:59Z</time>
      </trkpt>
      <trkpt lat="48.41721" lon="2.71922">
        <ele>99.7</ele>
        <time>2021-07-17T13:41:06Z</time>
      </trkpt>
      <trkpt lat="48.41721" lon="2.71953">
        <ele>99.8</ele>
        <time>2021-07-17T13:41:12Z</time>
      </trkpt>
      <trkpt lat="48.41719" lon="2.71989">
        <ele>99.4</ele>
        <time>2021-07-17T13:41:17Z</time>
      </trkpt>
      <trkpt lat="48.41708" lon="2.72017">
        <ele>97.2</ele>
        <time>2021-07-17T13:41:23Z</time>
      </trkpt>
      <trkpt lat="48.41699" lon="2.72045">
        <ele>95.1</ele>
        <time>2021-07-17T13:41:28Z</time>
      </trkpt>
      <trkpt lat="48.41693" lon="2.72081">
        <ele>93.5</ele>
        <time>2021-07-17T13:41:33Z</time>
      </trkpt>
      <trkpt lat="48.41691" lon="2.72112">
        <ele>94</ele>
        <time>2021-07-17T13:41:38Z</time>
      </trkpt>
      <trkpt lat="48.41687" lon="2.72145">
        <ele>94.4</ele>
        <time>2021-07-17T13:41:43Z</time>
      </trkpt>
      <trkpt lat="48.41682" lon="2.72179">
        <ele>94.3</ele>
        <time>2021-07-17T13:41:48Z</time>
      </trkpt>
      <trkpt lat="48.41685" lon="2.7221">
        <ele>94.5</ele>
        <time>2021-07-17T13:41:54Z</time>
      </trkpt>
      <trkpt lat="48.41684" lon="2.72238">
        <ele>94.3</ele>
        <time>2021-07-17T13:42:00Z</time>
      </trkpt>
      <trkpt lat="48.41682" lon="2.72269">
        <ele>93.2</ele>
        <time>2021-07-17T13:42:07Z</time>
      </trkpt>
      <trkpt lat="48.41687" lon="2.7231">
        <ele>92.9</ele>
        <time>2021-07-17T13:42:12Z</time>
      </trkpt>
      <trkpt lat="48.41695" lon="2.7234">
        <ele>93.2</ele>
        <time>2021-07-17T13:42:17Z</time>
      </trkpt>
      <trkpt lat="48.41705" lon="2.72374">
        <ele>93.8</ele>
        <time>2021-07-17T13:42:22Z</time>
      </trkpt>
      <trkpt lat="48.41715" lon="2.72404">
        <ele>94.3</ele>
        <time>2021-07-17T13:42:28Z</time>
      </trkpt>
      <trkpt lat="48.41718" lon="2.72442">
        <ele>93.6</ele>
        <time>2021-07-17T13:42:33Z</time>
      </trkpt>
      <trkpt lat="48.41716" lon="2.7247">
        <ele>92.6</ele>
        <time>2021-07-17T13:42:39Z</time>
      </trkpt>
      <trkpt lat="48.41716" lon="2.72498">
        <ele>91.8</ele>
        <time>2021-07-17T13:42:46Z</time>
      </trkpt>
      <trkpt lat="48.41713" lon="2.72524">
        <ele>89.9</ele>
        <time>2021-07-17T13:42:52Z</time>
      </trkpt>
      <trkpt lat="48.41707" lon="2.72538">
        <ele>88.2</ele>
        <time>2021-07-17T13:43:07Z</time>
      </trkpt>
      <trkpt lat="48.41705" lon="2.7254">
        <ele>87.8</ele>
        <time>2021-07-17T13:43:08Z</time>
      </trkpt>
      <trkpt lat="48.41689" lon="2.7252">
        <ele>86.5</ele>
        <time>2021-07-17T13:43:20Z</time>
      </trkpt>
      <trkpt lat="48.4168" lon="2.72491">
        <ele>86.3</ele>
        <time>2021-07-17T13:43:27Z</time>
      </trkpt>
      <trkpt lat="48.41667" lon="2.7247">
        <ele>85.1</ele>
        <time>2021-07-17T13:43:32Z</time>
      </trkpt>
      <trkpt lat="48.41664" lon="2.72499">
        <ele>83.9</ele>
        <time>2021-07-17T13:43:44Z</time>
      </trkpt>
      <trkpt lat="48.41665" lon="2.72541">
        <ele>82.4</ele>
        <time>2021-07-17T13:43:49Z</time>
      </trkpt>
      <trkpt lat="48.41675" lon="2.7257">
        <ele>82.5</ele>
        <time>2021-07-17T13:43:54Z</time>
      </trkpt>
      <trkpt lat="48.41681" lon="2.72601">
        <ele>82.1</ele>
        <time>2021-07-17T13:43:59Z</time>
      </trkpt>
      <trkpt lat="48.41681" lon="2.72629">
        <ele>81.2</ele>
        <time>2021-07-17T13:44:09Z</time>
      </trkpt>
      <trkpt lat="48.41666" lon="2.72644">
        <ele>79.5</ele>
        <time>2021-07-17T13:44:23Z</time>
      </trkpt>
      <trkpt lat="48.41662" lon="2.72651">
        <ele>79.2</ele>
        <time>2021-07-17T13:44:52Z</time>
      </trkpt>
      <trkpt lat="48.41661" lon="2.72651">
        <ele>79.2</ele>
        <time>2021-07-17T13:44:53Z</time>
      </trkpt>
      <trkpt lat="48.41684" lon="2.72634">
        <ele>81.2</ele>
        <time>2021-07-17T13:46:00Z</time>
      </trkpt>
      <trkpt lat="48.41674" lon="2.72633">
        <ele>80.4</ele>
        <time>2021-07-17T13:46:01Z</time>
      </trkpt>
      <trkpt lat="48.41653" lon="2.72629">
        <ele>79.4</ele>
        <time>2021-07-17T13:46:07Z</time>
      </trkpt>
      <trkpt lat="48.41649" lon="2.7262">
        <ele>79.5</ele>
        <time>2021-07-17T13:46:22Z</time>
      </trkpt>
      <trkpt lat="48.41649" lon="2.7262">
        <ele>79.5</ele>
        <time>2021-07-17T13:46:23Z</time>
      </trkpt>
      <trkpt lat="48.41672" lon="2.72656">
        <ele>79.6</ele>
        <time>2021-07-17T13:48:24Z</time>
      </trkpt>
      <trkpt lat="48.41671" lon="2.72656">
        <ele>79.5</ele>
        <time>2021-07-17T13:48:25Z</time>
      </trkpt>
      <trkpt lat="48.41686" lon="2.72671">
        <ele>80.1</ele>
        <time>2021-07-17T13:48:45Z</time>
      </trkpt>
      <trkpt lat="48.41694" lon="2.72684">
        <ele>80.4</ele>
        <time>2021-07-17T13:49:03Z</time>
      </trkpt>
      <trkpt lat="48.41699" lon="2.7269">
        <ele>80.6</ele>
        <time>2021-07-17T13:49:10Z</time>
      </trkpt>
      <trkpt lat="48.41717" lon="2.72696">
        <ele>81.1</ele>
        <time>2021-07-17T13:49:21Z</time>
      </trkpt>
      <trkpt lat="48.41736" lon="2.72699">
        <ele>81.6</ele>
        <time>2021-07-17T13:49:30Z</time>
      </trkpt>
      <trkpt lat="48.41809" lon="2.72828">
        <ele>81.6</ele>
        <time>2021-07-17T13:50:25Z</time>
      </trkpt>
      <trkpt lat="48.4181" lon="2.72827">
        <ele>81.7</ele>
        <time>2021-07-17T13:50:26Z</time>
      </trkpt>
      <trkpt lat="48.41807" lon="2.7279">
        <ele>83</ele>
        <time>2021-07-17T13:50:31Z</time>
      </trkpt>
      <trkpt lat="48.41822" lon="2.72787">
        <ele>84.1</ele>
        <time>2021-07-17T13:50:52Z</time>
      </trkpt>
      <trkpt lat="48.41824" lon="2.72784">
        <ele>84.3</ele>
        <time>2021-07-17T13:50:58Z</time>
      </trkpt>
      <trkpt lat="48.41825" lon="2.72755">
        <ele>85.9</ele>
        <time>2021-07-17T13:51:07Z</time>
      </trkpt>
      <trkpt lat="48.41826" lon="2.72739">
        <ele>87.7</ele>
        <time>2021-07-17T13:51:22Z</time>
      </trkpt>
      <trkpt lat="48.41834" lon="2.72747">
        <ele>87.4</ele>
        <time>2021-07-17T13:51:28Z</time>
      </trkpt>
      <trkpt lat="48.41833" lon="2.72741">
        <ele>88.1</ele>
        <time>2021-07-17T13:51:50Z</time>
      </trkpt>
      <trkpt lat="48.41826" lon="2.7277">
        <ele>85.2</ele>
        <time>2021-07-17T13:52:37Z</time>
      </trkpt>
    </trkseg>
  </trk>
</gpx>